[[{"header":{"parameterUnit":"m.s-1","parameterCategory":1,"la1":30.6,"la2":29.2853,"lo1":-89.7004,"lo2":-87.6739,"dy":0.0162,"dx":0.0183,"nx":112,"ny":82,"refTime":"2023-11-19T06:00:00:Z","depth":0,"parameterNumber":2,"parameterNumberName":"U-component_of_WINDS"},"data":[0.0,0.0,0.0,0.0,0.0,0.0,0.0,0.0,0.0,0.0,0.0,0.0,0.0,0.0,0.0,0.0,0.0,0.0,0.0,0.0,0.0,0.0,0.0,0.0,0.0,0.0,0.0,0.0,0.0,0.0,0.0,0.0,0.0,0.0,0.0,0.0,0.0,0.0,0.0,0.0,0.0,0.0,0.0,0.0,0.0,0.0,0.0,0.0,0.0,0.0,0.0,0.0,0.0,0.0,0.0,0.0,0.0,0.0,0.0,0.0,0.0,0.0,0.0,0.0,0.0,0.0,0.0,0.0,0.0,0.0,0.0,0.0,0.0,0.0,0.0,0.0,0.0,0.0,0.0,0.0,0.0,0.0,0.0,0.0,0.0,0.0,0.0,0.0,0.0,0.0,2.9527,3.0166,3.0693,3.0991,3.0991,3.0991,3.0991,3.0991,0.0,0.0,0.0,0.0,0.0,0.0,0.0,0.0,0.0,0.0,0.0,0.0,0.0,0.0,0.0,0.0,0.0,0.0,0.0,0.0,0.0,0.0,0.0,0.0,0.0,0.0,0.0,0.0,0.0,0.0,0.0,0.0,0.0,0.0,0.0,0.0,0.0,0.0,0.0,0.0,0.0,0.0,0.0,0.0,0.0,0.0,0.0,0.0,0.0,0.0,0.0,0.0,0.0,0.0,0.0,0.0,0.0,0.0,0.0,0.0,0.0,0.0,0.0,0.0,0.0,0.0,0.0,0.0,0.0,0.0,0.0,0.0,0.0,0.0,0.0,0.0,0.0,0.0,0.0,0.0,0.0,0.0,0.0,0.0,0.0,0.0,0.0,0.0,0.0,0.0,0.0,0.0,0.0,0.0,0.0,0.0,0.0,0.0,0.0,0.0,0.0,0.0,0.0,0.0,3.0926,3.0871,3.0957,3.0991,3.0991,3.0991,3.0991,3.0991,0.0,0.0,0.0,0.0,0.0,0.0,0.0,0.0,0.0,0.0,0.0,0.0,0.0,0.0,0.0,0.0,0.0,0.0,0.0,0.0,0.0,0.0,0.0,0.0,0.0,0.0,0.0,0.0,0.0,0.0,0.0,0.0,0.0,0.0,0.0,0.0,0.0,0.0,0.0,0.0,0.0,0.0,0.0,0.0,0.0,0.0,0.0,0.0,0.0,0.0,0.0,0.0,0.0,0.0,0.0,0.0,0.0,0.0,0.0,0.0,0.0,0.0,0.0,0.0,0.0,0.0,0.0,0.0,0.0,0.0,0.0,0.0,0.0,0.0,0.0,0.0,0.0,0.0,0.0,0.0,0.0,0.0,0.0,0.0,0.0,0.0,0.0,0.0,0.0,0.0,0.0,0.0,0.0,0.0,0.0,0.0,0.0,0.0,0.0,0.0,0.0,0.0,0.0,3.1324,3.1758,3.1668,3.2042,3.2288,3.2288,3.2288,3.2288,3.2288,3.2288,0.0,0.0,0.0,0.0,0.0,0.0,0.0,0.0,0.0,0.0,0.0,0.0,0.0,0.0,0.0,0.0,0.0,0.0,0.0,0.0,0.0,0.0,0.0,0.0,0.0,0.0,0.0,0.0,0.0,0.0,0.0,0.0,0.0,0.0,0.0,0.0,0.0,0.0,0.0,0.0,0.0,0.0,0.0,0.0,0.0,0.0,0.0,0.0,0.0,0.0,0.0,0.0,0.0,0.0,0.0,0.0,0.0,0.0,0.0,0.0,0.0,0.0,0.0,0.0,0.0,0.0,0.0,0.0,0.0,0.0,0.0,0.0,0.0,0.0,0.0,0.0,0.0,0.0,0.0,0.0,0.0,0.0,0.0,0.0,0.0,0.0,0.0,0.0,0.0,0.0,0.0,0.0,0.0,0.0,0.0,0.0,0.0,0.0,0.0,0.0,0.0,0.0,3.2089,3.2488,3.2488,3.3031,3.3393,3.3393,3.3393,3.3393,3.3393,3.3393,0.0,0.0,0.0,0.0,0.0,0.0,0.0,0.0,0.0,0.0,0.0,0.0,0.0,0.0,0.0,0.0,0.0,0.0,0.0,0.0,0.0,0.0,0.0,0.0,0.0,0.0,0.0,0.0,0.0,0.0,0.0,0.0,0.0,0.0,0.0,0.0,0.0,0.0,0.0,0.0,0.0,0.0,0.0,0.0,0.0,0.0,0.0,0.0,0.0,0.0,0.0,0.0,0.0,0.0,0.0,0.0,0.0,0.0,0.0,0.0,0.0,0.0,0.0,0.0,0.0,0.0,0.0,0.0,0.0,0.0,0.0,0.0,0.0,0.0,0.0,0.0,0.0,0.0,0.0,0.0,0.0,0.0,0.0,0.0,0.0,0.0,0.0,0.0,0.0,0.0,0.0,0.0,0.0,0.0,0.0,0.0,0.0,0.0,0.0,0.0,0.0,0.0,3.3284,3.3321,3.3321,3.3375,3.3393,3.3393,3.3393,3.3393,3.3393,3.3393,0.0,0.0,0.0,0.0,0.0,0.0,0.0,0.0,0.0,0.0,0.0,0.0,0.0,0.0,0.0,0.0,0.0,0.0,0.0,0.0,0.0,0.0,0.0,0.0,0.0,0.0,0.0,0.0,0.0,0.0,0.0,0.0,0.0,0.0,0.0,0.0,0.0,0.0,0.0,0.0,0.0,0.0,0.0,0.0,0.0,0.0,0.0,0.0,0.0,0.0,0.0,0.0,0.0,0.0,0.0,0.0,0.0,0.0,0.0,0.0,0.0,0.0,0.0,0.0,0.0,0.0,0.0,0.0,0.0,0.0,0.0,0.0,0.0,0.0,0.0,0.0,0.0,0.0,0.0,0.0,0.0,0.0,0.0,0.0,0.0,0.0,0.0,0.0,0.0,0.0,0.0,0.0,0.0,0.0,0.0,0.0,0.0,0.0,0.0,0.0,0.0,0.0,3.3393,3.3393,0.0,3.3393,3.3393,3.3393,3.3393,3.3393,3.3393,0.0,0.0,0.0,0.0,0.0,0.0,0.0,0.0,0.0,0.0,0.0,0.0,0.0,0.0,0.0,0.0,0.0,0.0,0.0,0.0,0.0,0.0,0.0,0.0,0.0,0.0,0.0,0.0,0.0,0.0,0.0,0.0,0.0,0.0,0.0,0.0,0.0,0.0,0.0,0.0,0.0,0.0,0.0,0.0,0.0,0.0,0.0,0.0,0.0,0.0,0.0,0.0,0.0,0.0,0.0,0.0,0.0,0.0,0.0,0.0,0.0,0.0,0.0,0.0,0.0,0.0,0.0,0.0,0.0,0.0,0.0,0.0,0.0,0.0,0.0,0.0,0.0,0.0,0.0,0.0,0.0,0.0,0.0,0.0,0.0,0.0,0.0,0.0,0.0,0.0,0.0,0.0,0.0,0.0,0.0,0.0,0.0,0.0,0.0,0.0,0.0,0.0,3.3393,3.3628,3.3784,0.0,3.4009,3.4164,3.4164,3.4164,3.4164,3.4164,0.0,0.0,0.0,0.0,0.0,0.0,0.0,0.0,0.0,0.0,0.0,0.0,0.0,0.0,0.0,0.0,0.0,0.0,0.0,0.0,0.0,0.0,0.0,0.0,0.0,0.0,0.0,0.0,0.0,0.0,0.0,0.0,0.0,0.0,0.0,0.0,0.0,0.0,0.0,0.0,0.0,0.0,0.0,0.0,0.0,0.0,0.0,0.0,0.0,0.0,0.0,0.0,0.0,0.0,0.0,0.0,0.0,0.0,0.0,0.0,0.0,0.0,0.0,0.0,0.0,0.0,0.0,0.0,0.0,0.0,0.0,0.0,0.0,0.0,0.0,0.0,0.0,0.0,0.0,0.0,0.0,0.0,0.0,0.0,0.0,0.0,0.0,0.0,0.0,0.0,0.0,0.0,0.0,0.0,0.0,0.0,0.0,0.0,0.0,0.0,0.0,0.0,3.3429,3.411,3.4617,3.4617,3.5323,3.5804,3.5804,3.5804,3.5804,0.0,0.0,0.0,0.0,0.0,0.0,0.0,0.0,0.0,0.0,0.0,0.0,0.0,0.0,0.0,0.0,0.0,0.0,0.0,0.0,0.0,0.0,0.0,0.0,0.0,0.0,0.0,0.0,0.0,0.0,0.0,0.0,0.0,0.0,0.0,0.0,0.0,0.0,0.0,0.0,0.0,0.0,0.0,0.0,0.0,0.0,0.0,0.0,0.0,0.0,0.0,0.0,0.0,0.0,0.0,0.0,0.0,0.0,0.0,0.0,0.0,0.0,0.0,0.0,0.0,0.0,0.0,0.0,0.0,0.0,0.0,0.0,0.0,0.0,0.0,0.0,0.0,0.0,0.0,0.0,0.0,0.0,0.0,0.0,0.0,0.0,0.0,0.0,0.0,0.0,0.0,0.0,0.0,0.0,0.0,0.0,0.0,0.0,0.0,0.0,0.0,0.0,0.0,3.5088,3.5305,3.545,3.545,3.5667,3.5804,3.5804,3.5804,3.5804,3.5804,0.0,0.0,0.0,0.0,0.0,0.0,0.0,0.0,0.0,0.0,0.0,0.0,0.0,0.0,0.0,0.0,0.0,0.0,0.0,0.0,0.0,0.0,0.0,0.0,0.0,0.0,0.0,0.0,0.0,0.0,0.0,0.0,0.0,0.0,0.0,0.0,0.0,0.0,0.0,0.0,0.0,0.0,0.0,0.0,0.0,0.0,0.0,0.0,0.0,0.0,0.0,0.0,0.0,0.0,0.0,0.0,0.0,0.0,0.0,0.0,0.0,0.0,0.0,0.0,0.0,0.0,0.0,0.0,0.0,0.0,0.0,0.0,0.0,0.0,0.0,0.0,0.0,0.0,0.0,0.0,0.0,0.0,0.0,0.0,0.0,0.0,0.0,0.0,0.0,0.0,0.0,0.0,0.0,0.0,0.0,0.0,0.0,0.0,0.0,0.0,0.0,0.0,3.5804,3.6083,3.6272,3.6272,3.658,3.6761,3.6761,3.6761,3.6761,3.6761,0.0,0.0,0.0,0.0,0.0,0.0,0.0,0.0,0.0,0.0,0.0,0.0,0.0,0.0,0.0,0.0,0.0,0.0,0.0,0.0,0.0,0.0,0.0,0.0,0.0,0.0,0.0,0.0,0.0,0.0,0.0,0.0,0.0,0.0,0.0,0.0,0.0,0.0,0.0,0.0,0.0,0.0,0.0,0.0,0.0,0.0,0.0,0.0,0.0,0.0,0.0,0.0,0.0,0.0,0.0,0.0,0.0,0.0,0.0,0.0,0.0,0.0,0.0,0.0,0.0,0.0,0.0,0.0,0.0,0.0,0.0,0.0,0.0,0.0,0.0,0.0,0.0,0.0,0.0,0.0,0.0,0.0,0.0,0.0,0.0,0.0,0.0,0.0,0.0,0.0,0.0,0.0,0.0,0.0,0.0,0.0,0.0,0.0,0.0,0.0,0.0,0.0,3.6029,3.6653,3.7104,3.7104,3.7756,3.82,3.82,3.82,3.82,3.82,0.0,0.0,0.0,0.0,0.0,0.0,0.0,0.0,0.0,0.0,0.0,0.0,0.0,0.0,0.0,0.0,0.0,0.0,0.0,0.0,0.0,0.0,0.0,0.0,0.0,0.0,0.0,0.0,0.0,0.0,0.0,0.0,0.0,0.0,0.0,0.0,0.0,0.0,0.0,0.0,0.0,0.0,0.0,0.0,0.0,0.0,0.0,0.0,0.0,0.0,0.0,0.0,0.0,0.0,0.0,0.0,0.0,0.0,0.0,0.0,2.7053,0.0,0.0,0.0,0.0,0.0,0.0,0.0,0.0,0.0,0.0,0.0,0.0,0.0,0.0,0.0,0.0,0.0,0.0,0.0,0.0,0.0,0.0,0.0,0.0,0.0,0.0,0.0,0.0,0.0,0.0,0.0,0.0,0.0,0.0,0.0,0.0,0.0,0.0,0.0,0.0,0.0,3.7693,3.7838,3.7937,3.7937,3.8092,3.82,3.82,3.82,3.82,3.82,3.82,0.0,0.0,0.0,0.0,0.0,0.0,0.0,0.0,0.0,0.0,0.0,0.0,0.0,0.0,0.0,0.0,0.0,0.0,0.0,0.0,0.0,0.0,0.0,0.0,0.0,0.0,0.0,0.0,0.0,0.0,0.0,0.0,0.0,0.0,0.0,0.0,0.0,0.0,0.0,0.0,0.0,0.0,0.0,0.0,0.0,0.0,0.0,0.0,0.0,0.0,0.0,0.0,0.0,0.0,0.0,0.0,0.0,0.0,0.0,0.0,2.7062,0.0,0.0,0.0,0.0,0.0,0.0,0.0,0.0,0.0,0.0,0.0,0.0,0.0,0.0,0.0,0.0,0.0,0.0,0.0,0.0,0.0,0.0,0.0,0.0,0.0,0.0,0.0,0.0,0.0,0.0,0.0,0.0,0.0,0.0,0.0,0.0,0.0,0.0,0.0,0.0,3.926,3.9112,3.9067,3.9279,3.9112,3.8978,3.8978,3.8978,3.8869,3.8656,3.8637,0.0,0.0,0.0,0.0,0.0,0.0,0.0,0.0,0.0,0.0,0.0,0.0,0.0,0.0,0.0,0.0,0.0,0.0,0.0,0.0,0.0,0.0,0.0,0.0,0.0,0.0,0.0,0.0,0.0,0.0,0.0,0.0,0.0,0.0,0.0,0.0,0.0,0.0,0.0,0.0,0.0,0.0,0.0,0.0,0.0,0.0,0.0,0.0,0.0,0.0,0.0,0.0,0.0,2.719,2.7283,2.7258,2.787,2.815,2.8125,2.7639,2.7274,2.7054,0.0,0.0,0.0,0.0,0.0,0.0,0.0,0.0,0.0,0.0,0.0,0.0,0.0,0.0,0.0,0.0,0.0,0.0,0.0,0.0,0.0,0.0,0.0,0.0,0.0,3.3407,3.3442,0.0,0.0,0.0,0.0,0.0,0.0,0.0,0.0,0.0,0.0,0.0,0.0,4.0312,4.0042,3.992,4.0219,3.99,3.9708,3.9786,3.9796,3.9669,3.9357,3.9337,3.9034,0.0,0.0,0.0,0.0,0.0,0.0,0.0,0.0,0.0,0.0,0.0,0.0,0.0,0.0,0.0,0.0,0.0,0.0,0.0,0.0,0.0,0.0,0.0,0.0,0.0,0.0,0.0,0.0,0.0,0.0,0.0,0.0,2.7465,2.7481,0.0,0.0,0.0,0.0,0.0,0.0,0.0,0.0,0.0,0.0,0.0,0.0,0.0,2.8257,2.8476,2.8485,2.8457,2.8421,2.8457,2.8373,2.8225,2.8325,2.8358,2.8358,2.8277,0.0,2.8763,2.8584,0.0,0.0,0.0,0.0,0.0,0.0,0.0,0.0,0.0,0.0,0.0,0.0,0.0,0.0,0.0,0.0,0.0,0.0,0.0,0.0,0.0,0.0,3.3329,3.3386,3.3393,3.359,0.0,3.4343,3.4606,3.5453,0.0,0.0,0.0,0.0,0.0,0.0,0.0,0.0,3.993,3.9834,3.9669,3.9316,3.9223,3.9357,3.9767,3.9796,3.9948,4.0302,4.032,4.0091,3.9567,3.9606,0.0,0.0,0.0,0.0,0.0,0.0,0.0,0.0,0.0,0.0,0.0,0.0,0.0,0.0,0.0,0.0,0.0,0.0,0.0,0.0,0.0,0.0,0.0,0.0,0.0,0.0,0.0,0.0,0.0,2.7539,2.7577,2.7577,2.7861,2.7956,0.0,0.0,0.0,0.0,0.0,0.0,0.0,0.0,0.0,2.8842,2.8565,2.851,2.8706,2.859,2.8531,2.8531,2.8531,2.8491,2.8409,2.8797,2.8953,2.8986,2.94,2.9706,2.9812,2.8913,2.8531,2.8522,0.0,0.0,0.0,0.0,0.0,3.0505,3.0449,3.0532,0.0,0.0,0.0,0.0,0.0,0.0,0.0,0.0,0.0,0.0,0.0,0.0,0.0,3.3967,3.4015,3.4336,3.5532,3.5785,3.5835,0.0,3.638,3.7091,3.8454,0.0,0.0,0.0,0.0,4.0484,4.0717,4.0767,4.0778,4.0847,4.0847,4.093,4.1133,4.1153,4.1012,4.0701,4.068,4.0384,3.977,3.9958,4.001,0.0,0.0,0.0,0.0,0.0,0.0,0.0,0.0,0.0,0.0,0.0,0.0,0.0,0.0,0.0,0.0,0.0,0.0,0.0,0.0,0.0,0.0,0.0,0.0,0.0,0.0,0.0,0.0,2.8194,2.8315,2.8315,2.8842,2.9091,0.0,0.0,0.0,0.0,0.0,0.0,2.943,2.9202,2.9196,2.9519,2.9147,2.9011,2.9154,2.9011,2.8946,2.8946,2.8946,2.8946,2.8946,2.944,2.9678,2.9711,3.0257,3.0506,3.0423,2.9367,2.8946,2.8946,2.8946,2.9383,3.0047,3.0047,3.061,3.1367,3.1208,3.1307,3.1531,3.1722,0.0,3.2072,3.2467,0.0,0.0,0.0,0.0,3.4443,3.4187,3.4415,3.4787,3.5033,3.5227,3.5673,3.6834,3.7071,3.7006,0.0,3.715,3.7826,3.8785,0.0,0.0,0.0,0.0,4.1,4.1597,4.1667,4.1728,4.1825,4.1835,4.1835,4.1835,4.1835,4.1587,4.1019,4.0972,4.0683,4.0008,4.0382,4.0514,4.0308,0.0,0.0,0.0,0.0,0.0,0.0,0.0,0.0,0.0,0.0,0.0,0.0,0.0,0.0,0.0,0.0,0.0,0.0,0.0,0.0,0.0,0.0,0.0,0.0,0.0,0.0,0.0,0.0,0.0,2.9975,3.0028,0.0,0.0,0.0,0.0,2.9324,2.9237,2.9383,2.9851,2.9792,2.9955,3.0408,3.041,3.04,3.0421,3.04,3.039,3.039,3.039,3.039,3.04,3.0423,3.0439,3.0456,3.0472,3.0506,3.0489,3.0423,3.039,3.039,3.039,3.0433,3.047,3.047,3.0514,3.0572,3.0692,3.12,3.1794,3.1947,3.2494,3.3144,3.3298,3.3374,0.0,0.0,3.3961,3.4503,3.4481,3.5565,3.6666,3.6677,3.7212,3.7741,3.7826,3.7838,3.7838,0.0,3.7845,3.8243,3.9445,0.0,4.0234,4.1886,4.2124,4.2121,4.2157,4.2157,4.1825,4.0961,4.0873,4.0873,4.0873,4.0873,4.1042,4.1437,4.1459,4.1258,4.0762,4.1183,4.1433,4.142,4.1877,0.0,0.0,0.0,0.0,0.0,0.0,0.0,0.0,0.0,0.0,0.0,0.0,0.0,0.0,0.0,0.0,0.0,0.0,0.0,0.0,0.0,0.0,0.0,0.0,0.0,0.0,0.0,0.0,2.9776,3.0245,0.0,3.0413,3.067,3.0818,3.0726,3.0485,3.0518,3.0914,3.0692,3.065,3.0818,3.1068,3.1217,3.1217,3.1675,3.1918,3.1918,3.1918,3.1918,3.1918,3.1918,3.1918,3.1918,3.1918,3.1918,3.1918,3.1918,3.136,3.0506,3.0506,3.0787,3.1217,3.1217,3.1509,3.1939,3.2081,3.2236,3.2403,3.2545,3.2858,3.3293,3.3818,3.3981,3.4205,3.5289,3.5785,3.609,3.6569,3.7094,3.7499,3.7499,3.7719,3.8041,3.8514,3.8616,3.8751,3.922,3.8933,3.8836,3.9566,3.9841,4.0259,4.1162,4.1042,4.0843,4.0843,4.1105,4.118,4.0837,4.1076,4.1253,4.1253,4.1253,4.1196,4.1065,4.1053,4.0972,4.0802,4.0961,4.1196,4.1492,4.1656,4.1848,0.0,0.0,0.0,0.0,0.0,0.0,0.0,0.0,0.0,0.0,0.0,0.0,0.0,0.0,0.0,0.0,0.0,0.0,0.0,0.0,0.0,0.0,0.0,0.0,0.0,0.0,3.0422,3.0533,3.0924,3.1175,3.1175,3.1371,3.1494,3.1494,3.1193,3.1206,3.1686,3.1385,3.132,3.1581,3.1827,3.1973,3.1973,3.2459,3.2691,3.2691,3.2691,3.2691,3.2691,3.2691,3.2691,3.2691,3.2691,3.2691,3.2691,3.2691,3.2116,3.1244,3.1244,3.1543,3.1973,3.1973,3.2282,3.2752,3.3084,3.3145,3.3133,3.3511,3.3896,3.4326,3.4897,3.5251,3.5694,3.685,3.7173,3.7291,3.777,3.8079,3.8278,3.8278,3.8464,3.8768,3.9271,3.9372,3.9525,4.0011,3.9706,3.9466,3.9771,3.998,4.0254,4.0731,4.0531,4.0385,4.0551,4.0843,4.0972,4.0825,4.1088,4.1208,4.1047,4.1174,4.1059,4.0604,4.0707,4.0731,4.0568,4.0867,4.1185,4.1492,4.1663,4.1814,4.1962,0.0,0.0,0.0,0.0,0.0,0.0,0.0,0.0,0.0,0.0,0.0,0.0,0.0,0.0,0.0,0.0,0.0,0.0,0.0,0.0,0.0,0.0,0.0,3.1858,3.1894,3.202,3.2336,3.209,3.1876,3.1867,3.1662,3.1509,3.15,3.1224,3.1355,3.2082,3.1807,3.1956,3.2674,3.2707,3.2724,3.2724,3.2757,3.2757,3.2757,3.2757,3.2757,3.2757,3.2757,3.2757,3.2757,3.2757,3.2757,3.2757,3.2757,3.2757,3.2757,3.2707,3.2707,3.2724,3.2724,3.274,3.2873,3.3619,3.3867,3.4023,3.4886,3.5654,3.6285,3.656,3.7136,3.772,3.7886,3.7927,3.7927,3.7961,3.8485,3.9022,3.9022,3.9576,4.0083,4.0096,4.0096,4.0096,4.0096,4.0096,4.0096,4.0096,4.0096,4.0241,4.0707,4.0778,0.0,4.1393,4.1459,4.1298,4.0849,4.0802,4.0616,4.0159,4.0544,4.0604,4.0121,4.0519,4.058,4.0121,4.0966,4.1459,4.1459,4.1909,4.1931,4.147,0.0,0.0,0.0,0.0,0.0,0.0,0.0,0.0,0.0,0.0,0.0,0.0,0.0,0.0,0.0,0.0,0.0,0.0,0.0,0.0,0.0,0.0,3.1589,3.1858,3.1894,3.1866,3.1764,3.1681,3.1513,3.1274,3.1667,3.182,3.1589,3.1979,3.2308,3.2518,3.2447,3.2481,3.2691,3.3221,3.3503,3.3503,3.4033,3.4298,3.4298,3.4298,3.4298,3.4298,3.4298,3.4298,3.4298,3.4298,3.4298,3.4298,3.4298,3.4298,3.4199,3.3122,3.3022,3.3503,3.3503,3.3834,3.4397,3.5131,3.5456,3.5661,3.6331,3.6824,3.7159,3.7232,3.7467,3.785,3.8512,3.87,3.8794,3.9236,3.9497,3.9649,3.9649,3.9813,3.9973,4.0087,4.0096,4.0096,4.0096,4.0096,4.0096,4.0096,4.0096,4.0146,4.0266,4.0291,0.0,4.0471,4.0478,4.058,4.0778,4.0802,4.0742,4.0628,4.0736,4.0604,4.0121,4.0221,4.0229,4.0113,4.0353,4.0478,4.0478,4.0949,4.1122,0.0,0.0,0.0,0.0,0.0,0.0,0.0,0.0,0.0,0.0,0.0,0.0,0.0,0.0,0.0,0.0,0.0,0.0,0.0,0.0,0.0,0.0,3.1741,3.1849,3.2103,3.1796,3.1523,3.1494,3.1643,3.1663,3.148,3.2001,3.2267,3.2078,3.2459,3.2823,3.3138,3.3053,3.319,3.3607,3.4242,3.4534,3.451,3.5385,3.5749,3.5622,3.5749,3.5827,3.5827,3.5827,3.5827,0.0,3.5827,3.5827,3.5827,3.5827,3.5827,0.0,0.0,0.0,0.0,0.0,3.5181,3.5876,3.6307,3.651,3.6638,3.6995,3.7402,3.779,3.7866,3.8146,3.8568,3.9127,3.932,3.9434,3.9745,3.9862,3.9901,3.9901,3.9901,3.9939,4.0075,4.0096,4.0096,4.0096,0.0,0.0,4.0096,4.0096,4.0096,4.0096,4.0096,4.0096,4.0096,4.0096,4.0209,4.0471,4.0507,4.0507,4.0507,4.07,0.0,0.0,0.0,4.0385,4.0385,4.0385,0.0,0.0,0.0,4.0695,4.0507,0.0,0.0,0.0,4.1814,4.2167,0.0,0.0,0.0,0.0,0.0,0.0,0.0,0.0,0.0,0.0,0.0,0.0,0.0,0.0,0.0,0.0,3.2002,3.2303,3.2549,3.1786,3.1328,3.1645,3.2005,3.2217,3.2158,3.2579,3.2823,3.2823,3.2867,3.3237,3.4005,0.0,0.0,0.0,0.0,3.5747,3.568,3.6632,3.6959,3.6665,3.6959,3.7089,3.7089,3.7089,3.7089,3.7089,3.7089,3.7089,3.7089,3.7089,3.7089,3.6973,3.5661,3.5148,3.523,3.5876,3.6539,0.0,0.0,0.0,0.0,3.7317,3.7798,3.8367,3.8493,3.8981,3.9554,3.9664,3.9781,3.9849,3.9703,3.9785,3.9888,3.9888,3.9888,3.9939,4.0075,4.0096,4.0096,4.0096,4.0096,4.0096,4.0096,4.0096,4.0096,4.0096,4.0096,4.0096,4.0096,4.0096,4.0121,4.0171,0.0,0.0,4.0184,4.0568,4.0604,4.0121,4.0483,4.0719,4.0719,4.0719,4.0719,4.0719,4.0719,4.0519,4.0096,4.0096,4.0316,4.0731,4.1208,4.1667,0.0,0.0,0.0,0.0,0.0,0.0,0.0,0.0,0.0,0.0,0.0,0.0,0.0,0.0,0.0,3.3148,3.3089,3.3012,3.3064,3.2664,3.2494,3.2824,3.2938,3.2884,3.2613,3.3188,3.3585,3.3585,3.3933,3.4568,3.5516,3.5317,0.0,3.6642,3.677,3.6798,3.6786,3.6998,3.7064,3.6997,0.0,0.0,3.7089,3.7089,3.7089,3.7089,3.7089,3.7089,3.7089,3.7089,3.7089,3.7056,3.6787,3.6659,3.6688,3.6824,3.6986,3.7201,3.7785,3.7983,3.8083,3.8672,3.905,3.9245,3.9285,3.946,0.0,3.969,3.9716,3.9703,3.9563,3.9642,3.9742,3.9742,3.9807,3.9939,4.0075,4.0096,4.0096,4.0096,4.0096,4.0096,4.0096,4.0096,4.0096,4.0096,4.0096,4.0096,4.0096,4.0096,4.0258,4.0611,4.0659,4.0659,4.0659,4.0742,4.0604,4.0121,4.0184,4.0246,4.0246,4.0246,4.0246,4.0246,4.0246,4.0196,4.0096,4.0096,4.0146,4.0258,4.0719,4.1185,0.0,0.0,0.0,0.0,0.0,0.0,0.0,0.0,0.0,0.0,0.0,3.2204,0.0,0.0,3.2988,3.3133,3.336,3.3501,3.3501,3.3671,3.3593,3.3022,3.3284,3.3434,3.3277,3.3917,3.4502,3.4866,3.511,3.5626,3.651,3.6304,3.6363,3.6836,3.7241,3.7373,3.7203,3.787,3.813,3.7939,3.8113,3.8208,3.8208,3.8208,3.8208,3.8208,3.8208,3.8208,3.8208,3.8208,3.8208,3.8208,3.8208,3.798,3.7652,3.7652,3.788,3.8258,3.8609,3.8742,3.8821,3.9183,3.9339,3.9392,3.9392,3.9445,3.9494,3.9494,3.9599,3.9664,3.9524,3.9642,3.9794,3.9794,3.9845,3.9939,4.0075,4.0096,4.0096,4.0096,4.0096,4.0096,4.0096,4.0096,4.0096,4.0096,4.0096,4.0096,4.0096,4.0096,4.0196,4.041,4.0446,4.0446,4.0446,4.0446,4.0353,4.0108,4.0096,4.0096,4.0096,4.0096,4.0096,4.0096,4.0096,4.0096,4.0096,4.0096,4.0096,4.0113,4.0341,4.0707,0.0,0.0,0.0,0.0,0.0,0.0,0.0,0.0,3.2691,3.2691,3.2807,3.2906,3.2906,3.3022,3.3122,3.3122,3.3635,3.4005,3.4005,3.453,3.444,3.3203,3.3571,3.3985,3.4122,3.4619,3.5267,3.6055,3.6067,3.6385,3.7178,3.6967,3.6859,3.6944,3.7625,3.7856,3.7586,3.8733,3.9161,3.8901,3.9161,3.9299,3.9299,3.9299,3.9299,3.9299,3.9299,3.9299,3.9299,3.9299,3.9299,3.9299,3.9299,3.8937,3.8397,3.8397,3.8788,3.9299,3.9299,3.9299,3.9299,3.9299,3.9299,3.9299,3.9299,3.9312,3.9339,3.9339,3.9507,3.9677,3.9563,3.972,3.9901,3.9901,3.9926,3.9961,4.0087,4.0096,4.0096,4.0096,4.0096,4.0096,4.0096,4.0096,4.0096,4.0096,4.0096,4.0096,4.0096,4.0096,4.0096,4.0096,4.0096,4.0096,4.0096,4.0096,4.0096,4.0096,4.0096,4.0096,4.0096,4.0096,4.0096,4.0096,4.0096,4.0096,4.0096,4.0096,4.0096,4.0096,4.0096,4.0303,3.0203,3.1045,3.179,3.2137,3.221,3.2311,0.0,0.0,3.2691,3.2691,3.3221,3.3685,3.3685,3.4215,3.4651,3.4651,3.4717,3.4767,3.4767,3.4849,3.4749,3.4357,3.4365,3.4665,3.5254,3.517,3.5486,3.6459,3.6313,3.6599,3.7586,3.7378,3.7537,3.8174,3.852,3.8676,3.8619,3.9088,3.9272,3.9245,3.9272,3.9299,3.9299,3.9299,3.9299,3.9299,3.9299,3.9299,3.9299,3.9299,3.9299,3.9299,3.9299,3.9249,3.9183,3.9183,3.9232,3.9299,3.9299,3.9299,3.9299,3.9299,3.9299,3.9299,3.9299,3.9379,3.9488,3.9488,3.959,3.969,3.9677,3.9781,3.9901,3.9901,3.9986,4.0087,4.01,4.0096,4.0096,4.0096,4.0096,4.0096,4.0096,4.0096,4.0096,4.0096,4.0096,4.0096,4.0096,4.0096,4.0096,4.0096,4.0096,4.0096,4.0096,4.0096,4.0096,4.0096,4.0096,4.0096,4.0096,4.0096,4.0096,4.0096,4.0096,4.0096,4.0096,4.0096,4.0096,4.0096,4.0096,4.0121,3.0715,3.1449,3.2159,3.2975,3.3177,3.3316,3.3861,3.3983,3.3983,3.3983,3.4232,3.4435,3.4435,3.4684,3.4899,0.0,3.4899,3.4899,3.4899,3.4899,3.4863,3.4756,3.4972,3.525,3.552,3.581,3.6417,3.7458,3.7252,3.744,3.8283,3.8089,3.8082,3.8391,3.8669,3.8805,3.8805,3.8944,3.9107,3.9299,3.9094,3.9107,3.9299,3.9299,3.9299,3.9299,3.9299,3.9299,3.9299,3.9299,3.9299,3.9299,3.9299,3.9299,3.9299,3.9299,3.9299,3.9299,3.9299,3.9299,3.9299,3.9299,3.9299,3.9299,3.9299,3.9392,3.9501,3.9501,3.9655,3.9794,3.9716,3.9858,3.9999,3.9926,3.9999,4.0096,4.0096,4.0096,4.0096,4.0096,4.0096,4.0096,4.0096,4.0096,4.0096,4.0096,4.0096,4.0096,4.0096,4.0096,4.0096,4.0096,4.0096,4.0096,4.0096,4.0096,4.0096,4.0096,4.0096,4.0096,4.0096,4.0096,4.0096,4.0096,4.0096,4.0096,4.0096,4.0096,4.0096,4.0096,4.0096,4.0096,3.1372,3.1953,3.2587,3.3532,3.377,3.3949,3.4636,3.4792,3.4799,3.4887,3.4899,3.4899,3.4899,3.4899,3.4899,3.4899,3.5065,3.5197,3.5197,3.5379,3.5488,3.5415,3.5792,3.6068,3.6065,3.6509,3.7193,3.8179,3.8021,3.8084,3.8521,3.8462,3.8363,3.8278,3.8611,3.8764,3.8681,3.8846,3.9013,3.9164,3.9013,3.9067,3.9299,3.9299,3.9299,3.9299,3.9299,3.9299,3.9299,3.9299,3.9299,3.9299,3.9299,3.9299,3.9299,3.9299,3.9299,3.9299,3.9299,3.9299,3.9299,3.9299,3.9299,3.9299,3.9299,3.9418,3.9554,3.9514,3.9694,3.9888,3.9781,3.9897,4.0037,3.9961,4.0037,4.0096,4.0096,4.0096,4.0096,4.0096,4.0096,4.0096,4.0096,4.0096,4.0096,4.0096,4.0096,4.0096,4.0096,4.0096,4.0096,4.0096,4.0096,4.0096,4.0096,4.0096,4.0096,4.0096,4.0096,4.0096,4.0096,4.0096,4.0096,4.0096,4.0096,4.0096,4.0096,4.0096,4.0096,4.0096,4.0096,4.0096,3.2145,3.275,3.3337,3.3623,3.37,3.3857,3.4399,3.4509,3.4582,3.4851,3.4899,3.4899,3.4899,3.4899,3.4899,3.4899,3.5495,3.5976,3.5976,3.6589,3.6934,3.6691,3.6996,3.7256,0.0,3.7267,3.7591,3.8339,3.8373,3.8246,3.7943,3.8234,3.8248,3.7929,3.8483,3.8683,3.8406,3.8988,3.9121,3.8819,3.9134,3.9285,3.9299,3.9299,3.9299,3.9299,3.9299,3.9299,3.9299,3.9299,3.9299,3.9299,3.9299,3.9299,3.9299,3.9299,3.9299,3.9299,3.9299,3.9299,3.9299,3.9299,3.9299,3.9299,3.9299,3.9468,3.9664,3.9541,3.9694,3.9901,3.9901,3.9901,3.9952,4.0058,4.01,4.0096,4.0096,4.0096,4.0096,4.0096,4.0096,4.0096,4.0096,4.0096,4.0096,4.0096,4.0096,4.0096,4.0096,4.0096,4.0096,4.0096,4.0096,4.0096,4.0096,4.0096,4.0096,4.0096,4.0096,4.0096,4.0096,4.0096,4.0096,4.0096,4.0096,4.0096,4.0096,4.0096,4.0096,4.0096,4.0096,4.0096,3.2633,3.3422,3.4126,3.4213,3.4362,3.4546,3.4715,3.478,3.4787,3.4887,3.5123,3.5305,3.5305,3.5695,3.6032,3.6032,3.643,3.6738,3.6738,3.694,3.6971,3.6669,3.7189,0.0,0.0,0.0,0.0,3.8361,3.8191,3.8118,3.8219,3.8134,3.8203,3.8483,3.853,3.8669,3.8988,3.8796,3.8851,3.9134,3.9245,3.9299,3.9299,3.9299,3.9299,3.9299,3.9299,3.9299,3.9299,3.9299,3.9299,3.9299,3.9299,3.9299,3.9299,3.9299,3.9299,3.9299,3.9299,3.9299,3.9299,3.9299,3.9299,3.9299,3.9299,3.9418,3.955,3.9498,3.9694,3.9888,3.9781,3.9897,4.0024,3.9973,4.0037,4.0096,4.0096,4.0096,4.0096,4.0096,4.0096,4.0096,4.0096,4.0096,4.0269,4.0747,4.0405,4.0096,4.0096,4.0523,4.0832,4.0832,4.1267,4.1555,4.1555,4.1555,4.1555,4.1555,4.1555,4.1555,4.1555,4.1555,4.1555,4.1555,4.1081,4.0832,4.0832,4.0337,4.0096,4.0096,4.0096,4.0096,3.2938,3.3572,3.4075,3.4075,3.4201,3.4349,3.4448,3.4546,3.4672,3.491,3.525,3.5542,3.5714,3.6212,3.6597,3.6597,3.6998,3.7368,3.7474,3.7534,3.7525,3.7396,3.7617,3.7688,0.0,0.0,0.0,3.8191,3.8015,3.796,3.8064,3.796,3.8087,3.8469,3.8514,3.8669,3.8975,3.881,3.892,3.9299,3.9299,3.9299,3.9299,3.9299,3.9299,3.9299,3.9299,3.9299,3.9299,3.9299,3.9299,3.9299,3.9299,3.9299,3.9299,3.9299,3.9299,3.9299,3.9299,3.9299,3.9299,3.9299,3.9299,3.9299,3.9299,3.9392,3.9501,3.9448,3.9616,3.9824,3.9716,3.9871,4.0024,3.9973,4.0037,4.0096,4.0096,4.0096,4.0096,4.0096,4.0096,4.018,4.0455,4.0709,4.1048,4.1525,4.12,4.0891,4.0891,4.1288,4.1593,4.1593,4.2016,4.23,4.23,4.23,4.23,4.23,4.23,4.23,4.23,4.23,4.23,4.23,4.183,4.1593,4.1593,4.1115,4.0891,4.0891,4.0891,4.0743,3.3067,3.3322,3.3332,3.3319,3.3319,3.3398,3.3671,3.3943,3.4331,3.4998,3.5373,3.5736,0.0,0.0,3.6711,3.6685,3.7288,3.7853,3.817,3.8316,3.849,0.0,0.0,0.0,0.0,0.0,0.0,3.7857,0.0,3.7786,3.7569,3.7771,3.7915,3.7929,3.8469,3.8669,3.842,3.9002,3.9299,3.9299,3.9299,3.9299,3.9299,3.9299,3.9299,3.9299,3.9299,3.9299,3.9299,3.9299,3.9299,3.9299,3.9299,3.9299,3.9299,3.9299,3.9299,3.9299,3.9299,3.9299,3.9299,3.9299,3.9299,3.9299,3.9299,3.9395,3.9458,3.9339,3.9494,3.9703,3.9703,3.9807,3.9952,4.0126,4.0163,4.018,4.0197,4.0214,4.0214,4.0214,4.0214,4.0422,4.1136,4.183,4.2317,4.235,4.2367,4.2337,4.23,4.2333,4.2367,4.2367,4.2401,4.2418,4.2418,4.2418,4.2418,4.2418,4.2418,4.2418,4.2418,4.2418,4.2418,4.2418,4.2384,4.2367,4.2367,4.2317,4.23,4.23,4.23,4.1931,3.3185,3.3594,3.3848,3.3658,3.3761,3.3911,3.3975,3.4442,3.4955,3.5393,3.6212,3.6942,0.0,0.0,0.0,3.7963,3.8261,0.0,3.8369,3.8376,0.0,3.8144,0.0,3.7829,3.7627,3.7538,0.0,0.0,3.7612,3.7774,3.815,3.8003,3.8001,3.8262,3.842,3.8558,3.8711,3.9094,3.9299,3.9299,3.9299,3.9299,3.9299,3.9299,3.9299,3.9299,3.9299,3.9299,3.9299,3.9299,3.9299,3.9299,3.9299,3.9299,3.9299,3.9299,3.9299,3.9299,3.9299,3.9299,3.9299,3.9299,3.9299,3.9299,3.9299,3.9325,3.9365,3.9418,3.9577,3.9716,3.9807,3.9948,4.0197,4.0781,4.0916,4.1068,4.1623,4.1741,4.1741,4.1741,4.1741,4.1809,4.1982,4.2181,4.2489,4.3034,4.3118,4.2916,4.2367,4.2777,4.3118,4.3118,4.367,4.4009,4.4009,4.4009,4.4009,4.4009,4.4009,4.4009,4.4009,4.4009,4.4009,4.4009,4.342,4.3118,4.3118,4.2574,4.23,4.23,4.23,4.2202,3.3253,3.3516,3.3707,3.3568,3.3869,3.4194,3.4194,3.4923,3.569,3.6083,3.6877,3.7538,3.7748,3.8332,0.0,0.0,0.0,0.0,3.8782,3.8335,3.8035,0.0,3.7887,0.0,3.7509,3.7495,3.7538,0.0,3.7568,3.7658,3.7993,3.7831,3.7816,3.7992,3.825,3.8602,3.9026,3.9218,3.9299,3.9299,3.9299,3.9299,3.9299,3.9299,3.9299,3.9299,0.0,3.9299,3.9299,3.9299,3.9299,3.9299,3.9299,3.9299,3.9299,3.9299,3.9497,3.9779,3.9779,3.9981,4.013,3.9497,3.9299,3.9365,3.968,3.9779,3.9873,4.034,4.0558,4.0705,4.0821,4.0978,4.1166,4.1576,4.1677,4.1796,4.2215,4.23,4.23,4.23,4.2557,4.2777,4.2777,4.3078,4.345,4.3859,4.3927,4.3775,4.3366,4.3656,4.3927,4.3927,4.433,4.4615,4.4615,4.4615,4.4615,4.4615,4.4615,4.4615,4.4615,4.4615,4.4615,4.4615,4.4147,4.3927,4.3927,4.3518,4.3315,4.3315,4.3315,4.3115,3.3319,3.3346,3.3364,3.3417,3.3862,3.4318,3.4467,3.5417,3.6435,3.6915,3.7467,3.7902,3.806,3.8469,3.8722,3.849,0.0,3.8574,3.911,3.8248,3.7744,3.8278,3.7832,3.7495,3.7495,3.7495,3.7598,3.7828,3.7626,3.7525,3.7538,3.7525,3.7539,3.7628,3.8164,3.8727,3.9285,3.9299,3.9299,3.9299,3.9299,3.9299,3.9299,3.9299,3.9299,3.9299,0.0,0.0,3.9299,3.9299,3.9299,3.9315,3.9415,3.9448,3.9464,3.9547,3.9981,4.0528,4.0528,4.0912,4.1196,3.9981,3.9567,3.9713,4.0329,4.0542,4.0729,4.1513,4.1821,4.1959,4.2092,4.221,4.232,4.2422,4.2452,4.2486,4.2587,4.2604,4.2604,4.2604,4.3115,4.3558,4.3558,4.413,4.4615,4.4615,4.4615,4.4615,4.4615,4.4615,4.4615,4.4615,4.4615,4.4615,4.4615,4.4615,4.4615,4.4615,4.4615,4.4615,4.4615,4.4615,4.4615,4.4615,4.4615,4.4615,4.4615,4.4615,4.4615,4.4615,4.4615,4.4228,3.3681,3.3617,3.3708,3.4039,3.4223,3.4528,3.5345,3.6185,0.0,0.0,3.8158,3.8698,3.901,3.8914,3.8777,3.8736,3.853,3.8434,3.8532,3.8132,3.7873,0.0,3.7699,3.7495,3.7495,3.7495,0.0,0.0,0.0,3.7598,3.7829,3.7627,3.7731,3.8221,3.8558,3.8917,3.9299,3.9299,3.9299,3.9299,3.9299,3.9299,3.9299,3.9299,3.9299,3.9299,3.9299,0.0,3.9299,3.9299,3.9299,3.9365,3.9978,4.021,4.0279,4.0829,4.1127,4.1229,4.1229,4.1295,4.1361,4.1127,4.1044,4.1061,4.1193,4.1341,4.153,4.1788,4.1973,4.2105,4.2236,4.2273,4.2439,4.3051,4.3203,4.3389,4.4059,4.4209,4.4209,4.4209,4.4296,4.4398,4.4398,4.4499,4.4615,4.4615,4.4615,4.4615,4.4615,4.4615,4.4615,4.4615,4.4615,4.4615,4.4615,4.4615,4.4615,4.4615,4.4615,4.4615,4.4615,4.4615,4.4615,4.4615,4.4615,4.4615,4.4615,4.4615,4.4615,4.4615,4.4615,4.453,3.3975,3.4069,3.4321,3.468,3.5077,3.56,3.6405,0.0,0.0,3.8243,3.8712,3.9053,3.904,3.9053,0.0,3.8641,3.86,3.8558,3.8406,3.8103,3.79,3.79,3.7655,3.7495,0.0,3.7495,0.0,0.0,0.0,3.7553,3.7685,3.7699,3.7974,3.8586,3.8722,3.8955,3.9299,3.9299,3.9299,3.9299,3.9299,3.9299,3.9299,3.9299,3.9299,3.9299,3.9299,0.0,3.9332,3.9713,3.9879,3.9945,4.066,4.0912,4.0961,4.1278,4.1643,4.1974,4.1974,4.2222,4.2553,4.2553,4.204,4.1477,4.1858,4.2105,4.2375,4.29,4.3138,4.3291,4.3443,4.3501,4.3586,4.3944,4.4012,4.413,4.4516,4.4615,4.4615,4.4615,4.4615,4.4615,4.4615,4.4615,4.4615,4.4615,4.4615,4.4615,4.4615,4.4615,4.4615,4.4615,4.4615,4.4615,4.4615,4.4615,4.4615,4.4615,4.4615,4.4615,4.4615,4.4615,4.4615,4.4615,4.4615,4.4615,4.4615,4.4615,4.4615,4.4615,4.4615,4.4615,3.4263,3.4529,3.498,3.5338,3.6,3.6767,3.7455,3.8082,0.0,3.8862,3.9107,3.9232,3.8972,0.0,3.907,0.0,3.8655,3.8669,3.8518,3.8146,3.79,0.0,3.7655,0.0,3.7495,3.7406,0.0,0.0,0.0,0.0,3.7495,3.7815,3.8215,3.8694,3.8832,3.904,3.9299,3.9299,3.9299,3.9299,3.9299,3.9299,3.9299,3.9299,3.9299,3.9315,3.9481,0.0,0.0,4.0312,4.0611,4.0677,4.1361,4.1643,4.1659,4.1808,4.2239,4.2752,4.2752,4.3133,4.3598,4.3598,4.2818,4.199,4.2614,4.2943,4.3234,4.393,4.4239,4.4412,4.4556,4.4615,4.4615,4.4615,4.4615,4.4615,4.4615,4.4615,4.4615,4.4615,4.4615,4.4615,4.4615,4.4615,4.4615,4.4615,4.4615,4.4615,4.4615,4.4615,4.4615,4.4615,4.4615,4.4615,4.4615,4.4615,4.4615,4.4615,4.4615,4.4615,4.4615,4.4615,4.4615,4.4615,4.4615,4.4615,4.4615,4.4615,4.4615,4.4615,4.4615,4.4615,3.4533,3.4988,3.5615,3.6012,3.6664,3.748,3.8433,0.0,3.886,3.9191,3.9272,3.9285,3.9258,0.0,0.0,0.0,0.0,3.8502,3.8722,3.8258,3.79,3.79,0.0,0.0,3.7495,3.7059,0.0,0.0,0.0,0.0,3.7495,3.8035,3.8377,3.8434,3.8975,3.9272,3.9299,3.9299,3.9299,3.9299,3.9299,3.9299,3.9299,3.9299,3.9299,3.9332,4.0011,0.0,0.0,4.1028,4.1312,4.1378,4.2106,4.2404,4.2487,4.315,4.3433,4.3499,4.3499,4.3532,4.3598,4.3598,4.3499,4.3429,4.3691,4.3869,4.4028,4.4222,4.4426,4.457,4.4601,4.4615,4.4615,4.4615,4.4615,4.4615,4.4615,4.4615,4.4615,4.4615,4.4615,4.4615,4.4615,4.4615,4.4615,4.4615,4.4615,4.4615,4.4615,4.4615,4.4615,4.4615,4.4615,4.4615,4.4615,4.4615,4.4615,4.4615,4.4615,4.4615,4.4615,4.4615,4.4615,4.4615,4.4615,4.4615,4.4615,4.4615,4.4615,4.4615,4.4615,4.4615,3.5308,3.5789,3.6393,3.72,3.7679,3.8158,3.8933,0.0,3.8887,3.9232,3.9299,3.9299,3.9299,3.9188,0.0,0.0,0.0,0.0,3.8258,3.7767,3.7475,3.7641,3.7553,0.0,0.0,0.0,0.0,0.0,0.0,0.0,3.6998,3.7713,3.8191,3.8377,3.8794,3.9013,3.9013,3.9205,3.9299,3.9299,3.9299,3.9299,3.9299,3.9299,3.9547,3.9978,4.0263,0.0,0.0,4.1775,4.2057,4.2139,4.287,4.3151,4.3199,4.3482,4.3598,4.3598,4.3598,4.3598,4.3598,4.3598,4.3598,4.3613,4.3704,4.3894,4.4112,4.4152,4.4369,4.4615,4.4615,4.4615,4.4615,4.4615,4.4615,4.4615,4.4615,4.4615,4.4615,4.4615,4.4615,4.4615,4.4615,4.4615,4.4615,4.4615,4.4615,4.4615,4.4615,4.4615,4.4615,4.4615,4.4615,4.4615,4.4615,4.4615,4.4615,4.4615,4.4615,4.4615,4.4615,4.4615,4.4615,4.4615,4.4615,4.4615,4.4615,4.4615,4.4615,4.4615,4.4615,4.4615,3.5794,3.6372,3.6979,3.7948,3.8435,3.8782,0.0,0.0,3.9013,3.9258,3.9299,3.9299,3.9299,3.9299,0.0,0.0,0.0,3.7924,3.781,3.7191,3.6814,0.0,0.0,0.0,0.0,0.0,0.0,0.0,0.0,0.0,0.0,3.7388,3.7931,3.8234,3.8597,3.8805,3.8805,3.9134,3.9299,3.9299,3.9299,3.9299,3.9299,3.9299,3.9713,4.0412,0.0,0.0,0.0,4.252,4.2835,4.2885,4.34,4.3598,4.3598,4.3598,4.3598,4.3598,4.3598,4.3598,4.3598,4.3598,4.3598,4.3598,4.3598,4.3835,4.4112,4.4155,4.4369,4.4615,4.4615,4.4615,4.4615,4.4615,4.4615,4.4615,4.4615,4.4615,4.4615,4.4615,4.4615,4.4615,4.4615,4.4615,4.4615,4.4615,4.4615,4.4615,4.4615,4.4615,4.4615,4.4615,4.4615,4.4615,4.4615,4.4615,4.4615,4.4615,4.4615,4.4615,4.4615,4.4615,4.4615,4.4615,4.4615,4.4615,4.4615,4.4615,4.4615,4.4615,4.4615,4.4615,3.5794,3.6543,3.7272,3.8017,3.8742,3.9285,0.0,3.9299,3.9299,3.9299,3.9299,3.9299,3.9299,3.9299,3.9299,3.9299,0.0,0.0,3.7604,3.6631,3.5913,0.0,0.0,3.5913,0.0,0.0,0.0,0.0,0.0,0.0,0.0,3.721,3.7642,3.79,3.8483,3.8805,3.8805,3.9134,3.9299,3.9299,3.9299,3.9299,3.9299,3.9299,3.9713,0.0,0.0,0.0,0.0,4.3267,4.3582,4.3582,4.3598,4.3598,4.3598,4.3598,4.3598,4.3598,4.3598,4.3598,4.3598,4.3598,4.3598,4.3598,4.3598,4.3835,4.4126,4.4267,4.444,4.4615,4.4615,4.4615,4.4615,4.4615,4.4615,4.4615,4.4615,4.4615,4.4615,4.4615,4.4615,4.4615,4.4615,4.4615,4.4615,4.4615,4.4615,4.4615,4.4615,4.4615,4.4615,4.4615,4.4615,4.4615,4.4615,4.4615,4.4615,4.4615,4.4615,4.4615,4.4615,4.4615,4.4615,4.4615,4.4615,4.4615,4.4615,4.4615,4.4615,4.4615,4.4615,4.4615,3.6555,3.7288,3.8017,3.8772,3.912,3.9299,3.9299,3.9299,3.9299,3.9299,3.9299,3.9299,3.9299,3.9299,3.9299,3.9299,3.8037,0.0,0.0,0.0,0.0,3.5897,3.5624,0.0,0.0,0.0,0.0,0.0,0.0,0.0,0.0,3.6662,3.715,3.7596,3.8205,3.8532,3.8532,3.9043,3.9299,3.9299,3.9299,3.9299,3.9315,3.9829,0.0,0.0,0.0,0.0,0.0,4.3499,4.3598,4.3598,4.3598,4.3598,4.3598,4.3598,4.3598,4.3598,4.3598,4.3598,4.3598,4.3598,4.3598,4.3598,4.3598,4.3835,4.4155,4.4426,4.4542,4.4615,4.4615,4.4615,4.4615,4.4615,4.4615,4.4615,4.4615,4.4615,4.4615,4.4615,4.4615,4.4615,4.4615,4.4615,4.4615,4.4615,4.4615,4.4615,4.4615,4.4615,4.4615,4.4615,4.4615,4.4615,4.4615,4.4615,4.4615,4.4615,4.4615,4.4615,4.4615,4.4615,4.4615,4.4615,4.4615,4.4615,4.4615,4.4615,4.4615,4.4615,4.4615,4.4615,3.7305,3.7851,3.8381,3.9133,3.9299,0.0,3.9299,3.9299,3.9299,3.9299,3.9299,3.9299,3.9299,3.9299,3.9299,3.9299,3.8181,0.0,0.0,0.0,0.0,3.5657,0.0,0.0,0.0,0.0,0.0,0.0,0.0,0.0,0.0,3.6692,3.7314,3.7641,3.8135,3.8448,3.8544,3.9056,3.9299,3.9299,3.9299,3.9299,3.9332,4.0047,0.0,0.0,0.0,0.0,0.0,4.3598,4.3598,4.3598,4.3598,4.3598,4.3598,4.3598,4.3598,4.3598,4.3598,4.3598,4.3598,4.3598,4.3598,4.3628,4.3747,4.3937,4.4169,4.4499,4.4615,4.4615,4.4615,4.4615,4.4615,4.4615,4.4615,4.4615,4.4615,4.4615,4.4615,4.4615,4.4615,4.4615,4.4615,4.4615,4.4615,4.4615,4.4615,4.4615,4.4615,4.4615,4.4615,4.4615,4.4615,4.4615,4.4615,4.4615,4.4615,4.4615,4.4615,4.4615,4.4615,4.4615,4.4615,4.4615,4.4615,4.4615,4.4615,4.4615,4.4615,4.4615,4.4615,4.4615,0.0,3.8282,3.8444,3.912,3.9299,3.9299,3.9299,3.9299,0.0,3.9299,3.9299,3.9299,3.9299,3.9299,3.9299,3.9299,3.862,3.798,0.0,3.6889,0.0,0.0,0.0,0.0,0.0,0.0,0.0,0.0,0.0,0.0,0.0,3.7087,3.7813,3.7886,3.8191,3.8502,3.8805,3.9134,3.9299,3.9299,3.9299,3.9299,3.9332,4.0097,0.0,0.0,0.0,0.0,0.0,4.3598,4.3598,4.3598,4.3598,4.3598,4.3598,4.3598,4.3598,4.3598,4.3598,4.3598,4.3598,4.3598,4.3598,4.3658,4.3981,4.4083,4.4169,4.4499,4.4615,4.4615,4.4615,4.4615,4.4615,4.4615,4.4615,4.4615,4.4615,4.4615,4.4615,4.4615,4.4615,4.4615,4.4615,4.4615,4.4615,4.4615,4.4615,4.4615,4.4615,4.4615,4.4615,4.4615,4.4615,4.4615,4.4615,4.4615,4.4615,4.4615,4.4615,4.4615,4.4615,4.4615,4.4615,4.4615,4.4615,4.4615,4.4615,4.4615,4.4615,4.4615,4.4615,4.4615,3.8689,0.0,3.907,3.9265,3.9299,3.9299,0.0,0.0,0.0,0.0,0.0,3.9299,3.9299,3.9299,3.9299,3.9299,3.862,3.8066,3.798,0.0,0.0,0.0,0.0,0.0,0.0,0.0,0.0,0.0,0.0,0.0,0.0,3.6149,3.6921,3.7649,3.7899,3.8274,3.8791,3.9134,3.9299,3.9299,3.9299,3.9299,3.9348,4.058,0.0,0.0,0.0,0.0,4.3598,4.3598,4.3598,4.3598,4.3598,4.3598,4.3598,4.3598,4.3598,4.3598,4.3598,4.3598,4.3598,4.3598,4.3598,4.3643,4.3866,4.4027,4.4169,4.4499,4.4615,4.4615,4.4615,4.4615,4.4615,4.4615,4.4615,4.4615,4.4615,4.4615,4.4615,4.4615,4.4615,4.4615,4.4615,4.4615,4.4615,4.4615,4.4615,4.4615,4.4615,4.4615,4.4615,4.4615,4.4615,4.4615,4.4615,4.4615,4.4615,4.4615,4.4615,4.4615,4.4615,4.4615,4.4615,4.4615,4.4615,4.4615,4.4615,4.4615,4.4615,4.4615,4.4615,4.4615,3.8901,3.9299,3.9299,3.9299,3.9299,3.9299,3.9299,0.0,0.0,0.0,0.0,3.9299,3.9299,3.9299,3.9299,3.9299,3.8942,0.0,0.0,0.0,0.0,0.0,0.0,0.0,0.0,0.0,0.0,0.0,0.0,0.0,0.0,3.596,3.6615,3.713,3.7749,3.8383,3.9026,3.9218,3.9299,3.9299,3.9299,3.9299,3.9348,4.0763,4.1394,0.0,0.0,0.0,4.3598,4.3598,4.3598,4.3598,4.3598,4.3598,4.3598,4.3598,4.3598,4.3598,4.3598,4.3598,4.3598,4.3598,4.3598,4.3643,4.391,4.4041,4.4155,4.4398,4.4542,4.4615,4.4615,4.4615,4.4615,4.4615,4.4615,4.4615,4.4615,4.4615,4.4615,4.4615,4.4615,4.4615,4.4615,4.4615,4.4615,4.4615,4.4615,4.4615,4.4615,4.4615,4.4615,4.4615,4.4615,4.4615,4.4615,4.4615,4.4615,4.4615,4.4615,4.4615,4.4615,4.4615,4.4615,4.4615,4.4615,4.4615,4.4615,4.4615,4.4615,4.4615,4.4615,4.4615,3.8901,3.9299,3.9299,3.9299,3.9299,3.9299,3.9299,0.0,0.0,0.0,0.0,0.0,3.9299,3.9299,0.0,0.0,0.0,0.0,3.7836,3.6337,0.0,0.0,0.0,0.0,0.0,0.0,0.0,0.0,0.0,0.0,0.0,3.5929,3.643,3.6554,3.7588,3.8479,3.9148,3.9258,3.9299,3.9299,3.9299,3.9299,3.9348,4.0763,4.1394,0.0,0.0,0.0,4.3598,4.3598,4.3598,4.3598,4.3598,4.3598,4.3598,4.3598,4.3598,4.3598,4.3598,4.3598,4.3598,4.3598,4.3598,4.3658,4.3937,4.4054,4.4126,4.4239,4.4426,4.4615,4.4615,4.4615,4.4615,4.4615,4.4615,4.4615,4.4615,4.4615,4.4615,4.4615,4.4615,4.4615,4.4615,4.4615,4.4615,4.4615,4.4615,4.4615,4.4615,4.4615,4.4615,4.4615,4.4615,4.4615,4.4615,4.4615,4.4615,4.4615,4.4615,4.4615,4.4615,4.4615,4.4615,4.4615,4.4615,4.4615,4.4615,4.4615,4.4615,4.4615,4.4615,4.4615,3.8901,3.9299,3.9299,3.9299,3.9299,3.9299,3.9299,0.0,0.0,0.0,0.0,0.0,0.0,3.9299,3.9299,0.0,0.0,0.0,0.0,0.0,0.0,0.0,0.0,0.0,0.0,0.0,0.0,0.0,0.0,0.0,0.0,3.5182,3.5687,3.6243,3.7086,3.7822,3.8449,3.9023,3.9299,3.9299,3.9299,3.9299,3.9348,4.0763,4.1394,0.0,0.0,4.3598,4.3598,4.3598,4.3598,4.3598,4.3598,4.3598,4.3598,4.3598,4.3598,4.3598,4.3598,4.3598,4.3598,4.3598,4.3598,4.3613,4.3658,4.3879,4.4097,4.4126,4.4372,4.4615,4.4615,4.4615,4.4615,4.4615,4.4615,4.4615,4.4615,4.4615,4.4615,4.4615,4.4615,4.4615,4.4615,4.4615,4.4615,4.4615,4.4615,4.4615,4.4615,4.4615,4.4615,4.4615,4.4615,4.4615,4.4615,4.4615,4.4615,4.4615,4.4615,4.4615,4.4615,4.4615,4.4615,4.4615,4.4615,4.4615,4.4615,4.4615,4.4615,4.4615,4.4615,4.4615,3.8901,3.9299,3.9299,3.9299,3.9299,3.9299,3.9299,3.9299,0.0,0.0,0.0,0.0,0.0,0.0,3.9175,3.883,0.0,0.0,0.0,0.0,0.0,0.0,0.0,0.0,0.0,0.0,0.0,0.0,0.0,0.0,0.0,0.0,3.5508,3.6179,3.6981,3.7691,3.8292,3.8952,3.9299,3.9299,3.9299,3.9299,3.9348,4.0763,4.1394,4.1477,0.0,4.3598,4.3598,4.3598,4.3598,4.3598,4.3598,4.3598,4.3598,4.3598,4.3598,4.3598,4.3598,4.3598,4.3598,4.3598,4.3598,4.3628,4.382,4.3939,4.4027,4.4169,4.4398,4.4615,4.4615,4.4615,4.4615,4.4615,4.4615,4.4615,4.4615,4.4615,4.4615,4.4615,4.4615,4.4615,4.4615,4.4615,4.4615,4.4615,4.4615,4.4615,4.4615,4.4615,4.4615,4.4615,4.4615,4.4615,4.4615,4.4615,4.4615,4.4615,4.4615,4.4615,4.4615,4.4615,4.4615,4.4615,4.4615,4.4615,4.4615,4.4615,4.4615,4.4615,4.4615,4.4615,3.895,3.9299,3.9299,3.9299,3.9299,3.9299,3.9299,3.9299,0.0,0.0,0.0,0.0,0.0,3.9161,0.0,3.821,0.0,0.0,0.0,0.0,0.0,0.0,0.0,0.0,0.0,0.0,0.0,0.0,0.0,0.0,0.0,0.0,3.5573,3.6227,3.7012,3.7691,3.8292,3.8952,3.9299,3.9299,3.9299,3.9299,3.9348,4.0597,4.1245,4.1477,4.2785,4.3433,4.3598,4.3598,4.3598,4.3598,4.3598,4.3598,4.3598,4.3598,4.3598,4.3598,4.3598,4.3598,4.3598,4.3598,4.3598,4.3658,4.3908,4.3939,4.3939,4.4155,4.4341,4.4485,4.4528,4.4556,4.4615,4.4615,4.4615,4.4615,4.4615,4.4615,4.4615,4.4615,4.4615,4.4615,4.4615,4.4615,4.4615,4.4615,4.4615,4.4615,4.4615,4.4615,4.4615,4.4615,4.4615,4.4615,4.4615,4.4615,4.4615,4.4615,4.4615,4.4615,4.4615,4.4615,4.4615,4.4615,4.4615,4.4615,4.4615,4.4615,4.4615,4.4615,4.4615,4.4615,3.91,3.9299,3.9299,3.9299,3.9299,3.9299,3.9299,3.9299,0.0,3.9299,0.0,0.0,0.0,3.8786,3.8165,0.0,0.0,0.0,0.0,0.0,0.0,0.0,0.0,0.0,0.0,0.0,0.0,0.0,0.0,0.0,0.0,0.0,0.0,3.6368,3.7041,3.7691,3.8292,3.8952,3.9299,3.9299,3.9299,3.9299,3.9332,4.0097,4.0812,4.1444,4.2239,4.2969,4.3598,4.3598,4.3598,4.3598,4.3598,4.3598,4.3598,4.3598,4.3598,4.3598,4.3598,4.3598,4.3598,4.3598,4.3598,4.3613,4.3628,4.3763,4.3898,4.3927,4.4027,4.4155,4.4281,4.4454,4.4615,4.4615,4.4615,4.4615,4.4615,4.4615,4.4615,4.4615,4.4615,4.4615,4.4615,4.4615,4.4615,4.4615,4.4615,4.4615,4.4615,4.4615,4.4615,4.4615,4.4615,4.4615,4.4615,4.4615,4.4615,4.4615,4.4615,4.4615,4.4615,4.4615,4.4615,4.4615,4.4615,4.4615,4.4615,4.4615,4.4615,4.4615,4.4615,4.4615,3.9086,3.9299,3.9299,3.9299,3.9299,0.0,0.0,3.9299,3.9299,3.9299,3.9299,0.0,0.0,0.0,0.0,0.0,0.0,0.0,0.0,0.0,0.0,0.0,0.0,0.0,0.0,0.0,0.0,0.0,0.0,0.0,0.0,0.0,0.0,3.6981,3.7266,3.7691,3.8292,3.8952,3.9077,3.8673,3.9107,3.9299,3.9332,4.0047,4.0776,4.1444,4.2189,4.292,4.3598,4.3598,4.3598,4.3598,4.3598,4.3598,4.3598,4.3598,4.3598,4.3598,4.3598,4.3598,4.3598,4.3598,4.3598,4.3628,4.3748,4.3748,4.3748,4.3868,4.3942,4.4027,4.4239,4.4352,4.444,4.457,4.4615,4.4615,4.4615,4.4615,4.4615,4.4615,4.4615,4.4615,4.4615,4.4615,4.4615,4.4615,4.4615,4.4615,4.4615,4.4615,4.4615,4.4615,4.4615,4.4615,4.4615,4.4615,4.4615,4.4615,4.4615,4.4615,4.4615,4.4615,4.4615,4.4615,4.4615,4.4615,4.4615,4.4615,4.4615,4.4615,4.4615,4.4615,3.9153,3.9299,3.9299,3.9299,0.0,0.0,3.9299,3.9299,3.9299,3.9299,3.9299,0.0,0.0,0.0,0.0,0.0,0.0,0.0,0.0,0.0,0.0,0.0,0.0,0.0,0.0,0.0,0.0,0.0,0.0,0.0,0.0,0.0,0.0,0.0,3.7399,3.7691,3.8292,3.8758,3.8662,3.8023,3.8676,3.9107,3.9315,3.9829,4.0561,4.1428,4.1941,4.2702,4.3598,4.3598,4.3598,4.3598,4.3598,4.3598,4.3598,4.3598,4.3598,4.3598,4.3598,4.3598,4.3598,4.3598,4.3598,4.3628,4.3763,4.3719,4.3628,4.3763,4.3809,4.3866,4.4112,4.4239,4.4338,4.4468,4.4556,4.4615,4.4615,4.4615,4.4615,4.4615,4.4615,4.4615,4.4615,4.4615,4.4615,4.4615,4.4615,4.4615,4.4615,4.4615,4.4615,4.4615,4.4615,4.4615,4.4615,4.4615,4.4615,4.4615,4.4615,4.4615,4.4615,4.4615,4.4615,4.4615,4.4615,4.4615,4.4615,4.4615,4.4615,4.4615,4.4615,4.4615,3.9299,3.9299,3.9299,0.0,0.0,0.0,3.9299,3.9299,3.9299,3.9299,0.0,3.8901,3.7649,0.0,0.0,0.0,0.0,0.0,0.0,0.0,0.0,0.0,0.0,0.0,0.0,0.0,0.0,0.0,0.0,0.0,0.0,0.0,0.0,0.0,3.7399,3.7677,3.8278,3.8294,3.798,3.7399,3.7994,3.8632,3.9285,3.9285,4.0064,4.138,4.1394,4.2224,4.3582,4.3598,4.3598,4.3598,4.3598,4.3598,4.3598,4.3598,4.3598,4.3598,4.3598,4.3598,4.3598,4.3598,4.3598,4.3598,4.3598,4.3598,4.3598,4.3598,4.3598,4.3643,4.3853,4.4097,4.431,4.431,4.4454,4.4615,4.4615,4.4615,4.4615,4.4615,4.4615,4.4615,4.4615,4.4615,4.4615,4.4615,4.4615,4.4615,4.4615,4.4615,4.4615,4.4615,4.4615,4.4615,4.4615,4.4615,4.4615,4.4615,4.4615,4.4615,4.4615,4.4615,4.4615,4.4615,4.4615,4.4615,4.4615,4.4615,4.4615,4.4615,4.4615,4.4615,3.9299,3.9299,0.0,3.9299,0.0,0.0,0.0,3.9299,0.0,0.0,3.8912,3.8477,3.8094,0.0,0.0,0.0,0.0,0.0,0.0,0.0,0.0,0.0,0.0,0.0,0.0,0.0,0.0,0.0,0.0,0.0,0.0,0.0,0.0,0.0,3.6707,3.6768,3.6966,3.7428,3.734,3.6707,3.737,3.778,3.7982,3.8887,3.9548,4.0038,4.0993,4.1679,4.2163,4.2685,4.3174,4.3598,4.3598,4.3598,4.3598,4.3598,4.3598,4.3598,4.3598,4.3598,4.3598,4.3598,4.3598,4.3598,4.3598,4.3598,4.3598,4.3598,4.3598,4.3613,4.3673,4.385,4.4041,4.414,4.4284,4.4381,4.4381,4.4497,4.4615,4.4615,4.4615,4.4615,4.4615,4.4615,4.4615,4.4615,4.4615,4.4615,4.4615,4.4615,4.4615,4.4615,4.4615,4.4615,4.4615,4.4615,4.4615,4.4615,4.4615,4.4615,4.4615,4.4615,4.4615,4.4615,4.4615,4.4615,4.4615,4.4615,4.4615,4.4615,4.4615,4.4615,3.9312,3.9299,0.0,3.9299,3.9299,3.9299,3.9299,0.0,0.0,0.0,0.0,3.8151,0.0,0.0,0.0,0.0,0.0,0.0,0.0,0.0,0.0,0.0,0.0,0.0,0.0,0.0,0.0,0.0,0.0,0.0,0.0,0.0,0.0,0.0,3.6399,3.6399,3.6399,3.6799,3.6677,3.6053,3.6692,3.6875,3.6677,3.7969,3.873,3.9121,4.046,4.1227,4.1564,4.2313,4.2663,4.2788,4.3081,4.3204,4.3204,4.3204,4.3372,4.3598,4.3598,4.3598,4.3598,4.3598,4.3598,4.3598,4.3598,4.3598,4.3598,4.3598,4.3598,4.3598,4.3598,4.3687,4.3822,4.3983,4.4152,4.431,4.431,4.4454,4.4615,4.4615,4.4615,4.4615,4.4615,4.4615,4.4615,4.4615,4.4615,4.4615,4.4615,4.4615,4.4615,4.4615,4.4615,4.4615,4.4615,4.4615,4.4615,4.4615,4.4615,4.4615,4.4615,4.4615,4.4615,4.4615,4.4615,4.4615,4.4615,4.4615,4.4615,4.4615,4.4615,4.4615,3.9325,3.9299,0.0,3.9299,3.9299,0.0,3.9148,3.9161,3.9037,3.8421,0.0,3.7778,0.0,0.0,0.0,0.0,0.0,0.0,0.0,0.0,0.0,0.0,0.0,0.0,0.0,0.0,0.0,0.0,0.0,0.0,0.0,0.0,0.0,3.629,3.6321,3.6321,3.6321,3.6321,3.6037,0.0,3.6053,3.6037,3.5537,3.6814,3.7794,3.8568,3.9771,4.0734,4.1463,4.2126,4.2045,4.1575,4.2237,4.2507,4.2507,4.2585,4.2989,4.3524,4.3583,4.3598,4.3598,4.3598,4.3598,4.3598,4.3598,4.3598,4.3598,4.3598,4.3598,4.3598,4.3598,4.3598,4.3643,4.3822,4.4025,4.4179,4.4253,4.4384,4.4499,4.4556,4.4601,4.457,4.4514,4.4556,4.4615,4.4615,4.4615,4.4615,4.4615,4.4615,4.4615,4.4615,4.4615,4.4615,4.4615,4.4615,4.4615,4.4615,4.4615,4.4615,4.4615,4.4615,4.4615,4.4615,4.4615,4.4615,4.4615,4.4615,4.4615,4.4615,4.4615,4.4615,3.9299,3.9299,0.0,0.0,3.9299,3.904,3.8041,3.8181,3.8463,3.8337,3.7501,0.0,0.0,0.0,0.0,0.0,0.0,0.0,0.0,0.0,0.0,0.0,0.0,0.0,0.0,0.0,0.0,0.0,0.0,0.0,0.0,0.0,0.0,3.57,3.5685,3.5685,3.5685,3.5685,3.5635,0.0,3.5635,3.5619,3.5537,3.6814,3.7794,3.8505,3.8761,3.9558,4.0736,4.0891,4.1176,4.1525,4.1673,4.1738,4.1803,4.238,4.2695,4.2897,4.3417,4.3598,4.3598,4.3598,4.3598,4.3598,4.3598,4.3598,4.3598,4.3598,4.3598,4.3598,4.3598,4.3598,4.3613,4.3643,4.3384,4.3276,4.3864,4.3772,4.3741,4.4267,4.4483,4.4426,4.3839,4.4222,4.4615,4.4615,4.4615,4.4615,4.4615,4.4615,4.4615,4.4615,4.4615,4.4615,4.4615,4.4615,4.4615,4.4615,4.4615,4.4615,4.4615,4.4615,4.4615,4.4615,4.4615,4.4615,4.4615,4.4615,4.4615,4.4615,4.4615,4.4615,3.9312,0.0,0.0,3.9299,0.0,3.9037,3.8053,3.7851,3.7778,3.7457,3.686,0.0,0.0,0.0,0.0,0.0,0.0,0.0,0.0,0.0,0.0,0.0,0.0,0.0,0.0,0.0,0.0,0.0,0.0,0.0,0.0,3.5504,3.5504,3.5504,3.5504,3.5504,3.5504,3.5504,3.5504,3.5504,3.5504,3.5504,3.5521,3.6195,3.6877,3.7556,3.7825,3.8516,3.9561,4.022,4.0495,4.0531,4.089,4.1025,4.1075,4.1443,4.1787,4.211,4.2475,4.2585,4.2585,4.2585,4.2585,4.2585,4.2585,4.2834,4.3051,4.2678,4.285,4.3128,4.3128,4.3128,4.3128,4.3128,4.3235,4.3339,4.3371,4.3261,4.3198,4.332,4.3441,4.3395,4.3075,4.3603,4.4076,4.4076,4.4367,4.4615,4.4615,4.4615,4.4615,4.4615,4.4615,4.4615,4.4615,4.4615,4.4615,4.4615,4.4615,4.4615,4.4615,4.4615,4.4615,4.4615,4.4615,4.4615,4.4615,4.4615,4.4615,4.4615,4.4615,4.4615,3.9342,0.0,3.9272,3.9161,3.9202,0.0,3.8181,3.7677,3.7176,3.6399,0.0,0.0,0.0,0.0,0.0,0.0,0.0,0.0,0.0,0.0,0.0,0.0,0.0,0.0,0.0,0.0,0.0,0.0,0.0,0.0,3.5504,3.5504,3.5504,3.5504,3.5504,3.5504,3.5504,3.5504,3.5504,3.5504,3.5504,3.5504,3.5504,3.5624,3.5968,3.6538,3.715,3.7778,3.8507,3.9769,3.995,3.9445,4.0058,4.032,4.0337,4.0443,4.0856,4.1343,4.1459,4.1509,4.1509,4.1509,4.1509,4.1509,4.1509,4.1917,4.2285,4.1673,4.1933,4.2412,4.2412,4.2412,4.2412,4.2412,4.2959,4.3325,4.2709,4.2598,4.2519,4.2252,4.2157,4.2205,4.2426,4.2846,4.3196,4.3302,4.3856,4.4281,4.4398,4.4412,4.4454,4.4601,4.4615,4.4615,4.4615,4.4615,4.4615,4.4615,4.4615,4.4615,4.4615,4.4615,4.4615,4.4615,4.4615,4.4615,4.4615,4.4615,4.4615,4.4615,4.4615,4.4615,3.9342,0.0,3.9161,0.0,3.8871,3.8846,0.0,0.0,3.7056,0.0,0.0,0.0,0.0,0.0,0.0,0.0,0.0,0.0,0.0,0.0,0.0,0.0,0.0,0.0,0.0,0.0,0.0,0.0,0.0,0.0,3.5504,3.5504,3.5504,3.5504,3.5504,3.5504,3.5504,3.5504,3.5504,3.5504,3.5504,3.5504,3.5534,3.6088,3.6419,3.6538,3.715,3.7778,3.8469,3.9232,3.9481,3.9406,3.9517,3.9553,3.961,4.0268,4.0564,4.0718,4.1294,4.1509,4.1509,4.1509,4.1509,4.1509,4.1509,4.1575,4.1624,4.1525,4.1575,4.1656,4.1656,4.1656,4.1656,4.1656,4.1738,4.1803,4.169,4.1329,4.1148,4.1675,4.1592,4.1624,4.2221,4.2029,4.1965,4.2552,4.2723,4.2984,4.3571,4.3647,4.39,4.4542,4.4615,4.4615,4.4615,4.4615,4.4615,4.4615,4.4615,4.4615,4.4615,4.4615,4.4615,4.4615,4.4615,4.4615,4.4615,4.4615,4.4615,4.4615,4.4615,4.4615,3.9312,3.9299,3.9148,0.0,3.8535,3.8423,3.7236,0.0,3.6677,0.0,0.0,0.0,0.0,0.0,0.0,0.0,0.0,0.0,0.0,0.0,0.0,0.0,0.0,0.0,0.0,0.0,0.0,0.0,0.0,3.5504,3.5504,3.5504,3.5504,3.5504,3.5504,3.5504,3.5504,3.5504,3.5504,3.5504,3.5504,3.5504,3.5534,3.6193,3.6508,3.6553,3.7541,3.8123,3.8437,3.9107,3.9406,3.9406,3.9406,3.9406,3.9442,3.977,3.9879,3.9932,4.0233,4.0322,4.0322,4.0322,4.0322,4.0322,4.0322,4.06,4.0856,4.0443,4.0617,4.094,4.094,4.094,4.094,4.094,4.094,4.0822,4.0409,4.0462,4.0585,4.0585,4.0667,4.0836,4.1141,4.136,4.1592,4.1901,4.2269,4.2738,4.3406,4.3497,4.3779,4.4528,4.4615,4.477,4.5179,4.5227,4.5382,4.5802,4.5836,4.5836,4.5836,4.5447,4.5227,4.5227,4.4804,4.4615,4.4615,4.4615,4.4615,4.4615,4.4615,4.4615,0.0,0.0,3.9175,3.8689,3.8421,3.8137,0.0,0.0,0.0,0.0,0.0,0.0,0.0,0.0,0.0,0.0,0.0,0.0,0.0,0.0,0.0,0.0,0.0,0.0,0.0,0.0,0.0,0.0,0.0,3.5504,3.5504,3.5504,3.5504,3.5504,3.5504,3.5504,3.5504,3.5504,3.5504,3.5504,3.5504,3.5594,3.5774,3.6432,3.6806,3.7047,3.799,3.8497,3.8691,3.9182,3.9406,3.9406,3.9406,3.9406,3.9406,3.9406,3.9406,3.9406,3.9406,3.9406,3.9406,3.9406,3.9406,3.9406,3.9406,3.9788,4.0108,3.9553,3.9806,4.0216,4.0216,4.0216,4.0216,4.0216,4.0216,4.0073,3.9517,3.9826,4.0111,3.977,3.998,4.0242,4.0294,4.0819,4.1243,4.1243,4.1673,4.23,4.3136,4.3242,4.3671,4.4753,4.4888,4.5176,4.5923,4.5974,4.621,4.6766,4.68,4.68,4.68,4.6261,4.5974,4.5974,4.5447,4.4973,4.4615,4.4615,4.4615,4.4615,4.4787,4.4888,0.0,3.9299,0.0,3.9258,3.8772,0.0,0.0,0.0,0.0,0.0,0.0,0.0,0.0,0.0,0.0,0.0,0.0,0.0,0.0,0.0,0.0,0.0,0.0,0.0,0.0,0.0,0.0,0.0,0.0,3.5504,3.5504,3.5504,3.5504,3.5504,3.5504,3.5504,3.5504,3.5504,3.5504,3.5504,3.5504,3.5833,3.6479,3.7075,3.7704,3.8287,3.8362,3.8751,3.9346,3.9391,3.9406,3.9406,3.9406,3.9406,3.9406,3.9406,3.9406,3.9406,3.9406,3.9406,3.9406,3.9406,3.9406,3.9406,3.9406,3.9442,3.9445,3.9406,3.9442,3.9445,3.9445,3.9445,3.9445,3.9445,3.9445,3.946,3.9406,3.9442,3.9499,3.9679,3.9872,4.0081,4.0277,4.0453,4.0558,4.0558,4.0593,4.1074,4.2379,4.2552,4.3339,4.5421,4.5652,4.594,4.6682,4.6735,4.6752,4.68,4.68,4.68,4.68,4.6752,4.6735,4.6735,4.6716,4.6005,4.4615,4.4615,4.4615,4.4632,4.5314,4.5652,0.0,0.0,0.0,3.8772,3.8181,3.7678,3.7458,3.6585,0.0,0.0,0.0,0.0,0.0,0.0,0.0,0.0,0.0,0.0,0.0,0.0,0.0,0.0,0.0,0.0,0.0,0.0,0.0,0.0,0.0,0.0,3.5504,3.5504,3.5504,3.5504,3.5504,3.5504,3.5504,3.5504,3.5504,3.5504,3.5938,3.6269,3.6538,3.7569,3.8167,3.8424,3.8856,3.9167,3.9406,3.9406,3.9406,3.9406,3.9406,3.9406,3.9406,3.9406,3.9406,3.9406,3.9406,3.9406,3.9406,3.9406,3.9406,3.9406,3.9406,3.9406,3.9406,3.9406,3.9406,3.9406,3.9406,3.9406,3.9406,3.9406,3.9406,3.9406,3.9406,3.9406,3.9409,3.9481,3.9765,4.0013,4.0101,4.0331,4.0489,4.0489,4.0489,4.0819,4.1739,4.2671,4.3725,4.4928,4.5875,4.6701,4.743,4.7498,4.7716,4.8189,4.8206,4.8206,4.8206,4.7767,4.7498,4.7498,4.7039,4.631,4.5314,4.5314,4.5314,4.5314,4.5585,4.5957,3.9299,0.0,0.0,0.0,0.0,3.7399,3.7399,0.0,0.0,0.0,0.0,0.0,0.0,0.0,0.0,0.0,0.0,0.0,0.0,0.0,0.0,0.0,0.0,0.0,0.0,0.0,0.0,0.0,0.0,0.0,3.5504,3.5504,3.5504,3.5504,3.5504,3.5504,3.5504,3.5504,3.5504,3.5519,3.6194,3.6613,3.6836,3.7916,3.8512,3.8751,3.9212,3.9406,3.9406,3.9406,3.9406,3.9406,3.9406,3.9406,3.9406,3.9406,3.9406,3.9406,3.9406,3.9406,3.9406,3.9406,3.9406,3.9406,3.9406,3.9406,3.9406,3.9406,3.9406,3.9406,3.9406,3.9406,3.9406,3.9406,3.9406,3.9406,3.9406,3.9406,3.9442,3.9586,3.9765,3.996,4.0137,4.0314,4.0453,4.0489,4.0489,4.0826,4.1741,4.2944,4.4151,4.5289,4.6463,4.7479,4.8208,4.8276,4.8479,4.8968,4.9001,4.9001,4.9001,4.8529,4.8276,4.8276,4.78,4.7175,4.6433,4.6194,4.6075,4.6075,4.6314,4.6836,0.0,0.0,0.0,0.0,0.0,0.0,3.737,0.0,3.5667,0.0,0.0,0.0,0.0,0.0,0.0,0.0,0.0,0.0,0.0,0.0,0.0,0.0,0.0,0.0,0.0,0.0,0.0,0.0,0.0,3.5504,3.5504,3.5504,3.5504,3.5504,3.5504,3.5504,3.5504,3.5504,3.5504,3.5519,3.6193,3.6821,3.7417,3.8108,3.8781,3.9406,3.9406,3.9406,3.9406,3.9406,3.9406,3.9406,3.9406,3.9406,3.9406,3.9406,3.9406,3.9406,3.9406,3.9406,3.9406,3.9406,3.9406,3.9406,3.9406,3.9406,3.9406,3.9406,3.9406,3.9406,3.9406,3.9406,3.9406,3.9406,3.9406,3.9406,3.9406,3.9406,3.9514,3.9922,3.9821,3.9859,4.0385,4.0383,4.0331,4.047,4.0489,4.0997,4.2384,4.3248,4.4511,4.6547,4.7457,4.8225,4.8951,4.9001,4.9001,4.9001,4.9001,4.9001,4.9001,4.9001,4.9001,4.9001,4.9001,4.8648,4.7938,4.7192,4.6834,4.6851,4.7582,4.8326,3.9299,0.0,0.0,0.0,0.0,0.0,3.6677,3.6069,3.5553,0.0,0.0,0.0,0.0,0.0,0.0,0.0,0.0,0.0,0.0,0.0,0.0,0.0,0.0,0.0,0.0,0.0,0.0,0.0,3.5504,3.5504,3.5504,3.5504,3.5504,3.5504,3.5504,3.5504,3.5504,3.5504,3.5504,3.5519,3.6626,3.724,3.7449,3.8599,3.9212,3.9406,3.9406,3.9406,3.9406,3.9406,3.9406,3.9406,3.9406,3.9406,3.9406,3.9406,3.9406,3.9406,3.9406,3.9406,3.9406,3.9406,3.9406,3.9406,3.9406,3.9406,3.9406,3.9406,3.9406,3.9406,3.9406,3.9406,3.9406,3.9406,3.9406,3.9406,3.9406,3.9406,3.9442,3.955,3.9643,3.9753,3.991,4.0121,4.0259,4.0154,4.0349,4.077,4.1553,4.3331,4.4886,4.5962,4.7657,4.8781,4.8984,4.9001,4.9001,4.9001,4.9001,4.9001,4.9001,4.9001,4.9001,4.9001,4.9001,4.89,4.8682,4.7954,4.7599,4.7616,4.8343,4.8815,0.0,0.0,0.0,0.0,0.0,0.0,3.6399,3.5941,3.5569,0.0,0.0,0.0,0.0,0.0,0.0,0.0,0.0,0.0,0.0,0.0,0.0,0.0,0.0,0.0,0.0,0.0,0.0,3.5504,3.5504,3.5504,3.5504,3.5504,3.5504,3.5504,3.5504,3.5504,3.5504,3.5504,3.5639,3.5923,3.6926,3.7554,3.7853,3.8913,3.9406,3.9406,3.9406,3.9406,3.9406,3.9406,3.9406,3.9406,3.9406,3.9406,3.9406,3.9406,3.9406,3.9406,3.9406,3.9406,3.9406,3.9406,3.9406,3.9406,3.9406,3.9406,3.9406,3.9406,3.9406,3.9406,3.9406,3.9406,3.9406,3.9406,3.9406,3.9406,3.9406,3.9406,3.9409,3.9517,3.9625,3.9732,3.9803,4.0031,4.0154,4.0119,4.0224,4.0666,4.1717,4.3495,4.5079,4.61,4.7896,4.9001,4.9001,4.9001,4.9001,4.9001,4.9001,4.9001,4.9001,4.9001,4.9001,4.9001,4.9001,4.9001,4.9001,4.8563,4.836,4.8377,4.8798,4.9001,0.0,0.0,0.0,0.0,3.6352,0.0,3.629,3.5894,3.5651,3.6196,0.0,0.0,0.0,0.0,0.0,0.0,0.0,0.0,0.0,0.0,0.0,0.0,0.0,0.0,0.0,3.5504,3.5504,3.5504,3.5504,3.5504,3.5504,3.5504,3.5504,3.5504,3.5504,3.5504,3.5504,3.5504,3.5833,3.6508,3.7105,3.7749,3.8424,3.9077,3.9406,3.9406,3.9406,3.9406,3.9406,3.9406,3.9406,3.9406,3.9406,3.9406,3.9406,3.9406,3.9406,3.9406,3.9406,3.9406,3.9406,3.9406,3.9406,3.9406,3.9406,3.9406,3.9406,3.9406,3.9406,3.9406,3.9406,3.9406,3.9406,3.9406,3.9406,3.9406,3.9406,3.9406,3.9445,3.9643,3.9679,3.9714,3.9889,3.9943,4.0013,4.0189,4.0145,4.0698,4.2324,4.3743,4.5172,4.6648,4.8113,4.9001,4.9001,4.9001,4.9001,4.9001,4.9001,4.9001,4.9001,4.9001,4.9001,4.9001,4.9001,4.9001,4.9001,4.9001,4.9001,4.9001,4.9001,4.9001,0.0,0.0,0.0,0.0,0.0,0.0,3.5683,3.557,3.5537,0.0,0.0,0.0,0.0,0.0,0.0,0.0,0.0,0.0,0.0,0.0,0.0,0.0,0.0,0.0,0.0,3.5504,3.5504,3.5504,3.5504,3.5504,3.5504,3.5504,3.5504,3.5504,3.5504,3.5504,3.5504,3.5504,3.5833,3.6508,3.7105,3.7749,3.8424,3.9077,3.9406,3.9406,3.9406,3.9406,3.9406,3.9406,3.9406,3.9406,3.9406,3.9406,3.9406,3.9406,3.9406,3.9406,3.9406,3.9406,3.9406,3.9406,3.9406,3.9406,3.9406,3.9406,3.9406,3.9406,3.9406,3.9406,3.9406,3.9406,3.9406,3.9406,3.9406,3.9406,3.9406,3.9406,3.9409,3.9445,3.9445,3.9463,3.9514,3.9643,3.9714,3.9589,4.0272,4.1125,4.2004,4.3978,4.5687,4.668,4.8113,4.9001,4.9001,4.9001,4.9001,4.9001,4.9001,4.9001,4.9001,4.9001,4.9001,4.9001,4.9001,4.9001,4.9001,4.9001,4.9001,4.9001,4.9001,4.9001,0.0,0.0,0.0,3.5957,0.0,0.0,0.0,3.5504,3.5504,3.5504,3.5504,0.0,0.0,0.0,0.0,0.0,0.0,0.0,0.0,0.0,0.0,0.0,0.0,0.0,0.0,3.5504,3.5504,3.5504,3.5504,3.5504,3.5504,3.5504,3.5504,3.5504,3.5504,3.5504,3.5504,3.5504,3.5983,3.6941,3.727,3.7943,3.8916,3.9242,3.9406,3.9406,3.9406,3.9406,3.9406,3.9406,3.9406,3.9406,3.9406,3.9406,3.9406,3.9406,3.9406,3.9406,3.9406,3.9406,3.9406,3.9406,3.9406,3.9406,3.9406,3.9406,3.9406,3.9406,3.9406,3.9406,3.9406,3.9406,3.9406,3.9406,3.9406,3.9406,3.9406,3.9406,3.9406,3.9406,3.9406,3.9406,3.9406,3.9571,3.9679,3.9571,4.0287,4.1134,4.1908,4.3729,4.5382,4.654,4.7721,4.8609,4.897,4.9001,4.9001,4.9001,4.9001,4.9001,4.9001,4.9001,4.9001,4.9001,4.9001,4.9001,4.9001,4.9001,4.9001,4.9001,4.9001,4.9001,0.0,0.0,0.0,0.0,0.0,3.5504,0.0,0.0,0.0,3.5504,0.0,0.0,0.0,0.0,0.0,0.0,0.0,0.0,0.0,0.0,0.0,0.0,0.0,0.0,0.0,3.5683,3.5619,3.5504,3.5603,3.5619,3.5504,3.5504,3.5504,3.5504,3.5504,3.5504,3.5504,3.5624,3.6267,3.7387,3.7539,3.8225,3.9406,3.9406,3.9406,3.9406,3.9406,3.9406,3.9406,3.9406,3.9406,3.9406,3.9406,3.9406,3.9406,3.9406,3.9406,3.9406,3.9406,3.9406,3.9406,3.9406,3.9406,3.9406,3.9406,3.9406,3.9406,3.9406,3.9406,3.9406,3.9406,3.9406,3.9406,3.9406,3.9406,3.9406,3.9406,3.9406,3.9406,3.9406,3.9406,3.9406,3.9406,3.9535,3.9643,3.9643,4.0323,4.1123,4.1905,4.3474,4.5047,4.6401,4.7356,4.821,4.894,4.9001,4.9001,4.9001,4.9001,4.9001,4.9001,4.9001,4.9001,4.9001,4.9001,4.9001,4.9001,4.9001,4.9001,4.9001,4.9001,4.9001,0.0,0.0,0.0,0.0,3.5504,0.0,0.0,0.0,3.5504,3.5504,0.0,0.0,0.0,0.0,0.0,0.0,0.0,0.0,0.0,0.0,0.0,0.0,0.0,0.0,0.0,0.0,3.6085,3.5537,3.599,3.6069,3.5537,3.5504,3.5504,3.5504,3.5504,3.5504,3.5504,3.6088,3.6731,3.7402,3.8003,3.8676,3.9406,3.9406,3.9406,3.9406,3.9406,3.9406,3.9406,3.9406,3.9406,3.9406,3.9406,3.9406,3.9406,3.9406,3.9406,3.9406,3.9406,3.9406,3.9406,3.9406,3.9406,3.9406,3.9406,3.9406,3.9406,3.9406,3.9406,3.9406,3.9406,3.9406,3.9406,3.9406,3.9406,3.9406,3.9406,3.9406,3.9406,3.9406,3.9406,3.9406,3.9406,3.9409,3.9427,3.9427,4.0509,4.1483,4.1947,4.3763,4.5459,4.664,4.7456,4.821,4.894,4.9001,4.9001,4.9001,4.9001,4.9001,4.9001,4.9001,4.9001,4.9001,4.9001,4.9001,4.9001,4.9001,4.9001,4.9001,4.9001,4.9001,0.0,0.0,0.0,0.0,0.0,0.0,3.5504,0.0,3.5504,0.0,0.0,0.0,0.0,0.0,0.0,0.0,3.5504,0.0,0.0,0.0,0.0,0.0,0.0,0.0,0.0,0.0,0.0,0.0,0.0,3.6148,3.5537,3.5504,3.5504,3.5504,3.5504,3.5504,3.5504,3.6148,3.6791,3.7402,3.8078,3.8751,3.9406,3.9406,3.9406,3.9406,3.9406,3.9406,3.9406,3.9406,3.9406,3.9406,3.9406,3.9406,3.9406,3.9406,3.9406,3.9406,3.9406,3.9406,3.9406,3.9406,3.9406,3.9406,3.9406,3.9406,3.9406,3.9406,3.9406,3.9406,3.9406,3.9406,3.9406,3.9406,3.9406,3.9406,3.9406,3.9406,3.9406,3.9406,3.9406,3.9406,3.9406,3.9406,3.9406,3.9406,4.075,4.1779,4.182,4.356,4.5292,4.6499,4.7001,4.7721,4.8909,4.9001,4.9001,4.9001,4.9001,4.9001,4.9001,4.9001,4.9001,4.9001,4.9001,4.9001,4.9001,4.9001,4.9001,4.9001,4.9001,4.9001,3.5957,0.0,0.0,0.0,0.0,0.0,0.0,0.0,0.0,0.0,0.0,0.0,0.0,0.0,0.0,0.0,0.0,3.5717,0.0,0.0,0.0,0.0,0.0,0.0,0.0,0.0,0.0,3.6523,3.6631,3.6368,3.5537,3.5504,3.5504,3.5504,3.5504,3.5504,3.5504,3.6327,3.6971,3.7402,3.8272,3.8931,3.9406,3.9406,3.9406,3.9406,3.9406,3.9406,3.9406,3.9406,3.9406,3.9406,3.9406,3.9406,3.9406,3.9406,3.9406,3.9406,3.9406,3.9406,3.9406,3.9406,3.9406,3.9406,3.9406,3.9406,3.9406,3.9406,3.9406,3.9406,3.9406,3.9406,3.9406,3.9406,3.9406,3.9406,3.9406,3.9406,3.9406,3.9406,3.9406,3.9406,3.9406,3.9406,3.9406,3.9406,4.0842,4.1891,4.1783,4.3384,4.4974,4.6149,4.6586,4.7322,4.8593,4.8876,4.9001,4.9001,4.9001,4.9001,4.9001,4.9001,4.9001,4.9001,4.9001,4.9001,4.9001,4.9001,4.9001,4.9001,4.9001,4.9001,0.0,0.0,0.0,3.5651,0.0,0.0,0.0,0.0,3.5504,0.0,0.0,0.0,0.0,0.0,0.0,0.0,0.0,0.0,0.0,0.0,0.0,0.0,0.0,0.0,0.0,0.0,0.0,3.6707,3.7189,3.6951,3.557,3.5504,3.5504,3.5504,3.5504,3.5504,3.5504,3.6729,3.7389,3.7419,3.8733,3.9376,3.9406,3.9406,3.9406,3.9406,3.9406,3.9406,3.9406,3.9406,3.9406,3.9406,3.9406,3.9406,3.9406,3.9406,3.9406,3.9406,3.9406,3.9406,3.9406,3.9406,3.9406,3.9406,3.9406,3.9406,3.9406,3.9406,3.9406,3.9406,3.9406,3.9406,3.9406,3.9406,3.9406,3.9406,3.9406,3.9406,3.9406,3.9406,3.9406,3.9406,3.9406,3.9406,3.9406,3.9406,4.0716,4.1783,4.1965,4.3343,4.467,4.5624,4.6376,4.7119,4.7868,4.8593,4.9001,4.9001,4.9001,4.9001,4.9001,4.9001,4.9001,4.9001,4.9001,4.9001,4.9001,4.9001,4.9001,4.9001,4.9001,4.9001,0.0,0.0,3.5749,3.5553,0.0,0.0,0.0,0.0,0.0,0.0,0.0,0.0,0.0,0.0,0.0,0.0,0.0,0.0,0.0,0.0,0.0,0.0,0.0,0.0,0.0,0.0,0.0,3.7338,3.7086,3.6569,0.0,3.5504,3.5504,3.5504,3.5504,3.5714,3.6148,3.6985,3.7629,3.8063,3.8958,3.9406,3.9406,3.9406,3.9406,3.9406,3.9406,3.9406,3.9406,3.9406,3.9406,3.9406,3.9406,3.9406,3.9406,3.9406,3.9406,3.9406,3.9406,3.9406,3.9406,3.9406,3.9406,3.9406,3.9406,3.9406,3.9406,3.9406,3.9406,3.9406,3.9406,3.9406,3.9406,3.9406,3.9406,3.9406,3.9406,3.9406,3.9406,3.9406,3.9406,3.9406,3.9406,3.9406,3.9406,3.9406,4.0701,4.1764,4.1965,4.3343,4.4843,4.6271,4.6638,4.7288,4.8513,4.8861,4.9001,4.9001,4.9001,4.9001,4.9001,4.9001,4.9001,4.9001,4.9001,4.9001,4.9001,4.9001,4.9001,4.9001,4.9001,4.9001,3.6461,3.6116,0.0,3.5538,3.5504,0.0,3.5504,0.0,0.0,0.0,0.0,0.0,0.0,0.0,0.0,0.0,0.0,0.0,0.0,3.8522,0.0,0.0,0.0,0.0,0.0,0.0,3.8838,3.782,3.7339,3.6646,0.0,0.0,3.5504,3.5504,3.5504,3.5818,3.6493,3.7105,3.7749,3.8424,3.9095,3.9406,3.9406,3.9406,3.9406,3.9406,3.9406,3.9406,3.9406,3.9406,3.9406,3.9406,3.9406,3.9406,3.9406,3.9406,3.9406,3.9406,3.9406,3.9406,3.9406,3.9406,3.9406,3.9406,3.9406,3.9406,3.9451,3.969,3.9586,3.9451,3.969,3.9571,3.9406,3.9406,3.9406,3.9406,3.9406,3.9406,3.9406,3.9406,3.9406,3.9406,3.9406,3.9406,3.9406,3.9406,4.0701,4.1764,4.1965,4.3343,4.4746,4.5879,4.6482,4.7389,4.8861,4.9001,4.9001,4.9001,4.9001,4.9001,4.9001,4.9001,4.9255,4.9764,4.9272,4.9272,4.9781,4.9272,4.9001,4.9001,4.9001,4.9001]},{"header":{"parameterUnit":"m.s-1","parameterCategory":1,"la1":30.6,"la2":29.2853,"lo1":-89.7004,"lo2":-87.6739,"dy":0.0162,"dx":0.0183,"nx":112,"ny":82,"refTime":"2023-11-19T06:00:00:Z","depth":0,"parameterNumber":3,"parameterNumberName":"V-component_of_WINDS"},"data":[0.0,0.0,0.0,0.0,0.0,0.0,0.0,0.0,0.0,0.0,0.0,0.0,0.0,0.0,0.0,0.0,0.0,0.0,0.0,0.0,0.0,0.0,0.0,0.0,0.0,0.0,0.0,0.0,0.0,0.0,0.0,0.0,0.0,0.0,0.0,0.0,0.0,0.0,0.0,0.0,0.0,0.0,0.0,0.0,0.0,0.0,0.0,0.0,0.0,0.0,0.0,0.0,0.0,0.0,0.0,0.0,0.0,0.0,0.0,0.0,0.0,0.0,0.0,0.0,0.0,0.0,0.0,0.0,0.0,0.0,0.0,0.0,0.0,0.0,0.0,0.0,0.0,0.0,0.0,0.0,0.0,0.0,0.0,0.0,0.0,0.0,0.0,0.0,0.0,0.0,1.1095,1.1448,1.209,1.2502,1.2502,1.2502,1.2502,1.2502,0.0,0.0,0.0,0.0,0.0,0.0,0.0,0.0,0.0,0.0,0.0,0.0,0.0,0.0,0.0,0.0,0.0,0.0,0.0,0.0,0.0,0.0,0.0,0.0,0.0,0.0,0.0,0.0,0.0,0.0,0.0,0.0,0.0,0.0,0.0,0.0,0.0,0.0,0.0,0.0,0.0,0.0,0.0,0.0,0.0,0.0,0.0,0.0,0.0,0.0,0.0,0.0,0.0,0.0,0.0,0.0,0.0,0.0,0.0,0.0,0.0,0.0,0.0,0.0,0.0,0.0,0.0,0.0,0.0,0.0,0.0,0.0,0.0,0.0,0.0,0.0,0.0,0.0,0.0,0.0,0.0,0.0,0.0,0.0,0.0,0.0,0.0,0.0,0.0,0.0,0.0,0.0,0.0,0.0,0.0,0.0,0.0,0.0,0.0,0.0,0.0,0.0,0.0,0.0,1.1813,1.2277,1.2429,1.2502,1.2502,1.2502,1.2502,1.2502,0.0,0.0,0.0,0.0,0.0,0.0,0.0,0.0,0.0,0.0,0.0,0.0,0.0,0.0,0.0,0.0,0.0,0.0,0.0,0.0,0.0,0.0,0.0,0.0,0.0,0.0,0.0,0.0,0.0,0.0,0.0,0.0,0.0,0.0,0.0,0.0,0.0,0.0,0.0,0.0,0.0,0.0,0.0,0.0,0.0,0.0,0.0,0.0,0.0,0.0,0.0,0.0,0.0,0.0,0.0,0.0,0.0,0.0,0.0,0.0,0.0,0.0,0.0,0.0,0.0,0.0,0.0,0.0,0.0,0.0,0.0,0.0,0.0,0.0,0.0,0.0,0.0,0.0,0.0,0.0,0.0,0.0,0.0,0.0,0.0,0.0,0.0,0.0,0.0,0.0,0.0,0.0,0.0,0.0,0.0,0.0,0.0,0.0,0.0,0.0,0.0,0.0,0.0,1.2083,1.253,1.2755,1.2925,1.3045,1.3045,1.3045,1.3045,1.3045,1.3045,0.0,0.0,0.0,0.0,0.0,0.0,0.0,0.0,0.0,0.0,0.0,0.0,0.0,0.0,0.0,0.0,0.0,0.0,0.0,0.0,0.0,0.0,0.0,0.0,0.0,0.0,0.0,0.0,0.0,0.0,0.0,0.0,0.0,0.0,0.0,0.0,0.0,0.0,0.0,0.0,0.0,0.0,0.0,0.0,0.0,0.0,0.0,0.0,0.0,0.0,0.0,0.0,0.0,0.0,0.0,0.0,0.0,0.0,0.0,0.0,0.0,0.0,0.0,0.0,0.0,0.0,0.0,0.0,0.0,0.0,0.0,0.0,0.0,0.0,0.0,0.0,0.0,0.0,0.0,0.0,0.0,0.0,0.0,0.0,0.0,0.0,0.0,0.0,0.0,0.0,0.0,0.0,0.0,0.0,0.0,0.0,0.0,0.0,0.0,0.0,0.0,0.0,1.2965,1.3126,1.3126,1.3345,1.3492,1.3492,1.3492,1.3492,1.3492,1.3492,0.0,0.0,0.0,0.0,0.0,0.0,0.0,0.0,0.0,0.0,0.0,0.0,0.0,0.0,0.0,0.0,0.0,0.0,0.0,0.0,0.0,0.0,0.0,0.0,0.0,0.0,0.0,0.0,0.0,0.0,0.0,0.0,0.0,0.0,0.0,0.0,0.0,0.0,0.0,0.0,0.0,0.0,0.0,0.0,0.0,0.0,0.0,0.0,0.0,0.0,0.0,0.0,0.0,0.0,0.0,0.0,0.0,0.0,0.0,0.0,0.0,0.0,0.0,0.0,0.0,0.0,0.0,0.0,0.0,0.0,0.0,0.0,0.0,0.0,0.0,0.0,0.0,0.0,0.0,0.0,0.0,0.0,0.0,0.0,0.0,0.0,0.0,0.0,0.0,0.0,0.0,0.0,0.0,0.0,0.0,0.0,0.0,0.0,0.0,0.0,0.0,0.0,1.3448,1.3462,1.3462,1.3484,1.3492,1.3492,1.3492,1.3492,1.3492,1.3492,0.0,0.0,0.0,0.0,0.0,0.0,0.0,0.0,0.0,0.0,0.0,0.0,0.0,0.0,0.0,0.0,0.0,0.0,0.0,0.0,0.0,0.0,0.0,0.0,0.0,0.0,0.0,0.0,0.0,0.0,0.0,0.0,0.0,0.0,0.0,0.0,0.0,0.0,0.0,0.0,0.0,0.0,0.0,0.0,0.0,0.0,0.0,0.0,0.0,0.0,0.0,0.0,0.0,0.0,0.0,0.0,0.0,0.0,0.0,0.0,0.0,0.0,0.0,0.0,0.0,0.0,0.0,0.0,0.0,0.0,0.0,0.0,0.0,0.0,0.0,0.0,0.0,0.0,0.0,0.0,0.0,0.0,0.0,0.0,0.0,0.0,0.0,0.0,0.0,0.0,0.0,0.0,0.0,0.0,0.0,0.0,0.0,0.0,0.0,0.0,0.0,0.0,1.3492,1.3492,0.0,1.3492,1.3492,1.3492,1.3492,1.3492,1.3492,0.0,0.0,0.0,0.0,0.0,0.0,0.0,0.0,0.0,0.0,0.0,0.0,0.0,0.0,0.0,0.0,0.0,0.0,0.0,0.0,0.0,0.0,0.0,0.0,0.0,0.0,0.0,0.0,0.0,0.0,0.0,0.0,0.0,0.0,0.0,0.0,0.0,0.0,0.0,0.0,0.0,0.0,0.0,0.0,0.0,0.0,0.0,0.0,0.0,0.0,0.0,0.0,0.0,0.0,0.0,0.0,0.0,0.0,0.0,0.0,0.0,0.0,0.0,0.0,0.0,0.0,0.0,0.0,0.0,0.0,0.0,0.0,0.0,0.0,0.0,0.0,0.0,0.0,0.0,0.0,0.0,0.0,0.0,0.0,0.0,0.0,0.0,0.0,0.0,0.0,0.0,0.0,0.0,0.0,0.0,0.0,0.0,0.0,0.0,0.0,0.0,0.0,1.3492,1.3587,1.3671,0.0,1.374,1.3825,1.3825,1.3825,1.3825,1.3825,0.0,0.0,0.0,0.0,0.0,0.0,0.0,0.0,0.0,0.0,0.0,0.0,0.0,0.0,0.0,0.0,0.0,0.0,0.0,0.0,0.0,0.0,0.0,0.0,0.0,0.0,0.0,0.0,0.0,0.0,0.0,0.0,0.0,0.0,0.0,0.0,0.0,0.0,0.0,0.0,0.0,0.0,0.0,0.0,0.0,0.0,0.0,0.0,0.0,0.0,0.0,0.0,0.0,0.0,0.0,0.0,0.0,0.0,0.0,0.0,0.0,0.0,0.0,0.0,0.0,0.0,0.0,0.0,0.0,0.0,0.0,0.0,0.0,0.0,0.0,0.0,0.0,0.0,0.0,0.0,0.0,0.0,0.0,0.0,0.0,0.0,0.0,0.0,0.0,0.0,0.0,0.0,0.0,0.0,0.0,0.0,0.0,0.0,0.0,0.0,0.0,0.0,1.3506,1.3803,1.4008,1.4008,1.4294,1.4511,1.4511,1.4511,1.4511,0.0,0.0,0.0,0.0,0.0,0.0,0.0,0.0,0.0,0.0,0.0,0.0,0.0,0.0,0.0,0.0,0.0,0.0,0.0,0.0,0.0,0.0,0.0,0.0,0.0,0.0,0.0,0.0,0.0,0.0,0.0,0.0,0.0,0.0,0.0,0.0,0.0,0.0,0.0,0.0,0.0,0.0,0.0,0.0,0.0,0.0,0.0,0.0,0.0,0.0,0.0,0.0,0.0,0.0,0.0,0.0,0.0,0.0,0.0,0.0,0.0,0.0,0.0,0.0,0.0,0.0,0.0,0.0,0.0,0.0,0.0,0.0,0.0,0.0,0.0,0.0,0.0,0.0,0.0,0.0,0.0,0.0,0.0,0.0,0.0,0.0,0.0,0.0,0.0,0.0,0.0,0.0,0.0,0.0,0.0,0.0,0.0,0.0,0.0,0.0,0.0,0.0,0.0,1.4199,1.4286,1.4345,1.4345,1.4433,1.4511,1.4511,1.4511,1.4511,1.4511,0.0,0.0,0.0,0.0,0.0,0.0,0.0,0.0,0.0,0.0,0.0,0.0,0.0,0.0,0.0,0.0,0.0,0.0,0.0,0.0,0.0,0.0,0.0,0.0,0.0,0.0,0.0,0.0,0.0,0.0,0.0,0.0,0.0,0.0,0.0,0.0,0.0,0.0,0.0,0.0,0.0,0.0,0.0,0.0,0.0,0.0,0.0,0.0,0.0,0.0,0.0,0.0,0.0,0.0,0.0,0.0,0.0,0.0,0.0,0.0,0.0,0.0,0.0,0.0,0.0,0.0,0.0,0.0,0.0,0.0,0.0,0.0,0.0,0.0,0.0,0.0,0.0,0.0,0.0,0.0,0.0,0.0,0.0,0.0,0.0,0.0,0.0,0.0,0.0,0.0,0.0,0.0,0.0,0.0,0.0,0.0,0.0,0.0,0.0,0.0,0.0,0.0,1.4511,1.4602,1.4655,1.4655,1.4779,1.4853,1.4853,1.4853,1.4853,1.4853,0.0,0.0,0.0,0.0,0.0,0.0,0.0,0.0,0.0,0.0,0.0,0.0,0.0,0.0,0.0,0.0,0.0,0.0,0.0,0.0,0.0,0.0,0.0,0.0,0.0,0.0,0.0,0.0,0.0,0.0,0.0,0.0,0.0,0.0,0.0,0.0,0.0,0.0,0.0,0.0,0.0,0.0,0.0,0.0,0.0,0.0,0.0,0.0,0.0,0.0,0.0,0.0,0.0,0.0,0.0,0.0,0.0,0.0,0.0,0.0,0.0,0.0,0.0,0.0,0.0,0.0,0.0,0.0,0.0,0.0,0.0,0.0,0.0,0.0,0.0,0.0,0.0,0.0,0.0,0.0,0.0,0.0,0.0,0.0,0.0,0.0,0.0,0.0,0.0,0.0,0.0,0.0,0.0,0.0,0.0,0.0,0.0,0.0,0.0,0.0,0.0,0.0,1.458,1.4809,1.4944,1.4944,1.5206,1.541,1.541,1.541,1.541,1.541,0.0,0.0,0.0,0.0,0.0,0.0,0.0,0.0,0.0,0.0,0.0,0.0,0.0,0.0,0.0,0.0,0.0,0.0,0.0,0.0,0.0,0.0,0.0,0.0,0.0,0.0,0.0,0.0,0.0,0.0,0.0,0.0,0.0,0.0,0.0,0.0,0.0,0.0,0.0,0.0,0.0,0.0,0.0,0.0,0.0,0.0,0.0,0.0,0.0,0.0,0.0,0.0,0.0,0.0,0.0,0.0,0.0,0.0,0.0,0.0,1.4765,0.0,0.0,0.0,0.0,0.0,0.0,0.0,0.0,0.0,0.0,0.0,0.0,0.0,0.0,0.0,0.0,0.0,0.0,0.0,0.0,0.0,0.0,0.0,0.0,0.0,0.0,0.0,0.0,0.0,0.0,0.0,0.0,0.0,0.0,0.0,0.0,0.0,0.0,0.0,0.0,0.0,1.5205,1.5264,1.5279,1.5279,1.5366,1.541,1.541,1.541,1.541,1.541,1.541,0.0,0.0,0.0,0.0,0.0,0.0,0.0,0.0,0.0,0.0,0.0,0.0,0.0,0.0,0.0,0.0,0.0,0.0,0.0,0.0,0.0,0.0,0.0,0.0,0.0,0.0,0.0,0.0,0.0,0.0,0.0,0.0,0.0,0.0,0.0,0.0,0.0,0.0,0.0,0.0,0.0,0.0,0.0,0.0,0.0,0.0,0.0,0.0,0.0,0.0,0.0,0.0,0.0,0.0,0.0,0.0,0.0,0.0,0.0,0.0,1.4789,0.0,0.0,0.0,0.0,0.0,0.0,0.0,0.0,0.0,0.0,0.0,0.0,0.0,0.0,0.0,0.0,0.0,0.0,0.0,0.0,0.0,0.0,0.0,0.0,0.0,0.0,0.0,0.0,0.0,0.0,0.0,0.0,0.0,0.0,0.0,0.0,0.0,0.0,0.0,0.0,1.5862,1.6276,1.6382,1.592,1.6276,1.6545,1.6545,1.6545,1.675,1.7236,1.7278,0.0,0.0,0.0,0.0,0.0,0.0,0.0,0.0,0.0,0.0,0.0,0.0,0.0,0.0,0.0,0.0,0.0,0.0,0.0,0.0,0.0,0.0,0.0,0.0,0.0,0.0,0.0,0.0,0.0,0.0,0.0,0.0,0.0,0.0,0.0,0.0,0.0,0.0,0.0,0.0,0.0,0.0,0.0,0.0,0.0,0.0,0.0,0.0,0.0,0.0,0.0,0.0,0.0,1.5482,1.5318,1.5402,1.5788,1.5967,1.5933,1.5321,1.5333,1.5758,0.0,0.0,0.0,0.0,0.0,0.0,0.0,0.0,0.0,0.0,0.0,0.0,0.0,0.0,0.0,0.0,0.0,0.0,0.0,0.0,0.0,0.0,0.0,0.0,0.0,1.6907,1.6925,0.0,0.0,0.0,0.0,0.0,0.0,0.0,0.0,0.0,0.0,0.0,0.0,1.6595,1.7333,1.7565,1.6969,1.7609,1.7991,1.7818,1.7796,1.8078,1.8746,1.8789,1.8697,0.0,0.0,0.0,0.0,0.0,0.0,0.0,0.0,0.0,0.0,0.0,0.0,0.0,0.0,0.0,0.0,0.0,0.0,0.0,0.0,0.0,0.0,0.0,0.0,0.0,0.0,0.0,0.0,0.0,0.0,0.0,0.0,1.407,1.404,0.0,0.0,0.0,0.0,0.0,0.0,0.0,0.0,0.0,0.0,0.0,0.0,0.0,1.721,1.6732,1.6716,1.6763,1.6825,1.6763,1.6943,1.7339,1.74,1.742,1.742,1.7328,0.0,1.6232,1.6545,0.0,0.0,0.0,0.0,0.0,0.0,0.0,0.0,0.0,0.0,0.0,0.0,0.0,0.0,0.0,0.0,0.0,0.0,0.0,0.0,0.0,0.0,1.8713,1.8889,1.8917,1.9004,0.0,1.8116,1.6996,1.722,0.0,0.0,0.0,0.0,0.0,0.0,0.0,0.0,1.7492,1.7709,1.8078,1.8832,1.9025,1.8746,1.7861,1.7796,1.75,1.6822,1.6778,1.7121,1.7876,1.7789,0.0,0.0,0.0,0.0,0.0,0.0,0.0,0.0,0.0,0.0,0.0,0.0,0.0,0.0,0.0,0.0,0.0,0.0,0.0,0.0,0.0,0.0,0.0,0.0,0.0,0.0,0.0,0.0,0.0,1.3881,1.3806,1.3806,1.4196,1.465,0.0,0.0,0.0,0.0,0.0,0.0,0.0,0.0,0.0,1.6841,1.7419,1.7471,1.6994,1.7264,1.7399,1.7399,1.7399,1.7502,1.7709,1.7973,1.8092,1.8112,1.8371,1.8248,1.7847,1.7523,1.7399,1.7414,0.0,0.0,0.0,0.0,0.0,1.6757,1.69,1.6707,0.0,0.0,0.0,0.0,0.0,0.0,0.0,0.0,0.0,0.0,0.0,0.0,0.0,1.9487,1.9639,1.9824,2.0488,1.9963,1.9179,0.0,1.8687,1.8493,1.7398,0.0,0.0,0.0,0.0,1.8503,1.9068,1.9146,1.9123,1.902,1.902,1.8842,1.8394,1.8349,1.8663,1.9332,1.9376,1.9452,1.964,1.9166,1.8551,0.0,0.0,0.0,0.0,0.0,0.0,0.0,0.0,0.0,0.0,0.0,0.0,0.0,0.0,0.0,0.0,0.0,0.0,0.0,0.0,0.0,0.0,0.0,0.0,0.0,0.0,0.0,0.0,1.4057,1.381,1.381,1.4067,1.4445,0.0,0.0,0.0,0.0,0.0,0.0,1.6481,1.6881,1.7048,1.6957,1.7665,1.7887,1.7539,1.7887,1.8066,1.8066,1.8066,1.8066,1.8066,1.8418,1.859,1.8611,1.8953,1.9108,1.9056,1.835,1.8066,1.8066,1.8066,1.8028,1.7987,1.7987,1.7762,1.7499,1.7859,1.7962,1.7885,1.7584,0.0,1.7596,1.6856,0.0,0.0,0.0,0.0,1.7882,1.849,1.8807,1.9184,2.0023,2.0313,2.0596,2.124,2.1376,2.1097,0.0,2.0197,1.9927,1.8448,0.0,0.0,0.0,0.0,1.9611,1.9813,1.9846,1.9764,1.9559,1.9536,1.9536,1.9536,1.9536,2.0059,2.1239,2.1329,2.1291,2.1273,2.0382,1.9406,1.837,0.0,0.0,0.0,0.0,0.0,0.0,0.0,0.0,0.0,0.0,0.0,0.0,0.0,0.0,0.0,0.0,0.0,0.0,0.0,0.0,0.0,0.0,0.0,0.0,0.0,0.0,0.0,0.0,0.0,1.464,1.4666,0.0,0.0,0.0,0.0,1.6067,1.6185,1.6603,1.7474,1.7614,1.8065,1.8932,1.9003,1.9019,1.8986,1.9019,1.9036,1.9036,1.9036,1.9036,1.9019,1.9056,1.9067,1.9077,1.9088,1.9108,1.9098,1.9056,1.9036,1.9036,1.9036,1.904,1.9017,1.9017,1.9021,1.8965,1.8808,1.9026,1.9364,1.9148,1.926,1.9426,1.9201,1.9147,0.0,0.0,1.9459,1.977,1.9808,2.043,2.1063,2.1122,2.1484,2.1817,2.1866,2.1846,2.1846,0.0,2.1795,2.1609,2.1001,0.0,2.05,1.9006,1.881,1.8864,1.888,1.888,1.9559,2.1351,2.1561,2.1561,2.1561,2.1561,2.1195,2.0322,2.0277,2.0683,2.1645,2.0702,2.0152,2.009,1.9167,0.0,0.0,0.0,0.0,0.0,0.0,0.0,0.0,0.0,0.0,0.0,0.0,0.0,0.0,0.0,0.0,0.0,0.0,0.0,0.0,0.0,0.0,0.0,0.0,0.0,0.0,0.0,0.0,1.5213,1.5411,0.0,1.5769,1.6329,1.6755,1.6922,1.7314,1.7531,1.7468,1.7854,1.8235,1.8563,1.9202,1.9554,1.9554,1.9817,1.9944,1.9944,1.9944,1.9944,1.9944,1.9944,1.9944,1.9944,1.9944,1.9944,1.9944,1.9944,1.962,1.9108,1.9108,1.9285,1.9554,1.9554,1.9713,1.991,1.9756,1.9876,2.0052,1.9895,1.9718,1.9636,1.9821,1.9892,1.9973,2.04,2.0635,2.081,2.1113,2.1416,2.165,2.165,2.1777,2.1963,2.2236,2.2295,2.2373,2.2615,2.2449,2.2028,2.1232,2.1829,2.2001,2.0832,2.1195,2.1574,2.1574,2.1029,2.0926,2.1628,2.1127,2.0737,2.0737,2.0737,2.0849,2.115,2.1172,2.1329,2.1695,2.1351,2.0849,2.0209,1.9869,1.9182,0.0,0.0,0.0,0.0,0.0,0.0,0.0,0.0,0.0,0.0,0.0,0.0,0.0,0.0,0.0,0.0,0.0,0.0,0.0,0.0,0.0,0.0,0.0,0.0,0.0,0.0,1.5794,1.562,1.597,1.6207,1.6207,1.6923,1.739,1.739,1.7964,1.8176,1.7927,1.8487,1.8865,1.8999,1.9647,2.0003,2.0003,2.0258,2.0403,2.0403,2.0403,2.0403,2.0403,2.0403,2.0403,2.0403,2.0403,2.0403,2.0403,2.0403,2.0069,1.9547,1.9547,1.9734,2.0003,2.0003,2.0172,2.0416,2.0473,2.0561,2.0653,2.0636,2.0569,2.0498,2.0607,2.0738,2.0947,2.1329,2.1435,2.1503,2.1807,2.2013,2.21,2.21,2.2207,2.2383,2.2645,2.2703,2.2791,2.3042,2.2867,2.25,2.1876,2.2505,2.2775,2.1828,2.2236,2.2501,2.2161,2.1574,2.1329,2.165,2.1105,2.0827,2.1141,2.0894,2.1118,2.2104,2.1872,2.1828,2.217,2.153,2.0872,2.0209,1.99,1.9581,1.9262,0.0,0.0,0.0,0.0,0.0,0.0,0.0,0.0,0.0,0.0,0.0,0.0,0.0,0.0,0.0,0.0,0.0,0.0,0.0,0.0,0.0,0.0,0.0,1.6673,1.6603,1.6403,1.5903,1.6307,1.6638,1.6655,1.7124,1.7443,1.7461,1.8027,1.8539,1.8921,1.9492,1.9993,2.0392,2.0413,2.0423,2.0423,2.0444,2.0444,2.0444,2.0444,2.0444,2.0444,2.0444,2.0444,2.0444,2.0444,2.0444,2.0444,2.0444,2.0444,2.0444,2.0413,2.0413,2.0423,2.0423,2.0434,2.0516,2.0982,2.1137,2.1182,2.1457,2.1849,2.2127,2.167,2.1847,2.2164,2.1957,2.1925,2.1925,2.1944,2.2248,2.2529,2.2529,2.282,2.3113,2.3091,2.3091,2.3091,2.3091,2.3091,2.3091,2.3091,2.3091,2.2796,2.1872,2.1739,0.0,2.0413,2.0277,2.0647,2.1606,2.1695,2.2081,2.2982,2.2214,2.2104,2.3047,2.2258,2.2148,2.3047,2.1297,2.0277,2.0277,1.9376,1.933,2.0254,0.0,0.0,0.0,0.0,0.0,0.0,0.0,0.0,0.0,0.0,0.0,0.0,0.0,0.0,0.0,0.0,0.0,0.0,0.0,0.0,0.0,0.0,1.7218,1.6673,1.6603,1.6699,1.6934,1.7089,1.7356,1.7784,1.8237,1.8673,1.9098,1.9549,1.9871,1.9976,2.0128,2.0296,2.0403,2.0734,2.0909,2.0909,2.124,2.1406,2.1406,2.1406,2.1406,2.1406,2.1406,2.1406,2.1406,2.1406,2.1406,2.1406,2.1406,2.1406,2.1344,2.0672,2.0609,2.0909,2.0909,2.1116,2.1468,2.1952,2.2021,2.1987,2.2537,2.2594,2.2382,2.2261,2.2208,2.2212,2.2319,2.2344,2.2454,2.2939,2.315,2.3238,2.3238,2.3306,2.3341,2.3144,2.3091,2.3091,2.3091,2.3091,2.3091,2.3091,2.3091,2.3003,2.2753,2.2709,0.0,2.2347,2.2293,2.2148,2.1739,2.1695,2.1806,2.2059,2.186,2.2104,2.3047,2.2872,2.2818,2.3101,2.2599,2.2293,2.2293,2.1373,2.1038,0.0,0.0,0.0,0.0,0.0,0.0,0.0,0.0,0.0,0.0,0.0,0.0,0.0,0.0,0.0,0.0,0.0,0.0,0.0,0.0,0.0,0.0,1.7549,1.7837,1.7295,1.7286,1.7339,1.739,1.7766,1.8166,1.852,1.9133,1.9676,2.002,2.0258,2.0485,2.0682,2.0855,2.0967,2.1,2.1605,2.1947,2.1985,2.2245,2.2474,2.2639,2.2474,2.2387,2.2387,2.2387,2.2387,0.0,2.2387,2.2387,2.2387,2.2387,2.2387,0.0,0.0,0.0,0.0,0.0,2.1983,2.2418,2.2687,2.2731,2.2672,2.3061,2.3145,2.3073,2.2949,2.2977,2.3031,2.3047,2.2988,2.3026,2.3499,2.3569,2.3503,2.3503,2.3503,2.3438,2.3166,2.3091,2.3091,2.3091,0.0,0.0,2.3091,2.3091,2.3091,2.3091,2.3091,2.3091,2.3091,2.3091,2.2894,2.2347,2.228,2.228,2.228,2.1926,0.0,0.0,0.0,2.2501,2.2501,2.2501,0.0,0.0,0.0,2.1895,2.228,0.0,0.0,0.0,1.9581,1.8857,0.0,0.0,0.0,0.0,0.0,0.0,0.0,0.0,0.0,0.0,0.0,0.0,0.0,0.0,0.0,0.0,1.836,1.8815,1.8345,1.8421,1.8316,1.7722,1.8432,1.9001,1.9061,1.9915,2.0485,2.0485,2.0563,2.0819,2.1248,0.0,0.0,0.0,0.0,2.3131,2.3198,2.3197,2.3375,2.3725,2.3375,2.3204,2.3204,2.3204,2.3204,2.3204,2.3204,2.3204,2.3204,2.3204,2.3204,2.3132,2.2283,2.1963,2.2014,2.2418,2.2832,0.0,0.0,0.0,0.0,2.3318,2.3619,2.3887,2.3646,2.3859,2.412,2.3862,2.3667,2.359,2.3797,2.3699,2.3525,2.3525,2.3525,2.3438,2.3166,2.3091,2.3091,2.3091,2.3091,2.3091,2.3091,2.3091,2.3091,2.3091,2.3091,2.3091,2.3091,2.3091,2.3047,2.296,0.0,0.0,2.2938,2.217,2.2104,2.3047,2.2325,2.185,2.185,2.185,2.185,2.185,2.185,2.2258,2.3091,2.3091,2.2665,2.1828,2.0827,1.9846,0.0,0.0,0.0,0.0,0.0,0.0,0.0,0.0,0.0,0.0,0.0,0.0,0.0,0.0,0.0,1.8635,1.9056,1.9421,1.9331,1.9699,1.9791,1.9239,1.9354,1.9637,2.0083,2.0638,2.0961,2.0961,2.1618,2.2075,2.222,2.2608,0.0,2.2924,2.3088,2.319,2.321,2.3203,2.3245,2.3315,0.0,0.0,2.3204,2.3204,2.3204,2.3204,2.3204,2.3204,2.3204,2.3204,2.3204,2.3183,2.2987,2.2935,2.2925,2.3038,2.3111,2.3246,2.3639,2.3764,2.3826,2.4136,2.4194,2.4138,2.4074,2.3974,0.0,2.3819,2.3776,2.3797,2.4067,2.3937,2.3732,2.3732,2.3624,2.3438,2.3166,2.3091,2.3091,2.3091,2.3091,2.3091,2.3091,2.3091,2.3091,2.3091,2.3091,2.3091,2.3091,2.3091,2.2806,2.205,2.1961,2.1961,2.1961,2.1806,2.2104,2.3047,2.2938,2.2828,2.2828,2.2828,2.2828,2.2828,2.2828,2.2916,2.3091,2.3091,2.3003,2.2806,2.185,2.0872,0.0,0.0,0.0,0.0,0.0,0.0,0.0,0.0,0.0,0.0,0.0,2.0002,0.0,0.0,1.9919,1.9639,2.002,2.0354,2.0354,2.0786,2.0839,2.0088,2.0222,2.0463,2.0718,2.1168,2.1559,2.1787,2.2206,2.256,2.2842,2.324,2.3474,2.3495,2.3696,2.3924,2.4189,2.3981,2.3971,2.4199,2.3961,2.3846,2.3846,2.3846,2.3846,2.3846,2.3846,2.3846,2.3846,2.3846,2.3846,2.3846,2.3846,2.3732,2.3556,2.3556,2.367,2.3877,2.4126,2.4209,2.4229,2.4425,2.4433,2.4347,2.4347,2.4261,2.4143,2.4143,2.397,2.3862,2.4131,2.3937,2.3646,2.3646,2.3559,2.3438,2.3166,2.3091,2.3091,2.3091,2.3091,2.3091,2.3091,2.3091,2.3091,2.3091,2.3091,2.3091,2.3091,2.3091,2.2916,2.2457,2.2391,2.2391,2.2391,2.2391,2.2599,2.3069,2.3091,2.3091,2.3091,2.3091,2.3091,2.3091,2.3091,2.3091,2.3091,2.3091,2.3091,2.3101,2.2621,2.1872,0.0,0.0,0.0,0.0,0.0,0.0,0.0,0.0,2.0403,2.0403,2.0475,2.0537,2.0537,2.0609,2.0672,2.0672,2.0992,2.1248,2.1248,2.155,2.1547,2.0873,2.1131,2.1391,2.1503,2.1922,2.236,2.2721,2.2812,2.304,2.343,2.3835,2.4108,2.4193,2.4434,2.476,2.5203,2.4735,2.4679,2.5052,2.4679,2.4497,2.4497,2.4497,2.4497,2.4497,2.4497,2.4497,2.4497,2.4497,2.4497,2.4497,2.4497,2.4301,2.4023,2.4023,2.4208,2.4497,2.4497,2.4497,2.4497,2.4497,2.4497,2.4497,2.4497,2.4475,2.4433,2.4433,2.4121,2.3841,2.4067,2.3807,2.3503,2.3503,2.346,2.3363,2.3144,2.3091,2.3091,2.3091,2.3091,2.3091,2.3091,2.3091,2.3091,2.3091,2.3091,2.3091,2.3091,2.3091,2.3091,2.3091,2.3091,2.3091,2.3091,2.3091,2.3091,2.3091,2.3091,2.3091,2.3091,2.3091,2.3091,2.3091,2.3091,2.3091,2.3091,2.3091,2.3091,2.3091,2.3091,2.2687,2.1222,2.1312,2.1292,2.0945,2.0867,2.0783,0.0,0.0,2.0403,2.0403,2.0734,2.1023,2.1023,2.1354,2.1652,2.1652,2.1694,2.1725,2.1725,2.1776,2.1899,2.2152,2.2211,2.2431,2.2922,2.3334,2.3599,2.3648,2.3978,2.4253,2.4351,2.474,2.5171,2.5658,2.5315,2.5147,2.5199,2.4722,2.454,2.4583,2.454,2.4497,2.4497,2.4497,2.4497,2.4497,2.4497,2.4497,2.4497,2.4497,2.4497,2.4497,2.4497,2.4466,2.4425,2.4425,2.4456,2.4497,2.4497,2.4497,2.4497,2.4497,2.4497,2.4497,2.4497,2.4368,2.4228,2.4228,2.4024,2.3819,2.3841,2.3667,2.3503,2.3503,2.3319,2.3144,2.3123,2.3091,2.3091,2.3091,2.3091,2.3091,2.3091,2.3091,2.3091,2.3091,2.3091,2.3091,2.3091,2.3091,2.3091,2.3091,2.3091,2.3091,2.3091,2.3091,2.3091,2.3091,2.3091,2.3091,2.3091,2.3091,2.3091,2.3091,2.3091,2.3091,2.3091,2.3091,2.3091,2.3091,2.3091,2.3047,2.2188,2.1792,2.1513,2.1159,2.106,2.1097,2.1184,2.1209,2.1209,2.1209,2.1364,2.1518,2.1518,2.1673,2.1807,0.0,2.1807,2.1807,2.1807,2.1807,2.1864,2.2035,2.2495,2.2892,2.3122,2.3534,2.382,2.3864,2.4221,2.4576,2.4891,2.533,2.5656,2.5895,2.5443,2.52,2.52,2.502,2.4764,2.4497,2.4786,2.4764,2.4497,2.4497,2.4497,2.4497,2.4497,2.4497,2.4497,2.4497,2.4497,2.4497,2.4497,2.4497,2.4497,2.4497,2.4497,2.4497,2.4497,2.4497,2.4497,2.4497,2.4497,2.4497,2.4497,2.4347,2.4206,2.4206,2.3916,2.3646,2.3776,2.3537,2.3297,2.346,2.3297,2.3091,2.3091,2.3091,2.3091,2.3091,2.3091,2.3091,2.3091,2.3091,2.3091,2.3091,2.3091,2.3091,2.3091,2.3091,2.3091,2.3091,2.3091,2.3091,2.3091,2.3091,2.3091,2.3091,2.3091,2.3091,2.3091,2.3091,2.3091,2.3091,2.3091,2.3091,2.3091,2.3091,2.3091,2.3091,2.3091,2.3091,2.2977,2.2504,2.224,2.188,2.18,2.1811,2.1933,2.1978,2.193,2.1826,2.1807,2.1807,2.1807,2.1807,2.1807,2.1807,2.1911,2.1994,2.1994,2.2108,2.2229,2.2345,2.3133,2.3675,2.3645,2.3965,2.424,2.444,2.4721,2.5088,2.5526,2.5791,2.5937,2.6063,2.5496,2.5264,2.539,2.5137,2.4914,2.4711,2.4914,2.4828,2.4497,2.4497,2.4497,2.4497,2.4497,2.4497,2.4497,2.4497,2.4497,2.4497,2.4497,2.4497,2.4497,2.4497,2.4497,2.4497,2.4497,2.4497,2.4497,2.4497,2.4497,2.4497,2.4497,2.4304,2.412,2.4185,2.3851,2.3525,2.3667,2.3472,2.3232,2.3363,2.3232,2.3091,2.3091,2.3091,2.3091,2.3091,2.3091,2.3091,2.3091,2.3091,2.3091,2.3091,2.3091,2.3091,2.3091,2.3091,2.3091,2.3091,2.3091,2.3091,2.3091,2.3091,2.3091,2.3091,2.3091,2.3091,2.3091,2.3091,2.3091,2.3091,2.3091,2.3091,2.3091,2.3091,2.3091,2.3091,2.3091,2.3091,2.3542,2.374,2.4027,2.3625,2.3515,2.3324,2.2553,2.2384,2.2271,2.1883,2.1807,2.1807,2.1807,2.1807,2.1807,2.1807,2.218,2.248,2.248,2.2863,2.3304,2.3685,2.4574,2.51,0.0,2.5048,2.5266,2.5799,2.5853,2.6041,2.6445,2.6093,2.6073,2.6466,2.5653,2.5422,2.5874,2.4988,2.4743,2.5179,2.4722,2.4518,2.4497,2.4497,2.4497,2.4497,2.4497,2.4497,2.4497,2.4497,2.4497,2.4497,2.4497,2.4497,2.4497,2.4497,2.4497,2.4497,2.4497,2.4497,2.4497,2.4497,2.4497,2.4497,2.4497,2.4186,2.3862,2.4142,2.3851,2.3503,2.3503,2.3503,2.3416,2.3157,2.3123,2.3091,2.3091,2.3091,2.3091,2.3091,2.3091,2.3091,2.3091,2.3091,2.3091,2.3091,2.3091,2.3091,2.3091,2.3091,2.3091,2.3091,2.3091,2.3091,2.3091,2.3091,2.3091,2.3091,2.3091,2.3091,2.3091,2.3091,2.3091,2.3091,2.3091,2.3091,2.3091,2.3091,2.3091,2.3091,2.3091,2.3091,2.423,2.3538,2.2964,2.2833,2.2609,2.2327,2.2063,2.1997,2.1949,2.1826,2.2295,2.2736,2.2736,2.296,2.3121,2.3121,2.3041,2.2956,2.2956,2.3111,2.3355,2.3756,2.4353,0.0,0.0,0.0,0.0,2.5905,2.6156,2.6228,2.6114,2.6239,2.6103,2.5653,2.5654,2.5443,2.4988,2.5285,2.52,2.4722,2.4583,2.4497,2.4497,2.4497,2.4497,2.4497,2.4497,2.4497,2.4497,2.4497,2.4497,2.4497,2.4497,2.4497,2.4497,2.4497,2.4497,2.4497,2.4497,2.4497,2.4497,2.4497,2.4497,2.4497,2.4497,2.4304,2.4088,2.4175,2.3851,2.3525,2.3667,2.3472,2.3254,2.3341,2.3232,2.3091,2.3091,2.3091,2.3091,2.3091,2.3091,2.3091,2.3091,2.3091,2.322,2.3525,2.3298,2.3091,2.3091,2.3367,2.3574,2.3574,2.3796,2.3962,2.3962,2.3962,2.3962,2.3962,2.3962,2.3962,2.3962,2.3962,2.3962,2.3962,2.3688,2.3574,2.3574,2.3259,2.3091,2.3091,2.3091,2.3091,2.454,2.3699,2.3038,2.3038,2.2852,2.2628,2.2478,2.2327,2.2275,2.2482,2.2892,2.3302,2.361,2.3741,2.3795,2.3795,2.3713,2.3606,2.3473,2.3854,2.4195,2.4285,2.4839,2.5331,0.0,0.0,0.0,2.6156,2.6342,2.6456,2.6375,2.6456,2.6238,2.5674,2.5643,2.5443,2.5009,2.5264,2.5094,2.4497,2.4497,2.4497,2.4497,2.4497,2.4497,2.4497,2.4497,2.4497,2.4497,2.4497,2.4497,2.4497,2.4497,2.4497,2.4497,2.4497,2.4497,2.4497,2.4497,2.4497,2.4497,2.4497,2.4497,2.4497,2.4497,2.4347,2.4206,2.4292,2.398,2.3634,2.3776,2.3515,2.3254,2.3341,2.3232,2.3091,2.3091,2.3091,2.3091,2.3091,2.3091,2.314,2.3327,2.3474,2.3669,2.3975,2.3757,2.3549,2.3549,2.3838,2.4014,2.4014,2.4258,2.4391,2.4391,2.4391,2.4391,2.4391,2.4391,2.4391,2.4391,2.4391,2.4391,2.4391,2.415,2.4014,2.4014,2.3708,2.3549,2.3549,2.3549,2.3493,2.4496,2.4182,2.4134,2.4152,2.4152,2.4043,2.3659,2.3301,2.3184,2.3662,2.3524,2.3541,0.0,0.0,2.3869,2.3909,2.4273,2.4406,2.4054,2.5091,2.5749,0.0,0.0,0.0,0.0,0.0,0.0,2.6569,0.0,2.6704,2.7108,2.6725,2.6487,2.6466,2.5674,2.5443,2.5853,2.4967,2.4497,2.4497,2.4497,2.4497,2.4497,2.4497,2.4497,2.4497,2.4497,2.4497,2.4497,2.4497,2.4497,2.4497,2.4497,2.4497,2.4497,2.4497,2.4497,2.4497,2.4497,2.4497,2.4497,2.4497,2.4497,2.4497,2.4497,2.4378,2.4239,2.4433,2.4143,2.3797,2.3797,2.3624,2.3416,2.3196,2.313,2.314,2.3149,2.3159,2.3159,2.3159,2.3159,2.3308,2.375,2.415,2.4401,2.442,2.443,2.4443,2.4391,2.441,2.443,2.443,2.4449,2.4459,2.4459,2.4459,2.4459,2.4459,2.4459,2.4459,2.4459,2.4459,2.4459,2.4459,2.444,2.443,2.443,2.4401,2.4391,2.4391,2.4391,2.4209,2.4304,2.3769,2.3372,2.3677,2.353,2.3279,2.3187,2.3368,2.355,2.3315,2.4025,2.4655,0.0,0.0,0.0,2.5306,2.5175,0.0,2.5366,2.5673,0.0,2.6155,0.0,2.6642,2.6994,2.7117,0.0,0.0,2.7015,2.6789,2.625,2.6394,2.6362,2.6052,2.5853,2.5612,2.538,2.4786,2.4497,2.4497,2.4497,2.4497,2.4497,2.4497,2.4497,2.4497,2.4497,2.4497,2.4497,2.4497,2.4497,2.4497,2.4497,2.4497,2.4497,2.4497,2.4497,2.4497,2.4497,2.4497,2.4497,2.4497,2.4497,2.4497,2.4497,2.4454,2.439,2.4304,2.4045,2.3776,2.3624,2.3385,2.3266,2.3545,2.3623,2.3711,2.4001,2.4069,2.4069,2.4069,2.4069,2.4108,2.4238,2.4323,2.4531,2.4877,2.4926,2.4809,2.443,2.4697,2.4926,2.4926,2.5181,2.5376,2.5376,2.5376,2.5376,2.5376,2.5376,2.5376,2.5376,2.5376,2.5376,2.5376,2.5068,2.4926,2.4926,2.458,2.4391,2.4391,2.4391,2.4365,2.4243,2.3879,2.3574,2.3806,2.3853,2.3832,2.3832,2.3946,2.4102,2.4253,2.4612,2.4993,2.5312,2.5281,0.0,0.0,0.0,0.0,2.5306,2.5979,2.6416,0.0,2.656,0.0,2.7158,2.721,2.7117,0.0,2.7076,2.6985,2.6511,2.6674,2.6695,2.6479,2.6104,2.558,2.4892,2.4625,2.4497,2.4497,2.4497,2.4497,2.4497,2.4497,2.4497,2.4497,0.0,2.4497,2.4497,2.4497,2.4497,2.4497,2.4497,2.4497,2.4497,2.4497,2.4621,2.4797,2.4797,2.4953,2.5046,2.4621,2.4497,2.4538,2.4735,2.4797,2.4794,2.4781,2.4611,2.4368,2.4135,2.3868,2.3737,2.4004,2.4062,2.4131,2.4342,2.4391,2.4391,2.4391,2.457,2.4697,2.4697,2.484,2.5054,2.5322,2.5361,2.5273,2.5006,2.5205,2.5361,2.5361,2.5562,2.5693,2.5693,2.5693,2.5693,2.5693,2.5693,2.5693,2.5693,2.5693,2.5693,2.5693,2.5488,2.5361,2.5361,2.5093,2.4976,2.4976,2.4976,2.4893,2.4152,2.4116,2.4157,2.4251,2.4602,2.4905,2.4898,2.4742,2.4779,2.546,2.5064,2.4939,2.6036,2.5674,2.5327,2.5749,0.0,2.5623,2.4796,2.6073,2.683,2.6063,2.6706,2.721,2.721,2.721,2.7035,2.661,2.6962,2.717,2.7117,2.717,2.7149,2.7026,2.6229,2.5391,2.4518,2.4497,2.4497,2.4497,2.4497,2.4497,2.4497,2.4497,2.4497,2.4497,0.0,0.0,2.4497,2.4497,2.4497,2.4507,2.4569,2.459,2.46,2.4652,2.4953,2.5294,2.5294,2.5564,2.5773,2.4953,2.4694,2.4755,2.517,2.5272,2.5266,2.5408,2.5315,2.5087,2.4825,2.4585,2.4434,2.4492,2.4479,2.4498,2.4557,2.4567,2.4567,2.4567,2.4893,2.518,2.518,2.5478,2.5693,2.5693,2.5693,2.5693,2.5693,2.5693,2.5693,2.5693,2.5693,2.5693,2.5693,2.5693,2.5693,2.5693,2.5693,2.5693,2.5693,2.5693,2.5693,2.5693,2.5693,2.5693,2.5693,2.5693,2.5693,2.5693,2.5693,2.5503,2.3611,2.3703,2.3878,2.459,2.4836,2.4914,2.498,2.5279,0.0,0.0,2.4869,2.5041,2.4882,2.5031,2.5242,2.5306,2.5654,2.5833,2.5686,2.6207,2.658,0.0,2.686,2.721,2.721,2.721,0.0,0.0,0.0,2.7035,2.6642,2.6994,2.6882,2.6146,2.5612,2.5062,2.4497,2.4497,2.4497,2.4497,2.4497,2.4497,2.4497,2.4497,2.4497,2.4497,2.4497,0.0,2.4497,2.4497,2.4497,2.4538,2.4921,2.5065,2.5139,2.5513,2.5699,2.5794,2.5794,2.5835,2.5877,2.5699,2.5647,2.5658,2.574,2.5614,2.5418,2.5295,2.5064,2.4802,2.4539,2.4437,2.4502,2.4887,2.4975,2.5082,2.5406,2.546,2.546,2.546,2.5542,2.5601,2.5601,2.5659,2.5693,2.5693,2.5693,2.5693,2.5693,2.5693,2.5693,2.5693,2.5693,2.5693,2.5693,2.5693,2.5693,2.5693,2.5693,2.5693,2.5693,2.5693,2.5693,2.5693,2.5693,2.5693,2.5693,2.5693,2.5693,2.5693,2.5693,2.5645,2.3187,2.3635,2.406,2.4227,2.502,2.5599,2.5167,0.0,0.0,2.4954,2.484,2.485,2.4871,2.485,0.0,2.5485,2.5549,2.5612,2.5874,2.6249,2.6507,2.6507,2.6921,2.721,0.0,2.721,0.0,0.0,0.0,2.7097,2.688,2.686,2.6436,2.557,2.5327,2.4967,2.4497,2.4497,2.4497,2.4497,2.4497,2.4497,2.4497,2.4497,2.4497,2.4497,2.4497,0.0,2.4518,2.4755,2.4859,2.49,2.5377,2.5564,2.5595,2.5825,2.6053,2.626,2.626,2.6415,2.6623,2.6623,2.6301,2.5949,2.6188,2.6087,2.5872,2.5872,2.5664,2.5405,2.5145,2.5084,2.5132,2.5371,2.541,2.5478,2.5669,2.5693,2.5693,2.5693,2.5693,2.5693,2.5693,2.5693,2.5693,2.5693,2.5693,2.5693,2.5693,2.5693,2.5693,2.5693,2.5693,2.5693,2.5693,2.5693,2.5693,2.5693,2.5693,2.5693,2.5693,2.5693,2.5693,2.5693,2.5693,2.5693,2.5693,2.5693,2.5693,2.5693,2.5693,2.5693,2.2759,2.3483,2.4069,2.3892,2.5032,2.6014,2.5293,2.5445,0.0,2.5147,2.4764,2.4604,2.4977,0.0,2.486,0.0,2.5464,2.5443,2.5707,2.6186,2.6507,0.0,2.6921,0.0,2.721,2.7333,0.0,0.0,0.0,0.0,2.721,2.6663,2.6051,2.5369,2.5158,2.4871,2.4497,2.4497,2.4497,2.4497,2.4497,2.4497,2.4497,2.4497,2.4497,2.4507,2.4611,0.0,0.0,2.5159,2.5346,2.5387,2.5877,2.6053,2.6063,2.6156,2.6426,2.6747,2.6747,2.6985,2.7309,2.7309,2.6788,2.627,2.6563,2.6477,2.63,2.6396,2.6221,2.5965,2.5757,2.5693,2.5693,2.5693,2.5693,2.5693,2.5693,2.5693,2.5693,2.5693,2.5693,2.5693,2.5693,2.5693,2.5693,2.5693,2.5693,2.5693,2.5693,2.5693,2.5693,2.5693,2.5693,2.5693,2.5693,2.5693,2.5693,2.5693,2.5693,2.5693,2.5693,2.5693,2.5693,2.5693,2.5693,2.5693,2.5693,2.5693,2.5693,2.5693,2.5693,2.5693,2.2346,2.283,2.3406,2.4148,2.4789,2.5221,2.5198,0.0,2.5115,2.4668,2.454,2.4518,2.4561,0.0,0.0,0.0,0.0,2.5696,2.5327,2.5988,2.6507,2.6507,0.0,0.0,2.721,2.7736,0.0,0.0,0.0,0.0,2.721,2.6416,2.5916,2.5833,2.5009,2.454,2.4497,2.4497,2.4497,2.4497,2.4497,2.4497,2.4497,2.4497,2.4497,2.4518,2.4941,0.0,0.0,2.5637,2.5846,2.5887,2.6343,2.6529,2.6581,2.6996,2.7206,2.7247,2.7247,2.7268,2.7309,2.7309,2.7247,2.7138,2.6938,2.6686,2.6422,2.6211,2.5941,2.5732,2.5718,2.5693,2.5693,2.5693,2.5693,2.5693,2.5693,2.5693,2.5693,2.5693,2.5693,2.5693,2.5693,2.5693,2.5693,2.5693,2.5693,2.5693,2.5693,2.5693,2.5693,2.5693,2.5693,2.5693,2.5693,2.5693,2.5693,2.5693,2.5693,2.5693,2.5693,2.5693,2.5693,2.5693,2.5693,2.5693,2.5693,2.5693,2.5693,2.5693,2.5693,2.5693,2.2331,2.2993,2.3606,2.4014,2.4851,2.5436,2.4893,0.0,2.5073,2.4604,2.4497,2.4497,2.4497,2.4636,0.0,0.0,0.0,0.0,2.5988,2.6629,2.7071,2.6942,2.7097,0.0,0.0,0.0,0.0,0.0,0.0,0.0,2.7817,2.6807,2.6156,2.5916,2.5253,2.4914,2.4914,2.4647,2.4497,2.4497,2.4497,2.4497,2.4497,2.4497,2.4652,2.4921,2.5128,0.0,0.0,2.6136,2.6312,2.6364,2.6853,2.7029,2.7027,2.7237,2.7309,2.7309,2.7309,2.7309,2.7309,2.7309,2.7309,2.7286,2.7177,2.6832,2.6472,2.6366,2.6038,2.5693,2.5693,2.5693,2.5693,2.5693,2.5693,2.5693,2.5693,2.5693,2.5693,2.5693,2.5693,2.5693,2.5693,2.5693,2.5693,2.5693,2.5693,2.5693,2.5693,2.5693,2.5693,2.5693,2.5693,2.5693,2.5693,2.5693,2.5693,2.5693,2.5693,2.5693,2.5693,2.5693,2.5693,2.5693,2.5693,2.5693,2.5693,2.5693,2.5693,2.5693,2.5693,2.5693,2.2366,2.306,2.3671,2.3857,2.4693,2.5306,0.0,0.0,2.4914,2.4561,2.4497,2.4497,2.4497,2.4497,0.0,0.0,0.0,2.637,2.6567,2.7395,2.7931,0.0,0.0,0.0,0.0,0.0,0.0,0.0,0.0,0.0,0.0,2.7258,2.6498,2.6093,2.5517,2.52,2.52,2.4722,2.4497,2.4497,2.4497,2.4497,2.4497,2.4497,2.4755,2.5222,0.0,0.0,0.0,2.6602,2.6799,2.683,2.7185,2.7309,2.7309,2.7309,2.7309,2.7309,2.7309,2.7309,2.7309,2.7309,2.7309,2.7309,2.7309,2.6928,2.6472,2.64,2.6038,2.5693,2.5693,2.5693,2.5693,2.5693,2.5693,2.5693,2.5693,2.5693,2.5693,2.5693,2.5693,2.5693,2.5693,2.5693,2.5693,2.5693,2.5693,2.5693,2.5693,2.5693,2.5693,2.5693,2.5693,2.5693,2.5693,2.5693,2.5693,2.5693,2.5693,2.5693,2.5693,2.5693,2.5693,2.5693,2.5693,2.5693,2.5693,2.5693,2.5693,2.5693,2.5693,2.5693,2.2366,2.2862,2.3318,2.3784,2.4209,2.4518,0.0,2.4497,2.4497,2.4497,2.4497,2.4497,2.4497,2.4497,2.4497,2.4497,0.0,0.0,2.6792,2.8108,2.9081,0.0,0.0,2.9081,0.0,0.0,0.0,0.0,0.0,0.0,0.0,2.7566,2.6974,2.6507,2.5653,2.52,2.52,2.4722,2.4497,2.4497,2.4497,2.4497,2.4497,2.4497,2.4755,0.0,0.0,0.0,0.0,2.7102,2.7299,2.7299,2.7309,2.7309,2.7309,2.7309,2.7309,2.7309,2.7309,2.7309,2.7309,2.7309,2.7309,2.7309,2.7309,2.6928,2.6448,2.6173,2.5917,2.5693,2.5693,2.5693,2.5693,2.5693,2.5693,2.5693,2.5693,2.5693,2.5693,2.5693,2.5693,2.5693,2.5693,2.5693,2.5693,2.5693,2.5693,2.5693,2.5693,2.5693,2.5693,2.5693,2.5693,2.5693,2.5693,2.5693,2.5693,2.5693,2.5693,2.5693,2.5693,2.5693,2.5693,2.5693,2.5693,2.5693,2.5693,2.5693,2.5693,2.5693,2.5693,2.5693,2.2842,2.3328,2.3784,2.4198,2.4415,2.4497,2.4497,2.4497,2.4497,2.4497,2.4497,2.4497,2.4497,2.4497,2.4497,2.4497,2.6173,0.0,0.0,0.0,0.0,2.9101,2.9464,0.0,0.0,0.0,0.0,0.0,0.0,0.0,0.0,2.8227,2.7615,2.7003,2.6135,2.5686,2.5686,2.4903,2.4497,2.4497,2.4497,2.4497,2.4507,2.4828,0.0,0.0,0.0,0.0,0.0,2.7247,2.7309,2.7309,2.7309,2.7309,2.7309,2.7309,2.7309,2.7309,2.7309,2.7309,2.7309,2.7309,2.7309,2.7309,2.7309,2.6928,2.64,2.5941,2.5781,2.5693,2.5693,2.5693,2.5693,2.5693,2.5693,2.5693,2.5693,2.5693,2.5693,2.5693,2.5693,2.5693,2.5693,2.5693,2.5693,2.5693,2.5693,2.5693,2.5693,2.5693,2.5693,2.5693,2.5693,2.5693,2.5693,2.5693,2.5693,2.5693,2.5693,2.5693,2.5693,2.5693,2.5693,2.5693,2.5693,2.5693,2.5693,2.5693,2.5693,2.5693,2.5693,2.5693,2.3339,2.3681,2.4012,2.4394,2.4497,0.0,2.4497,2.4497,2.4497,2.4497,2.4497,2.4497,2.4497,2.4497,2.4497,2.4497,2.5997,0.0,0.0,0.0,0.0,2.9394,0.0,0.0,0.0,0.0,0.0,0.0,0.0,0.0,0.0,2.8123,2.736,2.6942,2.6271,2.5812,2.5633,2.4882,2.4497,2.4497,2.4497,2.4497,2.4518,2.4994,0.0,0.0,0.0,0.0,0.0,2.7309,2.7309,2.7309,2.7309,2.7309,2.7309,2.7309,2.7309,2.7309,2.7309,2.7309,2.7309,2.7309,2.7309,2.7262,2.7071,2.676,2.6376,2.5854,2.5693,2.5693,2.5693,2.5693,2.5693,2.5693,2.5693,2.5693,2.5693,2.5693,2.5693,2.5693,2.5693,2.5693,2.5693,2.5693,2.5693,2.5693,2.5693,2.5693,2.5693,2.5693,2.5693,2.5693,2.5693,2.5693,2.5693,2.5693,2.5693,2.5693,2.5693,2.5693,2.5693,2.5693,2.5693,2.5693,2.5693,2.5693,2.5693,2.5693,2.5693,2.5693,2.5693,2.5693,0.0,2.395,2.4022,2.4415,2.4497,2.4497,2.4497,2.4497,0.0,2.4497,2.4497,2.4497,2.4497,2.4497,2.4497,2.4497,2.5411,2.6256,0.0,2.7735,0.0,0.0,0.0,0.0,0.0,0.0,0.0,0.0,0.0,0.0,0.0,2.7568,2.6631,2.6528,2.6156,2.5696,2.52,2.4722,2.4497,2.4497,2.4497,2.4497,2.4518,2.5025,0.0,0.0,0.0,0.0,0.0,2.7309,2.7309,2.7309,2.7309,2.7309,2.7309,2.7309,2.7309,2.7309,2.7309,2.7309,2.7309,2.7309,2.7309,2.7214,2.6688,2.652,2.6376,2.5854,2.5693,2.5693,2.5693,2.5693,2.5693,2.5693,2.5693,2.5693,2.5693,2.5693,2.5693,2.5693,2.5693,2.5693,2.5693,2.5693,2.5693,2.5693,2.5693,2.5693,2.5693,2.5693,2.5693,2.5693,2.5693,2.5693,2.5693,2.5693,2.5693,2.5693,2.5693,2.5693,2.5693,2.5693,2.5693,2.5693,2.5693,2.5693,2.5693,2.5693,2.5693,2.5693,2.5693,2.5693,2.4146,0.0,2.4384,2.4476,2.4497,2.4497,0.0,0.0,0.0,0.0,0.0,2.4497,2.4497,2.4497,2.4497,2.4497,2.5411,2.6131,2.6256,0.0,0.0,0.0,0.0,0.0,0.0,0.0,0.0,0.0,0.0,0.0,0.0,2.8819,2.779,2.6762,2.6475,2.5999,2.5221,2.4722,2.4497,2.4497,2.4497,2.4497,2.4528,2.5357,0.0,0.0,0.0,0.0,2.7309,2.7309,2.7309,2.7309,2.7309,2.7309,2.7309,2.7309,2.7309,2.7309,2.7309,2.7309,2.7309,2.7309,2.7309,2.7238,2.6914,2.6651,2.6376,2.5854,2.5693,2.5693,2.5693,2.5693,2.5693,2.5693,2.5693,2.5693,2.5693,2.5693,2.5693,2.5693,2.5693,2.5693,2.5693,2.5693,2.5693,2.5693,2.5693,2.5693,2.5693,2.5693,2.5693,2.5693,2.5693,2.5693,2.5693,2.5693,2.5693,2.5693,2.5693,2.5693,2.5693,2.5693,2.5693,2.5693,2.5693,2.5693,2.5693,2.5693,2.5693,2.5693,2.5693,2.5693,2.4249,2.4497,2.4497,2.4497,2.4497,2.4497,2.4497,0.0,0.0,0.0,0.0,2.4497,2.4497,2.4497,2.4497,2.4497,2.4988,0.0,0.0,0.0,0.0,0.0,0.0,0.0,0.0,0.0,0.0,0.0,0.0,0.0,0.0,2.9023,2.8159,2.7412,2.6586,2.5768,2.4892,2.4625,2.4497,2.4497,2.4497,2.4497,2.4528,2.5471,2.5897,0.0,0.0,0.0,2.7309,2.7309,2.7309,2.7309,2.7309,2.7309,2.7309,2.7309,2.7309,2.7309,2.7309,2.7309,2.7309,2.7309,2.7309,2.7238,2.6842,2.6626,2.64,2.5989,2.5781,2.5693,2.5693,2.5693,2.5693,2.5693,2.5693,2.5693,2.5693,2.5693,2.5693,2.5693,2.5693,2.5693,2.5693,2.5693,2.5693,2.5693,2.5693,2.5693,2.5693,2.5693,2.5693,2.5693,2.5693,2.5693,2.5693,2.5693,2.5693,2.5693,2.5693,2.5693,2.5693,2.5693,2.5693,2.5693,2.5693,2.5693,2.5693,2.5693,2.5693,2.5693,2.5693,2.5693,2.4249,2.4497,2.4497,2.4497,2.4497,2.4497,2.4497,0.0,0.0,0.0,0.0,0.0,2.4497,2.4497,0.0,0.0,0.0,0.0,2.6462,2.8486,0.0,0.0,0.0,0.0,0.0,0.0,0.0,0.0,0.0,0.0,0.0,2.903,2.8335,2.8207,2.678,2.5589,2.47,2.4561,2.4497,2.4497,2.4497,2.4497,2.4528,2.5471,2.5897,0.0,0.0,0.0,2.7309,2.7309,2.7309,2.7309,2.7309,2.7309,2.7309,2.7309,2.7309,2.7309,2.7309,2.7309,2.7309,2.7309,2.7309,2.7214,2.676,2.6568,2.6448,2.6221,2.5941,2.5693,2.5693,2.5693,2.5693,2.5693,2.5693,2.5693,2.5693,2.5693,2.5693,2.5693,2.5693,2.5693,2.5693,2.5693,2.5693,2.5693,2.5693,2.5693,2.5693,2.5693,2.5693,2.5693,2.5693,2.5693,2.5693,2.5693,2.5693,2.5693,2.5693,2.5693,2.5693,2.5693,2.5693,2.5693,2.5693,2.5693,2.5693,2.5693,2.5693,2.5693,2.5693,2.5693,2.4249,2.4497,2.4497,2.4497,2.4497,2.4497,2.4497,0.0,0.0,0.0,0.0,0.0,0.0,2.4497,2.4497,0.0,0.0,0.0,0.0,0.0,0.0,0.0,0.0,0.0,0.0,0.0,0.0,0.0,0.0,0.0,0.0,3.0081,2.945,2.8732,2.7536,2.6483,2.56,2.4861,2.4497,2.4497,2.4497,2.4497,2.4528,2.5471,2.5897,0.0,0.0,2.7309,2.7309,2.7309,2.7309,2.7309,2.7309,2.7309,2.7309,2.7309,2.7309,2.7309,2.7309,2.7309,2.7309,2.7309,2.7309,2.7286,2.7214,2.6856,2.6496,2.6448,2.6072,2.5693,2.5693,2.5693,2.5693,2.5693,2.5693,2.5693,2.5693,2.5693,2.5693,2.5693,2.5693,2.5693,2.5693,2.5693,2.5693,2.5693,2.5693,2.5693,2.5693,2.5693,2.5693,2.5693,2.5693,2.5693,2.5693,2.5693,2.5693,2.5693,2.5693,2.5693,2.5693,2.5693,2.5693,2.5693,2.5693,2.5693,2.5693,2.5693,2.5693,2.5693,2.5693,2.5693,2.4249,2.4497,2.4497,2.4497,2.4497,2.4497,2.4497,2.4497,0.0,0.0,0.0,0.0,0.0,0.0,2.4658,2.5126,0.0,0.0,0.0,0.0,0.0,0.0,0.0,0.0,0.0,0.0,0.0,0.0,0.0,0.0,0.0,0.0,2.9696,2.8843,2.7678,2.6668,2.5798,2.4935,2.4497,2.4497,2.4497,2.4497,2.4528,2.5471,2.5897,2.5949,0.0,2.7309,2.7309,2.7309,2.7309,2.7309,2.7309,2.7309,2.7309,2.7309,2.7309,2.7309,2.7309,2.7309,2.7309,2.7309,2.7309,2.7262,2.6952,2.6794,2.6651,2.6376,2.5989,2.5693,2.5693,2.5693,2.5693,2.5693,2.5693,2.5693,2.5693,2.5693,2.5693,2.5693,2.5693,2.5693,2.5693,2.5693,2.5693,2.5693,2.5693,2.5693,2.5693,2.5693,2.5693,2.5693,2.5693,2.5693,2.5693,2.5693,2.5693,2.5693,2.5693,2.5693,2.5693,2.5693,2.5693,2.5693,2.5693,2.5693,2.5693,2.5693,2.5693,2.5693,2.5693,2.5693,2.428,2.4497,2.4497,2.4497,2.4497,2.4497,2.4497,2.4497,0.0,0.0,0.0,0.0,0.0,2.4679,0.0,2.5955,0.0,0.0,0.0,0.0,0.0,0.0,0.0,0.0,0.0,0.0,0.0,0.0,0.0,0.0,0.0,0.0,2.9618,2.8752,2.7669,2.6668,2.5798,2.4935,2.4497,2.4497,2.4497,2.4497,2.4528,2.5368,2.5804,2.5949,2.6768,2.7206,2.7309,2.7309,2.7309,2.7309,2.7309,2.7309,2.7309,2.7309,2.7309,2.7309,2.7309,2.7309,2.7309,2.7309,2.7309,2.7214,2.6808,2.6794,2.6794,2.64,2.6086,2.5878,2.5805,2.5757,2.5693,2.5693,2.5693,2.5693,2.5693,2.5693,2.5693,2.5693,2.5693,2.5693,2.5693,2.5693,2.5693,2.5693,2.5693,2.5693,2.5693,2.5693,2.5693,2.5693,2.5693,2.5693,2.5693,2.5693,2.5693,2.5693,2.5693,2.5693,2.5693,2.5693,2.5693,2.5693,2.5693,2.5693,2.5693,2.5693,2.5693,2.5693,2.5693,2.5693,2.4373,2.4497,2.4497,2.4497,2.4497,2.4497,2.4497,2.4497,0.0,2.4497,0.0,0.0,0.0,2.5158,2.5986,0.0,0.0,0.0,0.0,0.0,0.0,0.0,0.0,0.0,0.0,0.0,0.0,0.0,0.0,0.0,0.0,0.0,0.0,2.8542,2.7597,2.6668,2.5798,2.4935,2.4497,2.4497,2.4497,2.4497,2.4518,2.5025,2.5502,2.5929,2.6426,2.6915,2.7309,2.7309,2.7309,2.7309,2.7309,2.7309,2.7309,2.7309,2.7309,2.7309,2.7309,2.7309,2.7309,2.7309,2.7309,2.7286,2.7262,2.7081,2.69,2.6853,2.6651,2.64,2.6149,2.5893,2.5693,2.5693,2.5693,2.5693,2.5693,2.5693,2.5693,2.5693,2.5693,2.5693,2.5693,2.5693,2.5693,2.5693,2.5693,2.5693,2.5693,2.5693,2.5693,2.5693,2.5693,2.5693,2.5693,2.5693,2.5693,2.5693,2.5693,2.5693,2.5693,2.5693,2.5693,2.5693,2.5693,2.5693,2.5693,2.5693,2.5693,2.5693,2.5693,2.5693,2.4394,2.4497,2.4497,2.4497,2.4497,0.0,0.0,2.4497,2.4497,2.4497,2.4497,0.0,0.0,0.0,0.0,0.0,0.0,0.0,0.0,0.0,0.0,0.0,0.0,0.0,0.0,0.0,0.0,0.0,0.0,0.0,0.0,0.0,0.0,2.7678,2.7293,2.6668,2.5798,2.4935,2.4775,2.5295,2.4764,2.4497,2.4518,2.4994,2.5449,2.5929,2.6395,2.6884,2.7309,2.7309,2.7309,2.7309,2.7309,2.7309,2.7309,2.7309,2.7309,2.7309,2.7309,2.7309,2.7309,2.7309,2.7309,2.7262,2.7105,2.7105,2.7105,2.6948,2.6829,2.6651,2.6221,2.6028,2.5917,2.5732,2.5693,2.5693,2.5693,2.5693,2.5693,2.5693,2.5693,2.5693,2.5693,2.5693,2.5693,2.5693,2.5693,2.5693,2.5693,2.5693,2.5693,2.5693,2.5693,2.5693,2.5693,2.5693,2.5693,2.5693,2.5693,2.5693,2.5693,2.5693,2.5693,2.5693,2.5693,2.5693,2.5693,2.5693,2.5693,2.5693,2.5693,2.5693,2.4436,2.4497,2.4497,2.4497,0.0,0.0,2.4497,2.4497,2.4497,2.4497,2.4497,0.0,0.0,0.0,0.0,0.0,0.0,0.0,0.0,0.0,0.0,0.0,0.0,0.0,0.0,0.0,0.0,0.0,0.0,0.0,0.0,0.0,0.0,0.0,2.711,2.6668,2.5798,2.52,2.5348,2.6193,2.5327,2.4764,2.4507,2.4828,2.5315,2.5918,2.6239,2.6716,2.7309,2.7309,2.7309,2.7309,2.7309,2.7309,2.7309,2.7309,2.7309,2.7309,2.7309,2.7309,2.7309,2.7309,2.7309,2.7262,2.7081,2.7153,2.7262,2.7081,2.7044,2.6914,2.6472,2.6221,2.6052,2.5868,2.5757,2.5693,2.5693,2.5693,2.5693,2.5693,2.5693,2.5693,2.5693,2.5693,2.5693,2.5693,2.5693,2.5693,2.5693,2.5693,2.5693,2.5693,2.5693,2.5693,2.5693,2.5693,2.5693,2.5693,2.5693,2.5693,2.5693,2.5693,2.5693,2.5693,2.5693,2.5693,2.5693,2.5693,2.5693,2.5693,2.5693,2.5693,2.4497,2.4497,2.4497,0.0,0.0,0.0,2.4497,2.4497,2.4497,2.4497,0.0,2.5052,2.6762,0.0,0.0,0.0,0.0,0.0,0.0,0.0,0.0,0.0,0.0,0.0,0.0,0.0,0.0,0.0,0.0,0.0,0.0,0.0,0.0,0.0,2.711,2.6689,2.5819,2.583,2.6256,2.711,2.6235,2.5358,2.4518,2.4518,2.5004,2.592,2.5897,2.6449,2.7299,2.7309,2.7309,2.7309,2.7309,2.7309,2.7309,2.7309,2.7309,2.7309,2.7309,2.7309,2.7309,2.7309,2.7309,2.7309,2.7309,2.7309,2.7309,2.7309,2.7309,2.7238,2.6972,2.6496,2.61,2.61,2.5893,2.5693,2.5693,2.5693,2.5693,2.5693,2.5693,2.5693,2.5693,2.5693,2.5693,2.5693,2.5693,2.5693,2.5693,2.5693,2.5693,2.5693,2.5693,2.5693,2.5693,2.5693,2.5693,2.5693,2.5693,2.5693,2.5693,2.5693,2.5693,2.5693,2.5693,2.5693,2.5693,2.5693,2.5693,2.5693,2.5693,2.5693,2.4497,2.4497,0.0,2.4497,0.0,0.0,0.0,2.4497,0.0,0.0,2.4999,2.5558,2.609,0.0,0.0,0.0,0.0,0.0,0.0,0.0,0.0,0.0,0.0,0.0,0.0,0.0,0.0,0.0,0.0,0.0,0.0,0.0,0.0,0.0,2.8071,2.7959,2.7698,2.7037,2.7191,2.8071,2.7151,2.6577,2.6287,2.5073,2.5164,2.6312,2.6021,2.6617,2.7808,2.8152,2.7904,2.7309,2.7309,2.7309,2.7309,2.7309,2.7309,2.7309,2.7309,2.7309,2.7309,2.7309,2.7309,2.7309,2.7309,2.7309,2.7309,2.7309,2.7309,2.7286,2.719,2.6904,2.6626,2.6424,2.6183,2.598,2.598,2.582,2.5693,2.5693,2.5693,2.5693,2.5693,2.5693,2.5693,2.5693,2.5693,2.5693,2.5693,2.5693,2.5693,2.5693,2.5693,2.5693,2.5693,2.5693,2.5693,2.5693,2.5693,2.5693,2.5693,2.5693,2.5693,2.5693,2.5693,2.5693,2.5693,2.5693,2.5693,2.5693,2.5693,2.5693,2.4475,2.4497,0.0,2.4497,2.4497,2.4497,2.4497,0.0,0.0,0.0,0.0,2.6007,0.0,0.0,0.0,0.0,0.0,0.0,0.0,0.0,0.0,0.0,0.0,0.0,0.0,0.0,0.0,0.0,0.0,0.0,0.0,0.0,0.0,0.0,2.8502,2.8502,2.8502,2.7951,2.8111,2.9,2.8091,2.7851,2.8111,2.634,2.6093,2.7044,2.7194,2.7874,2.8868,2.8743,2.8608,2.8421,2.8011,2.7857,2.7857,2.7857,2.7631,2.7309,2.7309,2.7309,2.7309,2.7309,2.7309,2.7309,2.7309,2.7309,2.7309,2.7309,2.7309,2.7309,2.7309,2.7167,2.6986,2.6723,2.6366,2.61,2.61,2.5893,2.5693,2.5693,2.5693,2.5693,2.5693,2.5693,2.5693,2.5693,2.5693,2.5693,2.5693,2.5693,2.5693,2.5693,2.5693,2.5693,2.5693,2.5693,2.5693,2.5693,2.5693,2.5693,2.5693,2.5693,2.5693,2.5693,2.5693,2.5693,2.5693,2.5693,2.5693,2.5693,2.5693,2.5693,2.4454,2.4497,0.0,2.4497,2.4497,0.0,2.47,2.4679,2.4839,2.5642,0.0,2.6545,0.0,0.0,0.0,0.0,0.0,0.0,0.0,0.0,0.0,0.0,0.0,0.0,0.0,0.0,0.0,0.0,0.0,0.0,0.0,0.0,0.0,2.8641,2.8633,2.8633,2.8633,2.8633,2.902,0.0,2.9,2.902,2.9753,2.7931,2.7364,2.7861,2.8929,2.9663,3.0056,2.9292,2.9441,3.0102,2.9199,2.884,2.884,2.8724,2.8151,2.7428,2.7333,2.7309,2.7309,2.7309,2.7309,2.7309,2.7309,2.7309,2.7309,2.7309,2.7309,2.7309,2.7309,2.7309,2.7238,2.6986,2.6616,2.6284,2.6197,2.6014,2.5854,2.5757,2.5718,2.5732,2.583,2.5757,2.5693,2.5693,2.5693,2.5693,2.5693,2.5693,2.5693,2.5693,2.5693,2.5693,2.5693,2.5693,2.5693,2.5693,2.5693,2.5693,2.5693,2.5693,2.5693,2.5693,2.5693,2.5693,2.5693,2.5693,2.5693,2.5693,2.5693,2.5693,2.4497,2.4497,0.0,0.0,2.4497,2.4871,2.6236,2.5997,2.5579,2.5767,2.6935,0.0,0.0,0.0,0.0,0.0,0.0,0.0,0.0,0.0,0.0,0.0,0.0,0.0,0.0,0.0,0.0,0.0,0.0,0.0,0.0,0.0,0.0,2.9527,2.9514,2.9514,2.9514,2.9514,2.9605,0.0,2.9605,2.9624,2.9753,2.7931,2.7364,2.788,2.9308,2.9775,2.9562,3.057,3.0678,3.017,2.9966,2.9875,2.9784,2.8991,2.8561,2.8292,2.756,2.7309,2.7309,2.7309,2.7309,2.7309,2.7309,2.7309,2.7309,2.7309,2.7309,2.7309,2.7309,2.7309,2.7286,2.7238,2.7539,2.7636,2.688,2.6955,2.6969,2.6173,2.5844,2.5941,2.6733,2.6211,2.5693,2.5693,2.5693,2.5693,2.5693,2.5693,2.5693,2.5693,2.5693,2.5693,2.5693,2.5693,2.5693,2.5693,2.5693,2.5693,2.5693,2.5693,2.5693,2.5693,2.5693,2.5693,2.5693,2.5693,2.5693,2.5693,2.5693,2.5693,2.4475,0.0,0.0,2.4497,0.0,2.4839,2.6184,2.6442,2.6545,2.6996,2.7839,0.0,0.0,0.0,0.0,0.0,0.0,0.0,0.0,0.0,0.0,0.0,0.0,0.0,0.0,0.0,0.0,0.0,0.0,0.0,0.0,2.9792,2.9792,2.9792,2.9792,2.9792,2.9792,2.9792,2.9792,2.9792,2.9792,2.9792,2.9772,2.8823,2.8682,2.921,3.0256,3.0706,3.0735,3.1352,3.1603,3.1524,3.1058,3.0879,3.0812,3.0283,2.9806,2.9349,2.8852,2.869,2.869,2.869,2.869,2.869,2.869,2.8351,2.8058,2.855,2.8328,2.7974,2.7974,2.7974,2.7974,2.7974,2.7809,2.761,2.7597,2.766,2.7686,2.7531,2.7376,2.7413,2.784,2.7081,2.6418,2.6418,2.6004,2.5693,2.5693,2.5693,2.5693,2.5693,2.5693,2.5693,2.5693,2.5693,2.5693,2.5693,2.5693,2.5693,2.5693,2.5693,2.5693,2.5693,2.5693,2.5693,2.5693,2.5693,2.5693,2.5693,2.5693,2.5693,2.4464,0.0,2.454,2.4679,2.4615,0.0,2.5997,2.6689,2.7415,2.8502,0.0,0.0,0.0,0.0,0.0,0.0,0.0,0.0,0.0,0.0,0.0,0.0,0.0,0.0,0.0,0.0,0.0,0.0,0.0,0.0,2.9792,2.9792,2.9792,2.9792,2.9792,2.9792,2.9792,2.9792,2.9792,2.9792,2.9792,2.9792,2.9792,2.9892,3.0181,3.0625,3.1173,3.17,3.2168,3.1953,3.2351,3.3025,3.2186,3.1857,3.1835,3.1669,3.1103,3.0418,3.026,3.0192,3.0192,3.0192,3.0192,3.0192,3.0192,2.9624,2.913,2.9966,2.9601,2.8945,2.8945,2.8945,2.8945,2.8945,2.8198,2.7668,2.847,2.853,2.8612,2.9039,2.9212,2.9143,2.8819,2.8192,2.7652,2.7487,2.6744,2.6149,2.5989,2.5965,2.5893,2.5718,2.5693,2.5693,2.5693,2.5693,2.5693,2.5693,2.5693,2.5693,2.5693,2.5693,2.5693,2.5693,2.5693,2.5693,2.5693,2.5693,2.5693,2.5693,2.5693,2.5693,2.4464,0.0,2.4679,0.0,2.5062,2.5137,0.0,0.0,2.7577,0.0,0.0,0.0,0.0,0.0,0.0,0.0,0.0,0.0,0.0,0.0,0.0,0.0,0.0,0.0,0.0,0.0,0.0,0.0,0.0,0.0,2.9792,2.9792,2.9792,2.9792,2.9792,2.9792,2.9792,2.9792,2.9792,2.9792,2.9792,2.9792,2.9817,3.0281,3.0525,3.0625,3.1173,3.17,3.2244,3.2702,3.2982,3.3102,3.2939,3.2896,3.2797,3.1923,3.1514,3.1315,3.0486,3.0192,3.0192,3.0192,3.0192,3.0192,3.0192,3.0102,3.0034,3.017,3.0102,2.9988,2.9988,2.9988,2.9988,2.9988,2.9875,2.9784,2.9909,3.0373,3.0552,2.9829,3.0011,3.0,2.912,2.9429,2.9487,2.8634,2.8378,2.7981,2.7094,2.701,2.6672,2.5781,2.5693,2.5693,2.5693,2.5693,2.5693,2.5693,2.5693,2.5693,2.5693,2.5693,2.5693,2.5693,2.5693,2.5693,2.5693,2.5693,2.5693,2.5693,2.5693,2.5693,2.4475,2.4497,2.47,0.0,2.5505,2.5673,2.7334,0.0,2.8111,0.0,0.0,0.0,0.0,0.0,0.0,0.0,0.0,0.0,0.0,0.0,0.0,0.0,0.0,0.0,0.0,0.0,0.0,0.0,0.0,2.9792,2.9792,2.9792,2.9792,2.9792,2.9792,2.9792,2.9792,2.9792,2.9792,2.9792,2.9792,2.9792,2.9817,3.0369,3.06,3.0638,3.1466,3.1989,3.2252,3.2851,3.3102,3.3102,3.3102,3.3102,3.3059,3.2602,3.2438,3.2373,3.1967,3.1823,3.1823,3.1823,3.1823,3.1823,3.1823,3.1436,3.1103,3.1669,3.1414,3.0991,3.0991,3.0991,3.0991,3.0991,3.0991,3.1147,3.1713,3.1613,3.1424,3.1424,3.1381,3.1193,3.0757,3.0396,3.0045,2.9612,2.905,2.8355,2.7321,2.7213,2.6795,2.5805,2.5693,2.5815,2.6084,2.6079,2.6201,2.6411,2.643,2.643,2.643,2.6206,2.6079,2.6079,2.5835,2.5693,2.5693,2.5693,2.5693,2.5693,2.5693,2.5693,0.0,0.0,2.4658,2.5306,2.5642,2.6027,0.0,0.0,0.0,0.0,0.0,0.0,0.0,0.0,0.0,0.0,0.0,0.0,0.0,0.0,0.0,0.0,0.0,0.0,0.0,0.0,0.0,0.0,0.0,2.9792,2.9792,2.9792,2.9792,2.9792,2.9792,2.9792,2.9792,2.9792,2.9792,2.9792,2.9792,2.9867,3.0018,3.057,3.0884,3.1052,3.1842,3.2303,3.2466,3.2914,3.3102,3.3102,3.3102,3.3102,3.3102,3.3102,3.3102,3.3102,3.3102,3.3102,3.3102,3.3102,3.3102,3.3102,3.3102,3.2581,3.2154,3.2896,3.2559,3.1989,3.1989,3.1989,3.1989,3.1989,3.1989,3.2198,3.2939,3.2503,3.212,3.2602,3.2376,3.2081,3.2016,3.1215,3.0588,3.0588,2.9932,2.9004,2.7746,2.7581,2.7156,2.6001,2.5884,2.605,2.6514,2.6543,2.668,2.6967,2.6986,2.6986,2.6986,2.6709,2.6543,2.6543,2.6206,2.5932,2.5693,2.5693,2.5693,2.5693,2.5825,2.5884,0.0,2.4497,0.0,2.4561,2.5179,0.0,0.0,0.0,0.0,0.0,0.0,0.0,0.0,0.0,0.0,0.0,0.0,0.0,0.0,0.0,0.0,0.0,0.0,0.0,0.0,0.0,0.0,0.0,0.0,2.9792,2.9792,2.9792,2.9792,2.9792,2.9792,2.9792,2.9792,2.9792,2.9792,2.9792,2.9792,3.0068,3.0575,3.111,3.1637,3.2127,3.219,3.2516,3.3052,3.309,3.3102,3.3102,3.3102,3.3102,3.3102,3.3102,3.3102,3.3102,3.3102,3.3102,3.3102,3.3102,3.3102,3.3102,3.3102,3.3059,3.3025,3.3102,3.3059,3.3025,3.3025,3.3025,3.3025,3.3025,3.3025,3.3038,3.3102,3.3059,3.2961,3.2745,3.254,3.2313,3.2038,3.1783,3.1617,3.1617,3.1572,3.0846,2.8855,2.8634,2.8044,2.6522,2.6357,2.6523,2.6918,2.6982,2.6992,2.6986,2.6986,2.6986,2.6986,2.6992,2.6982,2.6982,2.6937,2.6528,2.5693,2.5693,2.5693,2.5703,2.6162,2.6357,0.0,0.0,0.0,2.5179,2.5997,2.6721,2.7028,2.8263,0.0,0.0,0.0,0.0,0.0,0.0,0.0,0.0,0.0,0.0,0.0,0.0,0.0,0.0,0.0,0.0,0.0,0.0,0.0,0.0,0.0,0.0,2.9792,2.9792,2.9792,2.9792,2.9792,2.9792,2.9792,2.9792,2.9792,2.9792,3.0156,3.04,3.0625,3.1524,3.2026,3.2206,3.2604,3.2901,3.3102,3.3102,3.3102,3.3102,3.3102,3.3102,3.3102,3.3102,3.3102,3.3102,3.3102,3.3102,3.3102,3.3102,3.3102,3.3102,3.3102,3.3102,3.3102,3.3102,3.3102,3.3102,3.3102,3.3102,3.3102,3.3102,3.3102,3.3102,3.3102,3.3102,3.3068,3.2982,3.2671,3.2366,3.2257,3.1937,3.1705,3.1705,3.1705,3.1215,2.9841,2.9327,2.8633,2.7498,2.7022,2.6963,2.7418,2.7457,2.7549,2.7822,2.7832,2.7832,2.7832,2.7578,2.7457,2.7457,2.7158,2.6703,2.6162,2.6162,2.6162,2.6162,2.6318,2.6533,2.4497,0.0,0.0,0.0,0.0,2.711,2.711,0.0,0.0,0.0,0.0,0.0,0.0,0.0,0.0,0.0,0.0,0.0,0.0,0.0,0.0,0.0,0.0,0.0,0.0,0.0,0.0,0.0,0.0,0.0,2.9792,2.9792,2.9792,2.9792,2.9792,2.9792,2.9792,2.9792,2.9792,2.9804,3.0337,3.0688,3.0909,3.178,3.2315,3.2516,3.2939,3.3102,3.3102,3.3102,3.3102,3.3102,3.3102,3.3102,3.3102,3.3102,3.3102,3.3102,3.3102,3.3102,3.3102,3.3102,3.3102,3.3102,3.3102,3.3102,3.3102,3.3102,3.3102,3.3102,3.3102,3.3102,3.3102,3.3102,3.3102,3.3102,3.3102,3.3102,3.3059,3.2887,3.2671,3.2431,3.2213,3.1959,3.1783,3.1705,3.1705,3.1398,3.0571,2.9791,2.905,2.8437,2.7677,2.7412,2.7868,2.7907,2.8024,2.8271,2.8291,2.8291,2.8291,2.8054,2.7907,2.7907,2.7598,2.7236,2.6842,2.667,2.6602,2.6602,2.6773,2.7041,0.0,0.0,0.0,0.0,0.0,0.0,2.7151,0.0,2.9566,0.0,0.0,0.0,0.0,0.0,0.0,0.0,0.0,0.0,0.0,0.0,0.0,0.0,0.0,0.0,0.0,0.0,0.0,0.0,0.0,2.9792,2.9792,2.9792,2.9792,2.9792,2.9792,2.9792,2.9792,2.9792,2.9792,2.9804,3.0369,3.0896,3.1432,3.1976,3.2541,3.3102,3.3102,3.3102,3.3102,3.3102,3.3102,3.3102,3.3102,3.3102,3.3102,3.3102,3.3102,3.3102,3.3102,3.3102,3.3102,3.3102,3.3102,3.3102,3.3102,3.3102,3.3102,3.3102,3.3102,3.3102,3.3102,3.3102,3.3102,3.3102,3.3102,3.3102,3.3102,3.3102,3.2973,3.2509,3.2571,3.2494,3.1837,3.1871,3.1937,3.1761,3.1705,3.1529,3.1113,3.0037,2.9322,2.9334,2.8374,2.7878,2.8262,2.8291,2.8291,2.8291,2.8291,2.8291,2.8291,2.8291,2.8291,2.8291,2.8291,2.8122,2.7712,2.7246,2.7006,2.7015,2.7506,2.7936,2.4497,0.0,0.0,0.0,0.0,0.0,2.8111,2.8981,2.9733,0.0,0.0,0.0,0.0,0.0,0.0,0.0,0.0,0.0,0.0,0.0,0.0,0.0,0.0,0.0,0.0,0.0,0.0,0.0,2.9792,2.9792,2.9792,2.9792,2.9792,2.9792,2.9792,2.9792,2.9792,2.9792,2.9792,2.9804,3.0733,3.1248,3.1424,3.2424,3.2939,3.3102,3.3102,3.3102,3.3102,3.3102,3.3102,3.3102,3.3102,3.3102,3.3102,3.3102,3.3102,3.3102,3.3102,3.3102,3.3102,3.3102,3.3102,3.3102,3.3102,3.3102,3.3102,3.3102,3.3102,3.3102,3.3102,3.3102,3.3102,3.3102,3.3102,3.3102,3.3102,3.3102,3.3059,3.293,3.2788,3.2624,3.2463,3.2201,3.206,3.2191,3.1915,3.1853,3.2246,3.0837,2.9957,3.0349,2.9026,2.8164,2.8281,2.8291,2.8291,2.8291,2.8291,2.8291,2.8291,2.8291,2.8291,2.8291,2.8291,2.8232,2.8142,2.7721,2.7516,2.7526,2.7946,2.8184,0.0,0.0,0.0,0.0,0.0,0.0,2.8502,2.917,2.9714,0.0,0.0,0.0,0.0,0.0,0.0,0.0,0.0,0.0,0.0,0.0,0.0,0.0,0.0,0.0,0.0,0.0,0.0,2.9792,2.9792,2.9792,2.9792,2.9792,2.9792,2.9792,2.9792,2.9792,2.9792,2.9792,2.9905,3.0143,3.0984,3.1512,3.1763,3.2688,3.3102,3.3102,3.3102,3.3102,3.3102,3.3102,3.3102,3.3102,3.3102,3.3102,3.3102,3.3102,3.3102,3.3102,3.3102,3.3102,3.3102,3.3102,3.3102,3.3102,3.3102,3.3102,3.3102,3.3102,3.3102,3.3102,3.3102,3.3102,3.3102,3.3102,3.3102,3.3102,3.3102,3.3102,3.3068,3.2939,3.281,3.268,3.2593,3.2344,3.2191,3.2235,3.2103,3.2239,3.2924,3.1312,3.0371,3.1058,2.9422,2.8291,2.8291,2.8291,2.8291,2.8291,2.8291,2.8291,2.8291,2.8291,2.8291,2.8291,2.8291,2.8291,2.8291,2.8073,2.7956,2.7966,2.8174,2.8291,0.0,0.0,0.0,0.0,2.8561,0.0,2.8641,2.9229,2.9585,2.8791,0.0,0.0,0.0,0.0,0.0,0.0,0.0,0.0,0.0,0.0,0.0,0.0,0.0,0.0,0.0,2.9792,2.9792,2.9792,2.9792,2.9792,2.9792,2.9792,2.9792,2.9792,2.9792,2.9792,2.9792,2.9792,3.0068,3.06,3.1135,3.1675,3.2206,3.2826,3.3102,3.3102,3.3102,3.3102,3.3102,3.3102,3.3102,3.3102,3.3102,3.3102,3.3102,3.3102,3.3102,3.3102,3.3102,3.3102,3.3102,3.3102,3.3102,3.3102,3.3102,3.3102,3.3102,3.3102,3.3102,3.3102,3.3102,3.3102,3.3102,3.3102,3.3102,3.3102,3.3102,3.3102,3.3025,3.2788,3.2745,3.2702,3.2519,3.2453,3.2366,3.2147,3.2328,3.27,3.3291,3.1636,3.0721,3.1502,2.9628,2.8291,2.8291,2.8291,2.8291,2.8291,2.8291,2.8291,2.8291,2.8291,2.8291,2.8291,2.8291,2.8291,2.8291,2.8291,2.8291,2.8291,2.8291,2.8291,0.0,0.0,0.0,0.0,0.0,0.0,2.9546,2.9682,2.9753,0.0,0.0,0.0,0.0,0.0,0.0,0.0,0.0,0.0,0.0,0.0,0.0,0.0,0.0,0.0,0.0,2.9792,2.9792,2.9792,2.9792,2.9792,2.9792,2.9792,2.9792,2.9792,2.9792,2.9792,2.9792,2.9792,3.0068,3.06,3.1135,3.1675,3.2206,3.2826,3.3102,3.3102,3.3102,3.3102,3.3102,3.3102,3.3102,3.3102,3.3102,3.3102,3.3102,3.3102,3.3102,3.3102,3.3102,3.3102,3.3102,3.3102,3.3102,3.3102,3.3102,3.3102,3.3102,3.3102,3.3102,3.3102,3.3102,3.3102,3.3102,3.3102,3.3102,3.3102,3.3102,3.3102,3.3068,3.3025,3.3025,3.3004,3.2973,3.2788,3.2702,3.2853,3.2977,3.3228,3.3787,3.2209,3.118,3.156,2.9628,2.8291,2.8291,2.8291,2.8291,2.8291,2.8291,2.8291,2.8291,2.8291,2.8291,2.8291,2.8291,2.8291,2.8291,2.8291,2.8291,2.8291,2.8291,2.8291,0.0,0.0,0.0,2.915,0.0,0.0,0.0,2.9792,2.9792,2.9792,2.9792,0.0,0.0,0.0,0.0,0.0,0.0,0.0,0.0,0.0,0.0,0.0,0.0,0.0,0.0,2.9792,2.9792,2.9792,2.9792,2.9792,2.9792,2.9792,2.9792,2.9792,2.9792,2.9792,2.9792,2.9792,3.0193,3.0997,3.1273,3.1838,3.2654,3.2964,3.3102,3.3102,3.3102,3.3102,3.3102,3.3102,3.3102,3.3102,3.3102,3.3102,3.3102,3.3102,3.3102,3.3102,3.3102,3.3102,3.3102,3.3102,3.3102,3.3102,3.3102,3.3102,3.3102,3.3102,3.3102,3.3102,3.3102,3.3102,3.3102,3.3102,3.3102,3.3102,3.3102,3.3102,3.3102,3.3102,3.3102,3.3102,3.3102,3.2874,3.2745,3.2874,3.3173,3.3496,3.3937,3.284,3.1962,3.18,3.0182,2.8883,2.8344,2.8291,2.8291,2.8291,2.8291,2.8291,2.8291,2.8291,2.8291,2.8291,2.8291,2.8291,2.8291,2.8291,2.8291,2.8291,2.8291,2.8291,0.0,0.0,0.0,0.0,0.0,2.9792,0.0,0.0,0.0,2.9792,0.0,0.0,0.0,0.0,0.0,0.0,0.0,0.0,0.0,0.0,0.0,0.0,0.0,0.0,0.0,2.9546,2.9624,2.9792,2.9643,2.9624,2.9792,2.9792,2.9792,2.9792,2.9792,2.9792,2.9792,2.9892,3.0432,3.1406,3.1499,3.211,3.3102,3.3102,3.3102,3.3102,3.3102,3.3102,3.3102,3.3102,3.3102,3.3102,3.3102,3.3102,3.3102,3.3102,3.3102,3.3102,3.3102,3.3102,3.3102,3.3102,3.3102,3.3102,3.3102,3.3102,3.3102,3.3102,3.3102,3.3102,3.3102,3.3102,3.3102,3.3102,3.3102,3.3102,3.3102,3.3102,3.3102,3.3102,3.3102,3.3102,3.3102,3.2918,3.2788,3.2788,3.3314,3.3786,3.3972,3.3434,3.2766,3.2003,3.0716,2.9471,2.8398,2.8291,2.8291,2.8291,2.8291,2.8291,2.8291,2.8291,2.8291,2.8291,2.8291,2.8291,2.8291,2.8291,2.8291,2.8291,2.8291,2.8291,0.0,0.0,0.0,0.0,2.9792,0.0,0.0,0.0,2.9792,2.9792,0.0,0.0,0.0,0.0,0.0,0.0,0.0,0.0,0.0,0.0,0.0,0.0,0.0,0.0,0.0,0.0,2.8961,2.9753,2.9079,2.8981,2.9753,2.9792,2.9792,2.9792,2.9792,2.9792,2.9792,3.0281,3.0821,3.1419,3.1888,3.2453,3.3102,3.3102,3.3102,3.3102,3.3102,3.3102,3.3102,3.3102,3.3102,3.3102,3.3102,3.3102,3.3102,3.3102,3.3102,3.3102,3.3102,3.3102,3.3102,3.3102,3.3102,3.3102,3.3102,3.3102,3.3102,3.3102,3.3102,3.3102,3.3102,3.3102,3.3102,3.3102,3.3102,3.3102,3.3102,3.3102,3.3102,3.3102,3.3102,3.3102,3.3102,3.3068,3.3047,3.3047,3.3916,3.4424,3.4044,3.3923,3.3294,3.1793,3.0598,2.9471,2.8398,2.8291,2.8291,2.8291,2.8291,2.8291,2.8291,2.8291,2.8291,2.8291,2.8291,2.8291,2.8291,2.8291,2.8291,2.8291,2.8291,2.8291,0.0,0.0,0.0,0.0,0.0,0.0,2.9792,0.0,2.9792,0.0,0.0,0.0,0.0,0.0,0.0,0.0,2.9792,0.0,0.0,0.0,0.0,0.0,0.0,0.0,0.0,0.0,0.0,0.0,0.0,2.8882,2.9753,2.9792,2.9792,2.9792,2.9792,2.9792,2.9792,3.0331,3.0871,3.1419,3.1951,3.2516,3.3102,3.3102,3.3102,3.3102,3.3102,3.3102,3.3102,3.3102,3.3102,3.3102,3.3102,3.3102,3.3102,3.3102,3.3102,3.3102,3.3102,3.3102,3.3102,3.3102,3.3102,3.3102,3.3102,3.3102,3.3102,3.3102,3.3102,3.3102,3.3102,3.3102,3.3102,3.3102,3.3102,3.3102,3.3102,3.3102,3.3102,3.3102,3.3102,3.3102,3.3102,3.3102,3.3102,3.3102,3.3779,3.4249,3.4168,3.434,3.3783,3.2033,3.1257,3.0182,2.8451,2.8291,2.8291,2.8291,2.8291,2.8291,2.8291,2.8291,2.8291,2.8291,2.8291,2.8291,2.8291,2.8291,2.8291,2.8291,2.8291,2.8291,2.915,0.0,0.0,0.0,0.0,0.0,0.0,0.0,0.0,0.0,0.0,0.0,0.0,0.0,0.0,0.0,0.0,2.9475,0.0,0.0,0.0,0.0,0.0,0.0,0.0,0.0,0.0,2.8311,2.8171,2.8542,2.9753,2.9792,2.9792,2.9792,2.9792,2.9792,2.9792,3.0482,3.1022,3.1419,3.2114,3.2667,3.3102,3.3102,3.3102,3.3102,3.3102,3.3102,3.3102,3.3102,3.3102,3.3102,3.3102,3.3102,3.3102,3.3102,3.3102,3.3102,3.3102,3.3102,3.3102,3.3102,3.3102,3.3102,3.3102,3.3102,3.3102,3.3102,3.3102,3.3102,3.3102,3.3102,3.3102,3.3102,3.3102,3.3102,3.3102,3.3102,3.3102,3.3102,3.3102,3.3102,3.3102,3.3102,3.3102,3.3102,3.3667,3.4112,3.4214,3.4625,3.4238,3.2502,3.1906,3.0805,2.891,2.8468,2.8291,2.8291,2.8291,2.8291,2.8291,2.8291,2.8291,2.8291,2.8291,2.8291,2.8291,2.8291,2.8291,2.8291,2.8291,2.8291,0.0,0.0,0.0,2.9585,0.0,0.0,0.0,0.0,2.9792,0.0,0.0,0.0,0.0,0.0,0.0,0.0,0.0,0.0,0.0,0.0,0.0,0.0,0.0,0.0,0.0,0.0,0.0,2.7976,2.7331,2.7718,2.9682,2.9792,2.9792,2.9792,2.9792,2.9792,2.9792,3.0854,3.1373,3.1399,3.2537,3.3077,3.3102,3.3102,3.3102,3.3102,3.3102,3.3102,3.3102,3.3102,3.3102,3.3102,3.3102,3.3102,3.3102,3.3102,3.3102,3.3102,3.3102,3.3102,3.3102,3.3102,3.3102,3.3102,3.3102,3.3102,3.3102,3.3102,3.3102,3.3102,3.3102,3.3102,3.3102,3.3102,3.3102,3.3102,3.3102,3.3102,3.3102,3.3102,3.3102,3.3102,3.3102,3.3102,3.3102,3.3102,3.3788,3.4214,3.4021,3.4709,3.4665,3.33,3.221,3.1114,2.9948,2.891,2.8291,2.8291,2.8291,2.8291,2.8291,2.8291,2.8291,2.8291,2.8291,2.8291,2.8291,2.8291,2.8291,2.8291,2.8291,2.8291,0.0,0.0,2.9436,2.9733,0.0,0.0,0.0,0.0,0.0,0.0,0.0,0.0,0.0,0.0,0.0,0.0,0.0,0.0,0.0,0.0,0.0,0.0,0.0,0.0,0.0,0.0,0.0,2.7128,2.7504,2.8283,0.0,2.9792,2.9792,2.9792,2.9792,2.9967,3.0331,3.1035,3.1574,3.1938,3.2726,3.3102,3.3102,3.3102,3.3102,3.3102,3.3102,3.3102,3.3102,3.3102,3.3102,3.3102,3.3102,3.3102,3.3102,3.3102,3.3102,3.3102,3.3102,3.3102,3.3102,3.3102,3.3102,3.3102,3.3102,3.3102,3.3102,3.3102,3.3102,3.3102,3.3102,3.3102,3.3102,3.3102,3.3102,3.3102,3.3102,3.3102,3.3102,3.3102,3.3102,3.3102,3.3102,3.3102,3.3102,3.3102,3.3776,3.4237,3.4021,3.4709,3.4409,3.2362,3.183,3.0856,2.9006,2.8495,2.8291,2.8291,2.8291,2.8291,2.8291,2.8291,2.8291,2.8291,2.8291,2.8291,2.8291,2.8291,2.8291,2.8291,2.8291,2.8291,2.8422,2.8922,0.0,2.9721,2.9792,0.0,2.9792,0.0,0.0,0.0,0.0,0.0,0.0,0.0,0.0,0.0,0.0,0.0,0.0,2.5347,0.0,0.0,0.0,0.0,0.0,0.0,2.5041,2.6451,2.7159,2.8151,0.0,0.0,2.9792,2.9792,2.9792,3.0055,3.0588,3.1135,3.1675,3.2206,3.2805,3.3102,3.3102,3.3102,3.3102,3.3102,3.3102,3.3102,3.3102,3.3102,3.3102,3.3102,3.3102,3.3102,3.3102,3.3102,3.3102,3.3102,3.3102,3.3102,3.3102,3.3102,3.3102,3.3102,3.3102,3.3102,3.314,3.3341,3.3253,3.314,3.3341,3.3241,3.3102,3.3102,3.3102,3.3102,3.3102,3.3102,3.3102,3.3102,3.3102,3.3102,3.3102,3.3102,3.3102,3.3102,3.3776,3.4237,3.4021,3.4709,3.4568,3.2914,3.2058,3.0701,2.8495,2.8291,2.8291,2.8291,2.8291,2.8291,2.8291,2.8291,2.8437,2.8767,2.8447,2.8447,2.8777,2.8447,2.8291,2.8291,2.8291,2.8291]}]]